[[{"header":{"parameterUnit":"m.s-1","parameterCategory":1,"la1":30.6,"la2":29.2853,"lo1":-89.7004,"lo2":-87.6739,"dy":0.0162,"dx":0.0183,"nx":112,"ny":82,"refTime":"2023-10-01T18:00:00:Z","depth":0,"parameterNumber":2,"parameterNumberName":"U-component_of_WINDS"},"data":[0.0,0.0,0.0,0.0,0.0,0.0,0.0,0.0,0.0,0.0,0.0,0.0,0.0,0.0,0.0,0.0,0.0,0.0,0.0,0.0,0.0,0.0,0.0,0.0,0.0,0.0,0.0,0.0,0.0,0.0,0.0,0.0,0.0,0.0,0.0,0.0,0.0,0.0,0.0,0.0,0.0,0.0,0.0,0.0,0.0,0.0,0.0,0.0,0.0,0.0,0.0,0.0,0.0,0.0,0.0,0.0,0.0,0.0,0.0,0.0,0.0,0.0,0.0,0.0,0.0,0.0,0.0,0.0,0.0,0.0,0.0,0.0,0.0,0.0,0.0,0.0,0.0,0.0,0.0,0.0,0.0,0.0,0.0,0.0,0.0,0.0,0.0,0.0,0.0,0.0,2.0554,2.3361,2.647,2.8726,2.9589,2.8195,2.6601,2.4993,0.0,0.0,0.0,0.0,0.0,0.0,0.0,0.0,0.0,0.0,0.0,0.0,0.0,0.0,0.0,0.0,0.0,0.0,0.0,0.0,0.0,0.0,0.0,0.0,0.0,0.0,0.0,0.0,0.0,0.0,0.0,0.0,0.0,0.0,0.0,0.0,0.0,0.0,0.0,0.0,0.0,0.0,0.0,0.0,0.0,0.0,0.0,0.0,0.0,0.0,0.0,0.0,0.0,0.0,0.0,0.0,0.0,0.0,0.0,0.0,0.0,0.0,0.0,0.0,0.0,0.0,0.0,0.0,0.0,0.0,0.0,0.0,0.0,0.0,0.0,0.0,0.0,0.0,0.0,0.0,0.0,0.0,0.0,0.0,0.0,0.0,0.0,0.0,0.0,0.0,0.0,0.0,0.0,0.0,0.0,0.0,0.0,0.0,0.0,0.0,0.0,0.0,0.0,0.0,2.1751,2.5724,2.7953,2.9243,2.9512,2.8124,2.6553,2.5007,0.0,0.0,0.0,0.0,0.0,0.0,0.0,0.0,0.0,0.0,0.0,0.0,0.0,0.0,0.0,0.0,0.0,0.0,0.0,0.0,0.0,0.0,0.0,0.0,0.0,0.0,0.0,0.0,0.0,0.0,0.0,0.0,0.0,0.0,0.0,0.0,0.0,0.0,0.0,0.0,0.0,0.0,0.0,0.0,0.0,0.0,0.0,0.0,0.0,0.0,0.0,0.0,0.0,0.0,0.0,0.0,0.0,0.0,0.0,0.0,0.0,0.0,0.0,0.0,0.0,0.0,0.0,0.0,0.0,0.0,0.0,0.0,0.0,0.0,0.0,0.0,0.0,0.0,0.0,0.0,0.0,0.0,0.0,0.0,0.0,0.0,0.0,0.0,0.0,0.0,0.0,0.0,0.0,0.0,0.0,0.0,0.0,0.0,0.0,0.0,0.0,0.0,0.0,2.1389,2.3908,2.6279,2.8138,2.9061,2.8719,2.7718,2.6045,2.3601,2.1266,0.0,0.0,0.0,0.0,0.0,0.0,0.0,0.0,0.0,0.0,0.0,0.0,0.0,0.0,0.0,0.0,0.0,0.0,0.0,0.0,0.0,0.0,0.0,0.0,0.0,0.0,0.0,0.0,0.0,0.0,0.0,0.0,0.0,0.0,0.0,0.0,0.0,0.0,0.0,0.0,0.0,0.0,0.0,0.0,0.0,0.0,0.0,0.0,0.0,0.0,0.0,0.0,0.0,0.0,0.0,0.0,0.0,0.0,0.0,0.0,0.0,0.0,0.0,0.0,0.0,0.0,0.0,0.0,0.0,0.0,0.0,0.0,0.0,0.0,0.0,0.0,0.0,0.0,0.0,0.0,0.0,0.0,0.0,0.0,0.0,0.0,0.0,0.0,0.0,0.0,0.0,0.0,0.0,0.0,0.0,0.0,0.0,0.0,0.0,0.0,0.0,0.0,2.3306,2.5648,2.6267,2.7981,2.8758,2.8036,2.7194,2.5422,2.2389,2.0358,0.0,0.0,0.0,0.0,0.0,0.0,0.0,0.0,0.0,0.0,0.0,0.0,0.0,0.0,0.0,0.0,0.0,0.0,0.0,0.0,0.0,0.0,0.0,0.0,0.0,0.0,0.0,0.0,0.0,0.0,0.0,0.0,0.0,0.0,0.0,0.0,0.0,0.0,0.0,0.0,0.0,0.0,0.0,0.0,0.0,0.0,0.0,0.0,0.0,0.0,0.0,0.0,0.0,0.0,0.0,0.0,0.0,0.0,0.0,0.0,0.0,0.0,0.0,0.0,0.0,0.0,0.0,0.0,0.0,0.0,0.0,0.0,0.0,0.0,0.0,0.0,0.0,0.0,0.0,0.0,0.0,0.0,0.0,0.0,0.0,0.0,0.0,0.0,0.0,0.0,0.0,0.0,0.0,0.0,0.0,0.0,0.0,0.0,0.0,0.0,0.0,0.0,2.3943,2.5997,2.6186,2.7825,2.8645,2.7966,2.6615,2.4759,2.235,1.9232,0.0,0.0,0.0,0.0,0.0,0.0,0.0,0.0,0.0,0.0,0.0,0.0,0.0,0.0,0.0,0.0,0.0,0.0,0.0,0.0,0.0,0.0,0.0,0.0,0.0,0.0,0.0,0.0,0.0,0.0,0.0,0.0,0.0,0.0,0.0,0.0,0.0,0.0,0.0,0.0,0.0,0.0,0.0,0.0,0.0,0.0,0.0,0.0,0.0,0.0,0.0,0.0,0.0,0.0,0.0,0.0,0.0,0.0,0.0,0.0,0.0,0.0,0.0,0.0,0.0,0.0,0.0,0.0,0.0,0.0,0.0,0.0,0.0,0.0,0.0,0.0,0.0,0.0,0.0,0.0,0.0,0.0,0.0,0.0,0.0,0.0,0.0,0.0,0.0,0.0,0.0,0.0,0.0,0.0,0.0,0.0,0.0,0.0,0.0,0.0,0.0,0.0,2.3909,2.5953,2.6002,2.7628,2.8233,2.7053,2.6107,2.4153,2.0788,0.0,0.0,0.0,0.0,0.0,0.0,0.0,0.0,0.0,0.0,0.0,0.0,0.0,0.0,0.0,0.0,0.0,0.0,0.0,0.0,0.0,0.0,0.0,0.0,0.0,0.0,0.0,0.0,0.0,0.0,0.0,0.0,0.0,0.0,0.0,0.0,0.0,0.0,0.0,0.0,0.0,0.0,0.0,0.0,0.0,0.0,0.0,0.0,0.0,0.0,0.0,0.0,0.0,0.0,0.0,0.0,0.0,0.0,0.0,0.0,0.0,0.0,0.0,0.0,0.0,0.0,0.0,0.0,0.0,0.0,0.0,0.0,0.0,0.0,0.0,0.0,0.0,0.0,0.0,0.0,0.0,0.0,0.0,0.0,0.0,0.0,0.0,0.0,0.0,0.0,0.0,0.0,0.0,0.0,0.0,0.0,0.0,0.0,0.0,0.0,0.0,0.0,2.1053,2.3951,2.5954,2.6211,2.7641,2.796,2.6504,2.5583,2.3527,1.9834,0.0,0.0,0.0,0.0,0.0,0.0,0.0,0.0,0.0,0.0,0.0,0.0,0.0,0.0,0.0,0.0,0.0,0.0,0.0,0.0,0.0,0.0,0.0,0.0,0.0,0.0,0.0,0.0,0.0,0.0,0.0,0.0,0.0,0.0,0.0,0.0,0.0,0.0,0.0,0.0,0.0,0.0,0.0,0.0,0.0,0.0,0.0,0.0,0.0,0.0,0.0,0.0,0.0,0.0,0.0,0.0,0.0,0.0,0.0,0.0,0.0,0.0,0.0,0.0,0.0,0.0,0.0,0.0,0.0,0.0,0.0,0.0,0.0,0.0,0.0,0.0,0.0,0.0,0.0,0.0,0.0,0.0,0.0,0.0,0.0,0.0,0.0,0.0,0.0,0.0,0.0,0.0,0.0,0.0,0.0,0.0,0.0,0.0,0.0,0.0,0.0,0.0,2.1789,2.4215,2.6029,2.6907,2.7895,2.7936,2.6522,2.5047,2.2901,0.0,0.0,0.0,0.0,0.0,0.0,0.0,0.0,0.0,0.0,0.0,0.0,0.0,0.0,0.0,0.0,0.0,0.0,0.0,0.0,0.0,0.0,0.0,0.0,0.0,0.0,0.0,0.0,0.0,0.0,0.0,0.0,0.0,0.0,0.0,0.0,0.0,0.0,0.0,0.0,0.0,0.0,0.0,0.0,0.0,0.0,0.0,0.0,0.0,0.0,0.0,0.0,0.0,0.0,0.0,0.0,0.0,0.0,0.0,0.0,0.0,0.0,0.0,0.0,0.0,0.0,0.0,0.0,0.0,0.0,0.0,0.0,0.0,0.0,0.0,0.0,0.0,0.0,0.0,0.0,0.0,0.0,0.0,0.0,0.0,0.0,0.0,0.0,0.0,0.0,0.0,0.0,0.0,0.0,0.0,0.0,0.0,0.0,0.0,0.0,0.0,0.0,0.0,2.1736,2.4173,2.602,2.6765,2.779,2.7853,2.6367,2.5415,2.3602,2.0566,0.0,0.0,0.0,0.0,0.0,0.0,0.0,0.0,0.0,0.0,0.0,0.0,0.0,0.0,0.0,0.0,0.0,0.0,0.0,0.0,0.0,0.0,0.0,0.0,0.0,0.0,0.0,0.0,0.0,0.0,0.0,0.0,0.0,0.0,0.0,0.0,0.0,0.0,0.0,0.0,0.0,0.0,0.0,0.0,0.0,0.0,0.0,0.0,0.0,0.0,0.0,0.0,0.0,0.0,0.0,0.0,0.0,0.0,0.0,0.0,0.0,0.0,0.0,0.0,0.0,0.0,0.0,0.0,0.0,0.0,0.0,0.0,0.0,0.0,0.0,0.0,0.0,0.0,0.0,0.0,0.0,0.0,0.0,0.0,0.0,0.0,0.0,0.0,0.0,0.0,0.0,0.0,0.0,0.0,0.0,0.0,0.0,0.0,0.0,0.0,0.0,0.0,2.2141,2.4325,2.6047,2.7154,2.7933,2.7885,2.6754,2.5772,2.4058,2.1348,0.0,0.0,0.0,0.0,0.0,0.0,0.0,0.0,0.0,0.0,0.0,0.0,0.0,0.0,0.0,0.0,0.0,0.0,0.0,0.0,0.0,0.0,0.0,0.0,0.0,0.0,0.0,0.0,0.0,0.0,0.0,0.0,0.0,0.0,0.0,0.0,0.0,0.0,0.0,0.0,0.0,0.0,0.0,0.0,0.0,0.0,0.0,0.0,0.0,0.0,0.0,0.0,0.0,0.0,0.0,0.0,0.0,0.0,0.0,0.0,0.0,0.0,0.0,0.0,0.0,0.0,0.0,0.0,0.0,0.0,0.0,0.0,0.0,0.0,0.0,0.0,0.0,0.0,0.0,0.0,0.0,0.0,0.0,0.0,0.0,0.0,0.0,0.0,0.0,0.0,0.0,0.0,0.0,0.0,0.0,0.0,0.0,0.0,0.0,0.0,0.0,0.0,2.2788,2.4531,2.6108,2.7809,2.8164,2.803,2.7423,2.6099,2.4388,2.2271,0.0,0.0,0.0,0.0,0.0,0.0,0.0,0.0,0.0,0.0,0.0,0.0,0.0,0.0,0.0,0.0,0.0,0.0,0.0,0.0,0.0,0.0,0.0,0.0,0.0,0.0,0.0,0.0,0.0,0.0,0.0,0.0,0.0,0.0,0.0,0.0,0.0,0.0,0.0,0.0,0.0,0.0,0.0,0.0,0.0,0.0,0.0,0.0,0.0,0.0,0.0,0.0,0.0,0.0,0.0,0.0,0.0,0.0,0.0,0.0,1.4203,1.322,0.0,0.0,0.0,0.0,0.0,0.0,0.0,0.0,0.0,0.0,0.0,0.0,0.0,0.0,0.0,0.0,0.0,0.0,0.0,0.0,0.0,0.0,0.0,0.0,0.0,0.0,0.0,0.0,0.0,0.0,0.0,0.0,0.0,0.0,0.0,0.0,0.0,0.0,0.0,0.0,2.2709,2.4419,2.5971,2.7601,2.7979,2.7915,2.7273,2.653,2.5403,2.3879,2.1594,0.0,0.0,0.0,0.0,0.0,0.0,0.0,0.0,0.0,0.0,0.0,0.0,0.0,0.0,0.0,0.0,0.0,0.0,0.0,0.0,0.0,0.0,0.0,0.0,0.0,0.0,0.0,0.0,0.0,0.0,0.0,0.0,0.0,0.0,0.0,0.0,0.0,0.0,0.0,0.0,0.0,0.0,0.0,0.0,0.0,0.0,0.0,0.0,0.0,0.0,0.0,0.0,0.0,0.0,0.0,0.0,0.0,0.0,0.0,1.6591,1.5482,0.0,0.0,0.0,0.0,0.0,0.0,0.0,0.0,0.0,0.0,0.0,0.0,0.0,0.0,0.0,0.0,0.0,0.0,0.0,0.0,0.0,0.0,0.0,0.0,0.0,0.0,0.0,0.0,0.0,0.0,0.0,0.0,0.0,0.0,0.0,0.0,0.0,0.0,0.0,0.0,2.2571,2.4187,2.5669,2.7287,2.7701,2.7802,2.7647,2.7163,2.648,2.552,2.3312,0.0,0.0,0.0,0.0,0.0,0.0,0.0,0.0,0.0,0.0,0.0,0.0,0.0,0.0,0.0,0.0,0.0,0.0,0.0,0.0,0.0,0.0,0.0,0.0,0.0,0.0,0.0,0.0,0.0,0.0,0.0,0.0,0.0,0.0,0.0,0.0,0.0,0.0,0.0,0.0,0.0,0.0,0.0,0.0,0.0,0.0,0.0,0.0,0.0,0.0,0.0,0.0,0.0,2.0228,2.0719,2.0813,2.0813,2.0983,2.1129,1.9661,1.8534,1.7607,1.6416,0.0,0.0,0.0,0.0,0.0,0.0,0.0,0.0,0.0,0.0,0.0,0.0,0.0,0.0,0.0,0.0,0.0,0.0,0.0,0.0,0.0,0.0,2.2274,2.3786,2.4232,2.3658,2.1225,0.0,0.0,0.0,0.0,0.0,0.0,0.0,0.0,0.0,0.0,0.0,2.2521,2.4024,2.5449,2.6931,2.7369,2.7654,2.7992,2.7684,2.7296,2.6942,2.4978,2.3215,0.0,0.0,0.0,0.0,0.0,0.0,0.0,0.0,0.0,0.0,0.0,0.0,0.0,0.0,0.0,0.0,0.0,0.0,0.0,0.0,0.0,0.0,0.0,0.0,0.0,0.0,0.0,0.0,0.0,0.0,0.0,0.0,1.3852,1.486,0.0,0.0,0.0,0.0,0.0,0.0,0.0,0.0,0.0,0.0,0.0,0.0,0.0,1.838,1.9759,2.0607,2.1469,2.2329,2.3056,2.3639,2.4085,2.4085,2.4073,2.4131,2.3918,0.0,1.9621,1.8495,0.0,0.0,0.0,0.0,0.0,0.0,0.0,0.0,0.0,0.0,0.0,0.0,0.0,0.0,0.0,0.0,0.0,0.0,0.0,0.0,0.0,0.0,2.571,2.6856,2.7111,2.6993,2.6742,2.4249,2.1754,2.0488,2.0258,1.9661,0.0,0.0,0.0,0.0,0.0,0.0,2.2948,2.4402,2.5647,2.6673,2.7021,2.7338,2.7713,2.7441,2.7385,2.7733,2.6375,2.5231,2.4525,2.2898,0.0,0.0,0.0,0.0,0.0,0.0,0.0,0.0,0.0,0.0,0.0,0.0,0.0,0.0,0.0,0.0,0.0,0.0,0.0,0.0,0.0,0.0,0.0,0.0,0.0,0.0,0.0,0.0,0.0,1.4008,1.5254,1.6148,1.5709,1.5149,0.0,0.0,0.0,0.0,0.0,0.0,0.0,0.0,0.0,1.9396,2.029,2.1045,2.1766,2.2627,2.3228,2.3659,2.4221,2.4808,2.5298,2.5002,2.5089,2.5429,2.5142,2.4186,2.262,2.1221,1.969,1.8108,0.0,0.0,0.0,0.0,1.6824,1.7466,1.7701,1.8093,1.8503,1.8264,0.0,0.0,0.0,0.0,0.0,0.0,0.0,2.2852,2.4899,2.6323,2.7443,2.8285,2.8511,2.8533,2.8682,2.7224,2.5336,2.3364,2.3102,2.2499,2.035,1.9839,0.0,0.0,0.0,2.1685,2.3272,2.4314,2.5238,2.6142,2.6521,2.6906,2.7426,2.7682,2.8027,2.8525,2.7848,2.7131,2.6492,2.502,2.3253,0.0,0.0,0.0,0.0,0.0,0.0,0.0,0.0,0.0,0.0,0.0,0.0,0.0,0.0,0.0,0.0,0.0,0.0,0.0,0.0,0.0,0.0,0.0,0.0,0.0,0.0,0.0,0.0,1.562,1.671,1.7578,1.7284,1.6941,0.0,0.0,0.0,0.0,0.0,0.0,1.8844,2.0295,2.1208,2.1453,2.2522,2.3145,2.3352,2.4212,2.4703,2.4903,2.5396,2.5901,2.6382,2.5909,2.5931,2.6419,2.5844,2.5419,2.4966,2.3421,2.1725,2.004,1.9529,1.8786,1.7989,1.8522,1.899,1.9378,1.9808,2.0035,2.0226,2.0558,2.0653,2.0765,2.1346,0.0,0.0,0.0,0.0,2.5711,2.7251,2.8224,2.8885,2.9391,2.9401,2.9312,2.9428,2.909,2.8156,2.6007,2.5601,2.4953,2.2989,2.2366,0.0,2.1756,2.207,2.2698,2.3697,2.4587,2.5334,2.6073,2.6601,2.718,2.7797,2.8475,2.9011,2.9355,2.927,2.8821,2.7975,2.6927,2.5492,2.3596,0.0,0.0,0.0,0.0,0.0,0.0,0.0,0.0,0.0,0.0,0.0,0.0,0.0,0.0,0.0,0.0,0.0,0.0,0.0,0.0,0.0,0.0,0.0,0.0,0.0,0.0,0.0,0.0,0.0,1.9607,1.9459,0.0,0.0,0.0,0.0,1.9759,2.0094,2.0875,2.2269,2.2566,2.3117,2.4055,2.3906,2.4161,2.4848,2.5236,2.5724,2.6427,2.6942,2.7458,2.7852,2.7622,2.7535,2.7447,2.6801,2.6234,2.5611,2.445,2.329,2.2286,2.1784,2.1259,2.0791,2.0814,2.1209,2.1578,2.1459,2.1599,2.1993,2.2556,2.3347,2.4165,2.4821,2.5258,0.0,0.0,2.8059,2.9088,3.0204,3.0534,3.0596,3.0629,3.0068,2.9569,2.9585,2.9756,2.9469,2.8041,2.7299,2.6436,2.4999,0.0,2.3403,2.3139,2.3339,2.3748,2.4369,2.5621,2.65,2.6727,2.775,2.8639,2.9317,3.0013,3.0306,3.0162,3.062,3.026,2.8887,2.8959,2.7865,2.5418,2.3682,0.0,0.0,0.0,0.0,0.0,0.0,0.0,0.0,0.0,0.0,0.0,0.0,0.0,0.0,0.0,0.0,0.0,0.0,0.0,0.0,0.0,0.0,0.0,0.0,0.0,0.0,0.0,0.0,2.0449,2.0705,0.0,2.085,2.0631,2.0743,2.1015,2.1736,2.239,2.2897,2.3859,2.4508,2.4854,2.5074,2.5462,2.6022,2.5818,2.5991,2.6541,2.6725,2.706,2.7525,2.7112,2.7133,2.7403,2.684,2.6451,2.6292,2.5554,2.4445,2.3209,2.297,2.2606,2.2187,2.2187,2.2557,2.2966,2.2893,2.299,2.3178,2.395,2.5244,2.6576,2.7018,2.7861,2.8779,2.9235,2.9822,3.0431,3.1023,3.0783,3.0433,3.0402,2.9751,2.9182,2.9243,2.9515,2.9643,2.9435,2.9101,2.8454,2.7161,2.6618,2.6284,2.6,2.5851,2.5966,2.6412,2.6905,2.7292,2.7492,2.8174,2.887,2.9523,2.9745,2.9987,3.0305,3.034,3.0186,2.9826,2.9454,2.8606,2.7198,2.5531,2.3276,0.0,0.0,0.0,0.0,0.0,0.0,0.0,0.0,0.0,0.0,0.0,0.0,0.0,0.0,0.0,0.0,0.0,0.0,0.0,0.0,0.0,0.0,0.0,0.0,0.0,1.9157,2.0561,2.1733,2.2295,2.2645,2.2804,2.2815,2.2878,2.3037,2.37,2.4126,2.4285,2.5179,2.5679,2.5679,2.5889,2.6207,2.6615,2.6207,2.6292,2.686,2.686,2.7013,2.7366,2.7049,2.6988,2.7148,2.6697,2.6498,2.6456,2.6072,2.5221,2.4089,2.3939,2.3608,2.3199,2.3199,2.3305,2.3474,2.3406,2.3934,2.474,2.5318,2.7037,2.8975,2.9387,3.0411,3.139,3.1381,3.1626,3.1909,3.1931,3.1331,3.0747,3.0429,2.9735,2.9124,2.8998,2.9167,2.947,2.9957,2.993,2.9602,2.8915,2.8524,2.8249,2.8053,2.7724,2.758,2.7858,2.8054,2.8282,2.8507,2.9176,2.9892,3.0522,3.0469,3.0542,3.0847,3.0582,3.0361,3.0305,2.991,2.9347,2.8546,2.6348,2.407,2.1792,0.0,0.0,0.0,0.0,0.0,0.0,0.0,0.0,0.0,0.0,0.0,0.0,0.0,0.0,0.0,0.0,0.0,0.0,0.0,0.0,0.0,0.0,0.0,1.9302,2.0621,2.2081,2.3541,2.4214,2.4691,2.5126,2.5083,2.5359,2.5815,2.5934,2.6038,2.6504,2.6547,2.6547,2.6547,2.6357,2.6357,2.6568,2.6357,2.6588,2.7257,2.7257,2.7397,2.7547,2.7357,2.7156,2.6829,2.6421,2.6237,2.6207,2.6001,2.5647,2.5161,2.4682,2.4204,2.379,2.379,2.3608,2.3356,2.2961,2.4452,2.652,2.6662,2.8747,3.1324,3.2004,3.2801,3.3502,3.3282,3.3429,3.3572,3.3014,3.2367,3.1597,3.0789,3.0107,2.9474,2.8918,2.8873,2.909,2.9661,2.9749,2.9805,3.0087,2.961,2.9153,2.9117,2.8807,0.0,2.8505,2.9019,2.9506,2.9822,3.0798,3.1716,3.2451,3.2306,3.2082,3.1837,3.1409,3.0905,3.0323,3.0432,3.0159,2.9428,2.6162,2.3642,2.1969,0.0,0.0,0.0,0.0,0.0,0.0,0.0,0.0,0.0,0.0,0.0,0.0,0.0,0.0,0.0,0.0,0.0,0.0,0.0,0.0,0.0,1.9444,2.0841,2.1052,2.232,2.3576,2.4625,2.5232,2.5555,2.567,2.568,2.5654,2.5609,2.5619,2.5581,2.5523,2.5839,2.6013,2.6013,2.592,2.6072,2.6502,2.6083,2.6144,2.6696,2.6696,2.6758,2.6784,2.6784,2.6688,2.6582,2.6461,2.6411,2.638,2.602,2.5574,2.5218,2.5088,2.4742,2.4251,2.4167,2.3914,2.3639,2.3127,2.4662,2.6726,2.6698,2.9039,3.1884,3.2148,3.3108,3.4025,3.3404,3.3429,3.3572,3.3014,3.226,3.1632,3.1393,3.0448,2.9599,2.9526,2.9265,2.9167,2.9621,2.995,3.0301,3.0891,3.0891,3.0905,3.1055,3.0817,3.0611,3.0573,3.0705,3.0917,3.1162,3.1775,3.24,3.288,3.2237,3.1825,3.2006,3.1054,3.0439,3.0383,3.0492,3.0238,2.9483,2.7363,2.6041,0.0,0.0,0.0,0.0,0.0,0.0,0.0,0.0,0.0,0.0,0.0,0.0,0.0,0.0,0.0,0.0,0.0,0.0,0.0,0.0,0.0,0.0,2.0918,2.2312,2.3104,2.3885,2.4778,2.5689,2.5929,2.6074,2.6259,2.6187,2.6094,2.5918,2.5918,2.5815,2.5722,2.5973,2.6104,2.6104,2.6104,2.6235,2.6496,2.6235,2.6245,2.6496,2.6496,2.64,2.6294,2.6294,2.6304,2.6207,2.6304,2.6294,2.6284,2.6119,2.5742,2.5138,0.0,0.0,0.0,0.0,2.3764,2.3493,2.3144,2.4738,2.7031,2.7171,2.9652,3.2665,3.2987,3.3665,3.417,3.3666,3.3472,3.3388,3.2834,3.2284,3.1859,3.1581,3.0902,3.0304,3.0242,3.0,2.9864,2.9998,3.0352,0.0,3.1112,3.1445,3.1726,3.2002,3.1913,3.1823,3.1878,3.1842,3.1897,3.2179,3.2565,3.3009,3.3449,3.2773,0.0,0.0,0.0,3.0686,3.0492,3.0582,0.0,0.0,0.0,2.8603,2.8628,2.8133,0.0,0.0,2.5156,2.5468,0.0,0.0,0.0,0.0,0.0,0.0,0.0,0.0,0.0,0.0,0.0,0.0,0.0,0.0,0.0,0.0,2.2225,2.36,2.5037,2.53,2.5733,2.6537,2.6453,2.6439,2.6835,2.6633,2.6496,2.6496,2.6496,2.64,2.64,2.64,0.0,0.0,0.0,2.64,2.64,2.64,2.64,2.64,2.64,2.6304,2.6004,2.6004,2.581,2.5635,2.5907,2.6004,2.5994,2.6244,2.5809,2.4967,2.4615,2.4193,2.3754,2.359,2.3319,2.3057,2.2803,0.0,0.0,2.7748,3.0333,3.3493,3.4196,3.4281,3.4181,3.394,3.3528,3.3047,3.2527,3.2342,3.2244,3.1643,3.1443,3.1334,3.099,3.0853,3.077,3.0577,3.0808,3.1078,3.1173,3.1598,3.205,3.2406,3.2597,3.2719,3.292,3.2781,3.2791,3.3091,3.3291,0.0,3.4005,3.3668,3.3545,3.3815,3.2549,3.1523,3.0933,3.097,3.1037,3.109,3.1094,3.1126,3.1175,3.1274,3.1381,3.1426,2.9687,2.9293,0.0,0.0,0.0,0.0,0.0,0.0,0.0,0.0,0.0,0.0,0.0,0.0,0.0,0.0,0.0,2.2056,2.3485,2.4762,2.5809,2.637,2.6794,2.6966,2.6986,2.6929,2.7009,2.6707,2.64,2.6197,2.6197,2.61,2.583,2.583,2.583,2.583,2.583,2.583,2.583,2.583,2.583,2.583,2.583,0.0,2.543,2.543,2.5333,2.503,2.5333,2.543,2.5499,2.5437,2.4874,2.4057,2.3967,2.3747,2.358,2.3503,2.3242,2.2794,2.253,2.4702,2.7561,2.7566,3.0295,3.366,3.421,3.4281,0.0,3.3833,3.3425,3.2889,3.2262,3.2135,3.2216,3.2078,3.1797,3.1526,3.1455,3.1109,3.0842,3.0901,3.1181,3.1547,3.2027,3.2432,3.2906,3.3509,3.428,3.4891,3.5151,3.4697,3.44,3.4574,3.4244,3.4136,3.4375,3.3939,3.3745,3.3945,3.3284,3.2859,3.2788,3.2836,3.2888,3.2893,3.2904,3.2901,3.2912,3.3615,3.4329,3.4961,3.3223,3.2496,0.0,0.0,0.0,0.0,0.0,0.0,0.0,0.0,0.0,0.0,0.0,1.8984,1.9755,0.0,2.213,2.3055,2.4273,2.5303,2.6153,2.6902,2.7431,2.7402,2.7372,2.7192,2.6973,2.6665,2.6261,2.5936,2.5917,2.582,2.5732,2.5742,2.5742,2.5742,2.5742,2.5742,2.5742,2.5742,2.5742,2.5742,2.5538,2.544,2.5333,2.5137,2.5039,2.4932,2.5039,2.5137,2.508,2.4726,2.4273,2.375,2.3574,2.3406,2.3319,2.3319,2.3057,2.2803,2.253,2.4066,2.6295,2.7214,2.96,3.2415,3.3844,3.4149,3.4006,3.3664,3.3246,3.27,3.2163,3.2053,3.2094,3.2094,3.1946,3.1811,3.1921,3.1713,3.1427,3.1259,3.1393,3.1639,3.1774,3.2608,3.3488,3.4199,3.4954,3.5555,3.5903,3.5776,3.5542,3.5262,3.5131,3.4952,3.467,3.4601,3.4446,3.4212,3.3973,3.3685,3.3317,3.3365,3.3609,3.4047,3.4056,3.4261,3.4705,3.5586,3.6223,3.6641,3.6657,3.6417,0.0,0.0,0.0,0.0,0.0,0.0,0.0,1.671,1.7993,1.8563,1.9596,2.0602,2.1353,2.2155,2.3047,2.3973,2.4842,2.5641,2.6361,2.7055,2.7432,2.7568,2.7426,2.7147,2.6724,2.6504,2.6129,2.58,2.5839,2.5849,2.5771,2.5762,2.5723,2.5538,2.5538,2.5538,2.5538,2.5538,2.5538,2.5538,2.5342,2.5235,2.5137,2.4932,2.4833,2.4745,2.4833,2.4739,2.4638,2.4135,2.3895,2.366,2.331,2.3222,2.3369,2.3203,2.2969,2.2803,2.253,2.3464,2.4987,2.6465,2.8359,3.0486,3.2804,3.3421,3.3303,3.3547,3.32,3.2735,3.234,3.2155,3.2122,3.2122,3.2031,3.1981,3.2079,3.2079,3.1926,3.1448,3.1513,3.1548,3.1299,3.2433,3.3706,3.462,3.5368,3.602,3.651,3.6703,3.6597,3.6112,3.5995,3.5679,3.4983,3.5219,3.52,3.4687,3.4729,3.4474,3.3821,3.3873,3.4246,3.494,3.4947,3.5382,3.6255,3.7136,3.7632,3.7832,3.9406,3.9674,1.268,1.3277,1.4177,1.4926,1.5878,1.6917,0.0,1.8944,1.9887,2.082,2.1752,2.2475,2.273,2.354,2.4259,2.4714,2.5178,2.5755,2.6674,2.6532,2.6475,2.6912,2.7151,2.6977,2.6349,2.6218,2.6056,2.5939,2.6348,2.6295,2.6029,2.6,2.5628,2.5049,2.5039,2.5039,2.5039,2.5039,2.5039,2.5039,2.4932,2.4833,2.4637,2.4529,2.444,2.4251,2.444,2.4312,2.3805,2.3803,2.361,2.3419,2.3371,2.3754,2.418,2.3418,2.2969,2.2803,2.253,2.3532,2.4951,2.4956,2.6196,2.8238,3.0759,3.1097,3.1098,3.3318,3.3576,3.3151,3.3092,3.2811,3.2613,3.2613,3.2161,3.1739,3.1739,3.1667,3.1537,3.1362,3.126,3.13,3.1535,3.2222,3.3239,3.4734,3.6244,3.7433,3.8154,3.7997,3.7884,3.8061,3.6927,3.5949,3.5377,3.5424,3.55,3.5542,3.5627,3.5631,3.5612,3.5666,3.5763,3.5849,3.5851,3.6279,3.7168,3.8027,3.8847,3.9629,4.0547,4.0523,1.4256,1.5062,1.5931,1.6474,1.7692,1.891,1.9498,2.0492,2.142,2.1848,2.2566,2.3222,2.3316,2.3799,2.4426,2.4917,2.5348,2.5844,2.6399,2.6503,2.6427,2.6257,2.6352,2.6286,2.586,2.604,2.6002,2.5686,2.6047,2.6218,2.6047,2.579,2.5572,2.5291,2.5055,2.4932,2.4932,2.4932,2.4932,2.4932,2.4735,2.4637,2.4529,2.4341,2.4251,2.4152,2.4251,2.4115,2.3861,2.3861,2.3711,2.3528,2.3528,2.3817,2.4181,2.3923,2.3641,2.3338,2.307,2.3278,2.3861,2.4612,2.5456,2.6514,2.842,2.8958,2.9312,3.1255,3.1674,3.1797,3.2821,3.2968,3.2837,3.27,3.2492,3.2224,3.1965,3.1114,3.0268,3.0026,2.9186,2.8551,2.8668,2.912,3.0132,3.2101,3.4782,3.6917,3.7787,3.8248,3.8331,3.7955,3.6996,3.6119,3.5515,3.5526,3.5626,3.5747,3.5823,3.5879,3.5897,3.597,3.5996,3.6007,3.5991,3.6425,3.7302,3.8162,3.9042,3.9922,4.0723,4.0937,1.5541,1.6455,1.7265,1.7846,1.917,2.0494,2.0718,2.169,2.2601,2.2711,2.3204,2.3712,2.3712,2.395,2.438,2.4877,2.5312,2.5657,2.5956,2.6144,2.6059,2.5553,2.5423,2.533,2.5224,2.5769,2.5966,2.5654,2.6013,2.6266,2.6163,2.5862,2.5581,2.5365,2.5064,2.4857,2.4735,2.4735,2.4735,2.4735,2.4538,2.444,2.444,2.4251,2.4152,2.4152,2.4152,2.4021,2.374,2.374,2.3765,2.3796,2.3796,2.3937,2.4296,2.4494,2.4263,2.3789,2.3509,2.315,2.2918,2.3869,2.427,2.4611,2.6231,2.6819,2.7319,2.9035,2.9578,2.9945,3.1288,3.1525,3.1433,3.1308,3.1116,3.0883,3.0655,2.9629,2.8727,2.8555,2.7492,2.6672,2.6776,2.6968,2.7682,2.939,3.2009,3.4579,3.6827,3.8196,3.8714,3.8061,3.7338,3.6647,3.5979,3.5755,3.5689,3.5821,3.5878,3.5903,3.5929,3.5971,3.5992,3.5996,3.5995,3.6558,3.7665,3.829,3.9154,4.0252,4.0839,4.1133,1.6096,1.7009,1.8031,1.9146,2.021,2.1201,2.1852,2.2529,2.3223,2.361,2.4016,2.4134,2.4134,2.4143,2.429,2.4711,2.4794,2.4931,2.5317,2.5051,2.4812,2.4803,2.4436,2.4288,2.427,2.5347,2.5986,2.5796,2.6505,2.6784,2.6393,2.6365,2.5888,2.4803,2.4766,2.4665,2.426,2.4251,2.4251,2.4251,2.4251,2.4251,2.4251,2.4152,2.4152,2.4152,2.4152,2.3923,2.3538,2.3538,2.3634,2.3914,2.3914,2.4253,2.4894,2.4894,2.4402,2.3789,2.3509,2.315,2.2687,2.228,2.2067,2.2217,2.4353,2.4687,2.4774,2.7117,2.7727,2.7764,2.8058,2.7802,2.7527,2.7704,2.7165,2.6645,2.6816,2.6931,2.7058,2.7297,2.6997,2.6822,2.721,2.7018,2.6974,2.7423,2.7911,3.0154,3.5455,3.8045,3.926,3.8992,3.8358,3.7687,3.7007,3.6234,3.5811,3.5884,3.5905,3.5934,3.5991,3.6005,3.5995,3.5994,3.6003,3.6833,3.8553,3.859,3.9449,4.1052,4.1084,4.1091,1.6953,1.8121,1.9221,1.9841,2.0954,2.197,2.2232,2.2779,2.3314,2.3198,2.3171,2.3179,2.291,2.2856,2.308,2.3745,2.3862,2.3996,2.441,2.4347,2.4167,2.3889,2.3736,2.3754,2.4023,2.4963,2.5623,2.5589,2.6231,2.6626,2.6498,2.6328,2.5945,2.5573,2.506,2.4711,2.4574,2.419,2.3954,2.3954,2.3746,2.3655,2.3655,2.3655,2.3655,2.3655,2.3655,2.3574,2.3449,2.3449,2.3449,2.3547,2.3744,2.4024,2.443,2.4538,2.439,2.4049,2.3753,2.329,2.2801,2.2269,2.2008,2.207,2.2474,2.2342,2.255,2.4927,2.547,2.5748,2.7592,2.8046,2.8023,2.8,2.7884,2.778,2.7778,2.688,2.6134,2.6303,2.548,2.4838,2.4995,2.4886,2.5173,2.6371,2.9098,3.1936,3.4395,3.7253,3.9081,3.9071,3.9025,3.8712,3.8001,3.7727,3.7355,3.6797,3.6794,3.6571,3.6012,3.5996,3.6241,3.6781,3.6797,3.7656,3.94,3.94,3.9989,4.1108,4.1094,4.1099,1.7843,1.8912,1.9915,2.0737,2.1552,2.229,2.229,2.267,2.2902,2.2381,2.2363,2.2238,2.1831,2.1875,2.2236,2.2743,2.2965,2.324,2.3497,2.3657,2.3639,2.3482,2.3447,2.3506,2.3897,2.4598,2.5218,2.5468,2.6206,2.6591,2.6591,2.6334,2.6114,2.5968,2.5326,2.4931,2.4785,2.4163,2.3746,2.3646,2.3447,2.3447,2.3447,2.3447,2.3447,2.3447,2.3447,2.3447,2.3447,2.3447,2.3447,2.3447,2.3555,2.3746,2.3836,2.4044,2.4076,2.41,2.3956,2.353,2.2909,2.2485,2.2218,2.2008,2.1571,2.1195,2.1272,2.2706,2.3083,2.3341,2.5098,2.5779,2.6031,2.6097,2.6314,2.6496,2.6568,2.5844,2.5245,2.5472,2.4814,2.4392,2.4519,2.4514,2.4647,2.5463,2.8846,3.2024,3.4003,3.632,3.826,3.947,3.9544,3.9325,3.8893,3.861,3.8242,3.7695,3.7695,3.7477,3.6921,3.6889,3.7145,3.7654,3.7659,3.837,3.9806,3.9802,4.0258,4.1108,4.1108,4.1108,1.8598,1.9351,2.0264,2.1599,2.1978,2.1987,2.1944,2.2114,2.2083,2.1316,2.1428,2.1378,2.106,2.1228,2.152,2.1556,2.2221,2.2735,2.277,2.3107,2.3347,2.3347,2.3364,2.3533,2.3829,2.4313,2.4809,2.5442,2.6145,2.6582,2.6582,2.6582,2.6408,2.6004,2.5582,2.5188,2.4812,2.4172,2.3646,2.3347,2.3373,2.3373,2.3347,2.3373,2.3373,2.3347,2.3347,2.3347,2.3347,2.3347,2.3347,2.3347,2.3356,2.3347,2.3347,2.3347,2.3546,2.3791,2.4197,2.3721,2.3013,2.2793,2.2441,2.2036,2.158,2.1195,2.0907,2.0744,2.0744,2.0744,2.0997,2.1365,2.182,2.2353,2.2618,2.2969,2.3416,2.3917,2.4337,2.4861,2.5182,2.544,2.5833,2.5813,2.5509,2.4796,2.7099,3.0248,3.3976,3.525,3.6991,4.0075,3.9883,3.9584,3.9722,3.899,3.8514,3.8557,3.8541,3.8526,3.8488,3.8488,3.8525,3.8551,3.8551,3.8989,3.9864,3.986,4.0297,4.1108,4.1108,4.1108,1.8987,2.011,2.1181,2.1269,2.1586,2.185,2.1293,2.1036,2.0606,1.9849,1.9549,1.9229,1.8849,1.9091,1.9531,2.0119,2.0853,2.1553,2.2114,2.2512,2.2846,2.2846,2.3004,2.3324,2.3695,2.4297,2.4788,2.5274,2.5626,2.5907,2.5907,2.5907,2.5863,2.5755,2.5297,2.4995,2.4896,2.3996,2.3247,2.2854,2.3039,2.303,2.2854,2.3047,2.3021,2.2745,2.2535,2.2434,2.2434,2.2434,2.2434,2.2434,2.2946,2.3147,2.3147,2.3347,2.3447,2.3538,2.3835,2.3657,2.3229,2.2612,2.2263,2.1953,2.1482,2.1114,2.0826,2.0916,2.0826,2.0744,2.1203,2.1472,2.183,2.253,2.2882,2.3232,2.41,2.4368,2.47,2.5464,2.6191,2.6725,2.6769,2.6988,2.6883,2.6079,2.685,2.8397,3.0866,3.3937,3.6695,3.8846,3.9609,4.0012,4.0204,4.0109,3.982,3.9282,3.9249,3.8976,3.838,3.84,3.8726,3.9381,3.9396,3.9825,4.07,4.074,4.0871,4.1097,4.1104,4.1108,1.9536,2.0514,2.1444,2.1332,2.151,2.1499,2.0591,1.9949,1.9281,1.8374,1.7877,1.7492,1.7124,1.7629,1.8288,1.8896,1.9915,2.0883,2.1636,2.2064,2.2432,2.2758,2.2989,2.3323,2.3862,2.4218,2.462,2.4991,2.5467,2.5688,2.5688,2.5688,2.5688,2.5688,2.5023,2.4548,2.4106,2.3467,2.3134,2.28,2.3014,2.2988,2.2851,2.3063,2.2849,2.2494,2.2281,2.2078,2.1928,2.1928,2.1928,2.1928,2.2434,2.2644,2.2662,2.3138,2.33,2.3503,2.3613,2.3663,2.3547,2.284,2.2469,2.2075,2.1496,2.1098,2.0872,2.0598,2.0555,2.0564,2.0843,2.1195,2.1731,2.2441,2.3057,2.358,2.4368,2.4796,2.538,2.629,2.7021,2.7498,2.7731,2.8144,2.8228,2.7607,2.8056,2.8879,3.0018,3.2509,3.5168,3.775,3.8821,3.949,3.9852,4.0055,4.0027,3.9744,3.9773,3.9637,3.9286,3.9333,3.9626,4.017,4.0205,4.0478,4.1,4.1045,4.1072,4.1094,4.1101,4.1104,2.0071,2.0753,2.1164,2.1435,2.1261,2.0798,1.9769,1.8845,1.7912,1.6841,1.6276,1.5891,1.5625,1.6447,1.7329,1.7809,1.9153,2.042,2.1225,2.1722,2.2252,2.2954,2.3134,2.3443,2.4093,2.4256,2.4453,2.4795,2.5247,2.5578,2.5578,2.5578,2.5525,2.5528,2.4863,2.4033,2.3055,2.3046,2.3036,2.3117,2.3065,2.3156,2.316,2.3201,2.292,2.2361,2.2369,2.2075,2.1771,2.1714,2.1697,2.1799,2.2003,2.2097,2.2249,2.2842,2.3298,2.3505,2.3608,2.3703,2.3879,2.3233,2.2829,2.2375,2.1453,2.1136,2.0965,2.022,2.011,2.0292,2.0382,2.0916,2.1544,2.2264,2.3144,2.3927,2.454,2.538,2.6302,2.7103,2.7649,2.8063,2.8498,2.9118,2.9399,2.9089,2.9818,3.0405,3.0397,3.1388,3.3304,3.6521,3.7595,3.8331,3.8901,3.9242,3.9545,3.9813,3.9986,4.017,4.0361,4.0487,4.0604,4.0742,4.0828,4.0897,4.0964,4.0967,4.1025,4.1081,4.1105,4.1094,2.0293,2.0643,2.0809,2.0817,2.0297,1.9462,1.8505,1.7269,1.6054,1.524,1.4504,1.4084,1.4341,1.5052,1.5934,1.6953,1.8382,1.9744,2.0823,2.1567,2.2158,2.2595,2.3211,2.3657,2.3776,2.435,2.4744,2.4812,2.4932,2.4923,2.4923,2.4923,2.474,2.4412,2.4254,2.3825,2.3055,2.3046,2.3036,2.3117,2.3119,2.3199,2.316,2.3245,2.3071,2.2749,2.2429,2.229,2.2315,2.2006,2.1884,2.1884,2.2196,2.2395,2.2652,2.3031,2.3385,2.3702,2.3895,2.3983,2.3913,2.3017,2.262,2.225,2.1447,2.1052,2.089,2.0403,2.0292,2.0382,2.0564,2.1024,2.1651,2.253,2.3319,2.409,2.5115,2.6362,2.7348,2.7649,2.8303,2.8882,2.8973,2.9521,2.9872,2.9674,3.0111,3.0566,3.0904,3.1855,3.3039,3.4422,3.5734,3.6825,3.7582,3.8107,3.8598,3.8999,3.9282,3.9551,3.9745,4.0024,4.0262,4.038,4.0563,4.0699,4.0749,4.0867,4.0957,4.1025,4.1064,4.1106,2.0297,2.0592,2.0654,2.0207,1.9538,1.8657,1.751,1.6139,1.4858,1.423,1.3459,1.2988,1.3177,1.399,1.4941,1.5882,1.7304,1.8751,2.0095,2.0942,2.1696,2.2558,2.322,2.3759,2.3956,2.4487,2.4821,2.4821,2.4821,2.4821,2.4821,2.4624,2.4162,2.3609,2.3583,2.3315,2.2754,2.2745,2.3039,2.34,2.3279,2.336,2.3519,2.3464,2.3129,2.2678,2.2461,2.2357,2.2172,2.2004,2.1932,2.1932,2.2258,2.2575,2.2811,2.3293,2.3651,2.3973,2.4072,2.417,2.4015,2.3175,2.2972,2.2833,2.1873,2.1406,2.1071,2.0593,2.0346,2.0292,2.0473,2.1006,2.1811,2.2599,2.3734,2.4935,2.6052,2.7021,2.7822,2.8223,2.8961,2.9468,2.9599,3.0152,3.0519,3.0459,3.0863,3.1231,3.1296,3.1946,3.2706,3.3347,3.4497,3.5419,3.6011,3.6664,3.7327,3.7925,3.8273,3.8635,3.895,3.9325,3.9618,3.9827,4.0117,4.029,4.04,4.0559,4.0665,4.074,4.082,4.0857,2.0162,2.0424,2.0313,1.9771,1.884,1.7879,1.6723,1.5208,1.3924,1.3271,1.262,1.2149,1.2149,1.3091,1.4101,1.4855,1.6242,1.7732,1.917,2.0103,2.1054,2.2175,2.2972,2.3605,2.4076,2.447,2.4727,2.4812,2.471,2.4676,2.4591,2.4292,2.3781,2.2927,2.291,2.2723,2.2443,2.2443,2.2818,2.3445,2.3151,2.3328,2.3809,2.3472,2.3095,2.2601,2.2601,2.2442,2.218,2.21,2.2077,2.2177,2.2309,2.2616,2.2856,2.3561,2.4031,2.425,2.4359,2.4359,2.423,2.3477,2.3281,2.3279,2.2326,2.1782,2.1439,2.0789,2.0542,2.0486,2.0499,2.1177,2.205,2.3018,2.4488,2.5874,2.6715,2.7348,2.7977,2.8542,2.9282,2.9834,3.005,3.067,3.1061,3.1211,3.1656,3.192,3.1774,3.2125,3.2544,3.2826,3.3692,3.4425,3.4921,3.5593,3.6363,3.718,3.7569,3.7935,3.8252,3.8695,3.8952,3.9063,3.9402,3.9648,3.9793,4.0004,4.0145,4.0219,4.0299,4.0356,1.9733,1.9693,1.9462,1.9249,1.8191,1.6879,1.6071,1.4563,1.3024,1.1999,1.1565,1.1379,1.1379,1.2312,1.3331,1.4076,1.5454,1.685,1.8031,1.9153,2.0266,2.1379,2.2184,2.2937,2.3682,2.4076,2.4436,2.4795,2.4599,2.4335,2.3871,2.3821,2.336,2.2416,2.2391,2.2217,2.1827,2.1827,2.2192,2.2913,2.2617,2.2901,2.348,2.3247,2.2998,2.2966,2.2966,2.295,2.2895,2.2569,2.2434,2.2442,2.2442,2.2654,2.3023,2.3612,2.4094,2.4437,2.4659,2.477,2.4641,2.3862,2.3391,2.2972,2.2227,2.197,2.179,2.1251,2.111,2.1191,2.1302,2.183,2.2784,2.4337,2.5443,2.6279,2.6798,2.7334,2.7866,2.824,2.9001,2.9687,3.0017,3.0769,3.1421,3.1743,3.2036,3.2286,3.255,3.2763,3.2849,3.2649,3.3214,3.4007,3.4984,3.5711,3.6421,3.7225,3.7826,3.8044,3.7835,3.836,3.8436,3.7944,3.8345,3.8618,3.8738,3.8983,3.918,3.932,3.9458,3.9463,1.8788,1.8827,1.8589,1.821,1.7159,1.5923,1.486,1.3574,1.234,1.1467,1.1057,1.0844,1.0942,1.1499,1.2278,1.3262,1.443,1.5593,1.7004,1.8002,1.9121,2.0424,2.1417,2.2214,2.274,2.3432,2.4065,2.4223,2.4144,2.3867,2.3267,2.3253,2.2905,2.2303,2.2072,2.1874,2.1725,2.1725,2.1981,2.2501,2.2413,2.267,2.3148,2.3031,2.3014,2.3014,2.3014,2.3014,2.3006,2.2863,2.2807,2.2807,2.2807,2.3031,2.327,2.3528,2.3809,2.4144,2.4487,2.4446,2.4166,2.3862,2.3425,2.3023,2.2492,2.2275,2.223,2.2014,2.1869,2.1832,2.1962,2.2701,2.3734,2.485,2.579,2.655,2.6809,2.7452,2.8186,2.8655,2.9351,3.0048,3.0559,3.1127,3.1596,3.189,3.2169,3.2431,3.2704,3.2917,3.3045,3.3168,3.3361,3.3609,3.4013,3.4654,3.5387,3.6234,3.6651,3.6801,3.6673,3.705,3.7061,3.6601,3.6893,3.7131,3.7236,3.7489,3.7717,3.7875,3.7955,3.7978,1.7707,1.7834,1.7668,1.6976,1.6158,1.5239,1.3886,1.2881,1.1914,1.1005,1.0606,1.0446,1.0432,1.0853,1.1506,1.2524,1.342,1.4488,1.5853,1.6913,1.7971,1.9376,2.0584,2.1385,2.1979,2.3034,2.3736,2.3784,2.3697,2.3351,2.2878,2.2626,2.233,2.1981,2.1609,2.1423,2.1216,2.1216,2.1496,2.1973,2.2127,2.2373,2.282,2.2855,2.2901,2.2901,2.2788,2.2788,2.2901,2.2901,2.2909,2.3014,2.3014,2.3127,2.336,2.3472,2.3585,2.3792,2.4019,2.3921,2.372,2.347,2.3235,2.304,2.2663,2.2564,2.2528,2.2512,2.2479,2.2592,2.2784,2.3526,2.4413,2.502,2.5884,2.6644,2.6809,2.7406,2.8088,2.8638,2.9349,2.9998,3.0429,3.099,3.1349,3.1393,3.1847,3.2228,3.2384,3.2735,3.3143,3.3368,3.3468,3.3543,3.3769,3.4271,3.4864,3.5655,3.5848,3.5808,3.5573,3.5712,3.5585,3.5076,3.5287,3.5454,3.5506,3.5749,3.5977,3.6217,3.6299,3.6151,1.6555,1.6754,1.6579,1.5872,1.5443,1.4824,1.3418,1.2658,1.1785,1.0416,1.0213,1.0202,0.9864,1.0432,1.1162,1.1892,1.2647,1.3517,1.4552,1.5625,1.6839,1.8308,1.9447,2.0537,2.1736,2.2724,2.3414,2.3448,2.3247,2.2901,2.257,2.2012,2.1393,2.1028,2.0997,2.0728,2.0086,2.0078,2.0454,2.1004,2.147,2.1931,2.2498,2.2519,2.257,2.2578,2.223,2.2343,2.257,2.257,2.2796,2.3014,2.3014,2.3014,2.3014,2.336,2.3472,2.3536,2.339,2.3586,2.3678,2.2947,2.291,2.304,2.2663,2.2745,2.2959,2.277,2.2848,2.3138,2.3859,2.4328,2.4584,2.5105,2.5884,2.6644,2.6644,2.6955,2.7436,2.7811,2.8586,2.9196,2.9321,3.0117,3.0575,3.0196,3.0977,3.1582,3.1582,3.2415,3.2988,3.2988,3.3368,3.3868,3.4601,3.4971,3.54,3.5897,3.5768,3.5431,3.4873,3.4541,3.408,3.3332,3.3524,3.3643,3.3643,3.3843,3.4072,3.4312,3.4468,3.399,1.511,1.5225,1.5133,1.4418,1.3997,1.3441,1.2266,1.1511,1.0797,0.9915,0.9619,0.9534,0.9765,0.9979,1.0532,1.1809,1.2512,1.3249,1.4323,1.5316,1.6426,1.7701,1.9231,2.0712,2.2055,2.2148,2.237,2.2869,2.257,2.2335,2.2222,2.2017,2.1635,2.1064,2.081,2.0527,2.0086,2.0078,2.0243,2.035,2.0801,2.1148,2.1596,2.1834,2.2007,2.223,2.2116,2.2116,2.223,2.223,2.2343,2.2335,2.2335,2.257,2.2796,2.2796,2.2871,2.2862,2.2962,2.2822,2.2486,2.2674,2.2526,2.2486,2.2578,2.2946,2.3367,2.3657,2.3645,2.362,2.4227,2.4348,2.4444,2.5031,2.5779,2.6373,2.6727,2.7244,2.785,2.8379,2.8926,2.9366,2.965,2.998,3.019,2.9974,3.0458,3.0937,3.1346,3.1832,3.2318,3.272,3.3002,3.3423,3.4059,3.4317,3.4639,3.4993,3.4594,3.4128,3.3698,3.3167,3.2585,3.187,3.1952,3.1866,3.1754,3.1931,3.2151,3.2439,3.2408,3.19,1.3592,1.3854,1.3719,1.3139,1.2838,1.244,1.1511,1.0875,1.0314,0.9658,0.9375,0.9286,0.9603,0.9758,1.027,1.1619,1.2214,1.2891,1.4086,1.5088,1.6261,1.7938,1.9121,2.0277,2.1549,2.1456,2.1541,2.2216,2.2047,2.2002,2.2002,2.1774,2.1466,2.0798,2.068,2.0348,1.9783,1.9776,1.9887,1.999,2.0324,2.0598,2.0925,2.1281,2.1615,2.1707,2.1722,2.1774,0.0,2.2002,2.2002,2.2116,2.2116,2.2343,2.257,2.257,2.2576,2.2466,2.2549,2.2239,2.1957,2.2225,2.2324,2.2333,2.2745,2.3147,2.3592,2.4337,2.4259,2.404,2.4595,2.4611,2.4574,2.5073,2.5695,2.6279,2.6715,2.7394,2.8042,2.8486,2.9028,2.9337,2.9183,2.9481,2.9568,2.9072,2.9669,3.0292,3.0656,3.1384,3.1949,3.239,3.2561,3.2846,3.3269,3.3632,3.3991,3.4221,3.3543,3.3004,3.2674,3.1845,3.1158,3.0629,3.054,3.0406,3.0286,3.0451,3.063,3.0822,3.0778,3.0346,0.0,1.2432,1.2401,1.2035,1.1948,1.1773,1.1106,1.0685,0.0,0.9573,0.9414,0.9406,0.943,0.9724,1.0295,1.1328,1.1829,1.2506,1.385,1.5004,1.6503,1.8676,1.8977,1.9491,2.049,2.0895,2.1238,2.1582,2.1587,2.1668,2.1668,2.1303,2.0881,2.0143,2.0434,2.0116,1.9279,1.9279,1.948,1.968,1.9994,2.0257,2.0507,2.0948,2.1145,2.119,2.1185,2.1325,2.1668,2.1668,2.1774,2.2002,2.2002,2.223,2.257,2.2546,2.2536,2.2394,2.2045,2.1916,2.1779,2.1738,2.2139,2.2745,2.3247,2.3447,2.3646,2.4637,2.4638,2.4412,2.4993,2.4916,2.4835,2.5136,2.5695,2.6279,2.655,2.7301,2.7962,2.8179,2.8791,2.9096,2.8274,2.869,2.8742,2.7743,2.8736,2.9714,2.9807,3.0922,3.1776,3.1817,3.1936,3.2128,3.2345,3.3086,3.3507,3.3465,3.2625,3.1925,3.157,3.06,2.9898,2.954,2.9324,2.9233,2.9247,2.9435,2.9498,2.9498,2.9526,2.9303,1.03,0.0,1.1662,1.132,1.1241,1.1122,0.0,1.0311,0.9953,0.969,0.9487,0.9431,0.9612,1.0047,1.0597,1.1224,1.2077,1.2874,1.3516,1.5265,1.6992,1.8494,1.8888,1.9491,2.049,2.068,2.091,2.1256,2.1368,2.1325,2.1325,2.0849,2.0298,1.9902,1.9549,1.9355,1.9279,1.9279,1.9376,1.9376,1.9449,1.9731,1.9983,2.0281,2.0597,2.0854,2.1072,2.1211,2.1325,2.1325,2.1318,2.1439,2.1439,2.166,2.1866,2.1826,2.1837,2.1705,2.1581,2.1338,2.1234,2.1554,2.2139,2.2745,2.3247,2.3447,2.3646,2.4637,2.4638,2.4412,2.4993,2.4836,2.4659,2.5136,2.5454,2.5874,2.6633,2.7126,2.7603,2.8259,2.8578,2.8687,2.8486,2.8386,2.8299,2.8176,2.835,2.8838,2.9725,3.0223,3.0724,3.1158,3.1347,3.1482,3.1556,3.2286,3.251,3.2264,3.1581,3.0954,3.0429,2.9678,2.9162,2.8844,2.8522,2.8392,2.8392,2.856,2.8675,2.883,2.8844,2.8961,0.9494,1.0191,1.0871,1.0584,1.0537,1.0491,1.0304,0.9984,0.9686,0.9637,0.9539,0.9508,0.9807,1.0205,1.0771,1.1503,1.2367,1.337,1.4752,1.5951,1.7085,1.8271,1.8604,1.897,1.9753,2.0052,2.036,2.07,2.0808,2.0764,2.075,2.0351,1.9821,1.9361,1.9083,1.8844,1.8855,1.8848,1.8848,1.8848,1.8848,1.8941,1.9225,1.9794,2.0106,2.0294,2.0885,2.1211,2.1211,2.1211,2.1211,2.1211,2.1211,2.1343,2.1421,2.1458,2.1401,2.1254,2.118,2.1211,2.1121,2.1522,2.203,2.2535,2.3147,2.3447,2.3646,2.4637,2.4771,2.4698,2.5302,2.5138,2.4875,2.5377,2.5519,2.5706,2.6396,2.6869,2.7348,2.7846,2.8179,2.8342,2.82,2.8161,2.8176,2.8074,2.835,2.8818,2.9433,2.9964,3.0336,3.0722,3.0823,3.0781,3.0594,3.0997,3.1285,3.14,3.0706,3.0076,2.9668,2.908,2.8573,2.8249,2.8066,2.7934,2.7815,2.7987,2.8105,2.8249,2.8327,2.8584,0.9167,0.9717,1.0239,1.0127,1.0075,1.009,1.0143,0.9931,0.9726,0.9718,0.9726,0.9809,1.0098,1.047,1.1024,1.1912,1.2734,1.4041,1.6217,1.6658,1.7063,1.8007,1.8206,1.843,1.876,1.9381,1.9764,2.0034,2.014,2.0208,2.0186,1.9808,1.932,1.8905,1.8735,1.8582,1.8318,1.8318,1.8422,1.8422,1.8422,1.8422,1.8443,1.9384,1.9778,1.9814,2.0805,2.1211,2.1211,2.1211,2.1211,2.1203,2.1152,2.1082,2.116,2.1055,2.0977,2.0891,2.0942,2.1155,2.1326,2.1623,2.1928,2.2224,2.3147,2.3447,2.3646,2.4538,2.4833,2.5032,2.5555,2.5448,2.531,2.569,2.568,2.5708,2.6085,2.6633,2.7103,2.7185,2.7684,2.7956,2.7765,2.7936,2.8035,2.7903,2.8537,2.8987,2.9164,2.9758,3.0216,3.0216,3.0203,3.0035,2.9696,2.9576,2.9764,3.0481,2.9766,2.9214,2.8973,2.849,2.8105,2.7776,2.7776,2.7656,2.7523,2.7656,2.7723,2.7789,2.7934,2.8239,0.8943,0.9545,1.0324,1.0378,1.0432,1.05,1.0789,1.0819,1.0718,1.0647,1.071,1.0733,1.0714,1.1277,1.1905,1.2217,1.3578,1.4962,1.5874,1.65,1.7132,1.7735,1.8101,1.8331,1.8462,1.9067,1.9349,1.9062,1.9358,1.9534,1.9534,1.896,1.8672,1.8583,1.8102,1.7734,1.7687,1.8213,1.8422,1.8422,1.8422,1.8422,1.8443,1.9384,1.9778,1.9814,2.0805,2.1211,2.1211,2.1211,2.1211,2.1181,2.0903,2.0772,2.0766,2.0431,2.0468,2.0657,2.0892,2.1059,2.1326,2.1623,2.1928,2.2224,2.3147,2.3447,2.3546,2.4341,2.4735,2.4925,2.5071,2.5387,2.5613,2.5331,2.5598,2.5873,2.5899,2.6146,2.655,2.7103,2.7267,2.7499,2.7775,2.7424,2.7408,2.8216,2.802,2.8113,2.8963,2.9238,2.9287,2.9287,2.9187,2.9101,2.9013,2.8507,2.8241,2.8381,2.849,2.8422,2.8,2.7961,2.7842,2.7776,2.7656,2.7523,2.7523,2.7403,2.7469,2.7523,2.7469,2.7975,0.8805,0.9348,1.0043,1.0453,1.0543,1.058,1.0736,1.0907,1.1033,1.0967,1.1175,1.1353,1.1456,1.1877,1.2617,1.3513,1.4509,1.5489,1.6309,1.6592,1.6849,1.7319,1.7609,1.786,1.7909,1.849,1.8823,1.8877,1.8916,1.8891,1.8891,1.8442,1.8178,1.8009,1.7761,1.7582,1.7582,1.7793,1.8003,1.8003,1.8003,1.8003,1.8016,1.8791,1.9301,1.9594,2.0391,2.0929,2.1211,2.1211,2.1101,2.0933,2.0779,2.0508,2.0142,1.9978,2.0113,2.0396,2.0568,2.0822,2.1121,2.1522,2.1827,2.203,2.2946,2.3247,2.3546,2.3945,2.4538,2.4982,2.5257,2.551,2.5618,2.5858,2.5753,2.5598,2.598,2.6081,2.6146,2.655,2.6787,2.6953,2.7105,2.6901,2.68,2.7221,2.7399,2.7666,2.8305,2.8699,2.8851,2.8648,2.8632,2.8312,2.7791,2.7426,2.7296,2.7421,2.7533,2.754,2.7348,2.7403,2.7403,2.7403,2.7268,2.7214,2.7214,2.7146,2.7146,2.7214,2.7443,2.8022,0.8721,0.9239,0.9863,1.0448,1.0704,1.0836,1.0909,1.118,1.1436,1.1516,1.1663,1.184,1.2233,1.2564,1.3281,1.4663,1.522,1.5756,1.6559,1.6557,1.6636,1.6949,1.7274,1.7533,1.751,1.8004,1.8422,1.8545,1.8358,1.8258,1.8258,1.8043,1.7829,1.7589,1.7582,1.7582,1.7582,1.7582,1.7582,1.7582,1.7582,1.7582,1.7595,1.8224,1.8741,1.9367,1.9899,2.0557,2.1089,2.1089,2.09,2.0713,2.064,2.0216,1.9721,1.9673,1.9879,2.0189,2.0411,2.0719,2.1019,2.142,2.1623,2.1827,2.2636,2.3046,2.3347,2.3755,2.4242,2.4833,2.5411,2.5449,2.5555,2.6103,2.5776,2.5446,2.5847,2.5894,2.5906,2.6063,2.6313,2.6521,2.6542,2.6462,2.6516,2.6551,2.6983,2.7442,2.7705,2.8313,2.8518,2.8151,2.8056,2.7618,2.6611,2.6525,2.6565,2.6696,2.6807,2.6807,2.6863,2.6875,2.6943,2.7024,2.7024,2.7024,2.7024,2.6943,2.6943,2.6956,2.7423,2.7997,0.8643,0.9365,1.0148,1.0499,1.1041,1.1567,1.186,1.2182,1.2504,1.2804,1.2506,1.2362,1.2985,1.3436,1.3908,1.4594,1.5296,1.581,1.6071,1.6371,1.6665,1.6973,1.7302,1.7517,1.7503,1.7825,1.7918,1.7721,1.7721,1.7615,1.7615,1.7615,1.7602,1.7582,1.7582,1.7582,1.7582,1.7582,1.7582,1.7582,1.7582,1.7582,1.7595,1.8224,1.8632,1.8933,1.9563,2.0203,2.0716,2.0716,2.0771,2.0691,2.0391,1.9879,1.9413,1.9583,1.9879,2.0189,2.0411,2.0719,2.0925,2.1224,2.1522,2.1827,2.2325,2.2736,2.3147,2.3646,2.3945,2.4233,2.4833,2.5294,2.5643,2.5526,2.5655,2.5751,2.5326,2.5476,2.5654,2.5895,2.6063,2.6313,2.6517,2.6519,2.6577,2.7094,2.7137,2.7293,2.7844,2.8087,2.8056,2.7532,2.7336,2.6907,2.6058,2.5972,2.5947,2.598,2.6164,2.6289,2.6427,2.6645,2.6794,2.7024,2.7024,2.7024,2.7024,2.6794,2.6726,2.6726,2.7157,2.7654,0.8592,0.9233,0.9972,1.0711,1.1461,1.1984,1.2107,1.2539,1.2999,1.3162,1.3216,1.3325,1.3839,1.4104,1.4594,1.5217,1.5672,1.6057,1.6364,1.6425,1.6422,1.6829,1.6738,1.6834,1.7025,1.7317,1.749,1.7384,1.7483,1.7483,1.7384,1.7378,1.7378,1.7378,1.7378,1.7483,1.7582,1.7582,1.7582,1.7582,1.7582,1.7582,1.7589,1.7808,1.8347,1.8919,1.9147,1.9696,2.0479,2.0416,2.0377,2.0156,1.9735,1.9491,1.9272,1.9376,1.9576,1.9879,2.0197,2.0403,2.0719,2.1121,2.1522,2.1725,2.2123,2.2636,2.3046,2.3456,2.3746,2.4044,2.4529,2.503,2.547,2.5594,2.5495,2.5492,2.5609,2.5417,2.5295,2.5644,2.5728,2.5891,2.5913,2.5853,2.5926,2.6052,2.6291,2.6678,2.7137,2.7497,2.7658,2.7231,2.6721,2.6117,2.5596,2.5535,2.5535,2.5535,2.5816,2.6037,2.6094,2.6176,2.6245,2.6327,2.6327,2.6327,2.6327,2.6245,2.635,2.6698,2.7185,2.7791,0.8584,0.9169,0.9926,1.0792,1.1618,1.231,1.2445,1.2891,1.3337,1.3684,1.3961,1.4137,1.4248,1.4434,1.4799,1.5403,1.5742,1.5954,1.6257,1.6116,1.6177,1.6576,1.6301,1.6259,1.6633,1.695,1.706,1.706,1.716,1.7265,1.7067,1.706,1.706,1.706,1.7173,1.7279,1.7483,1.7582,1.7582,1.7582,1.7582,1.7582,1.7582,1.7582,1.8017,1.8809,1.8809,1.9261,2.0134,2.0175,2.0036,1.9823,1.9386,1.9279,1.9279,1.9279,1.948,1.9783,1.9983,2.03,2.0617,2.1027,2.1326,2.1623,2.192,2.2333,2.2745,2.3147,2.3456,2.3746,2.4134,2.4637,2.5128,2.5509,2.5238,2.5067,2.5543,2.5181,2.4871,2.5295,2.5475,2.5452,2.5541,2.5568,2.561,2.5678,2.5983,2.6358,2.6783,2.7152,2.7336,2.7085,2.6328,2.5682,2.5457,2.5337,2.5312,2.5312,2.5535,2.5758,2.5828,2.5828,2.5828,2.591,2.591,2.5984,2.6168,2.6168,2.6439,2.698,2.752,2.8038,0.8604,0.9286,1.0043,1.068,1.1593,1.2534,1.2941,1.3147,1.355,1.4469,1.4836,1.4708,1.4233,1.4335,1.4623,1.4917,1.5211,1.5498,1.5792,1.5635,1.566,1.6247,1.601,1.6126,1.6673,1.673,1.673,1.673,1.673,1.673,1.673,1.673,1.673,1.673,1.7067,1.7179,1.7179,1.7483,1.7582,1.7582,1.7582,1.7582,1.7582,1.7582,1.7916,1.849,1.849,1.9043,1.9788,1.9821,1.9775,1.9725,1.9403,1.9279,1.9279,1.9279,1.948,1.9783,1.9983,2.03,2.0522,2.0822,2.1121,2.1318,2.1623,2.1928,2.2224,2.2846,2.3147,2.3447,2.3755,2.4143,2.4637,2.5137,2.4869,2.4506,2.4975,2.4819,2.4529,2.4861,2.5031,2.5285,2.5559,2.5728,2.599,2.6157,2.6396,2.6644,2.6891,2.7033,2.7163,2.7085,2.6328,2.5763,2.5763,2.5481,2.5312,2.5312,2.5312,2.5394,2.5606,2.5618,2.5688,2.5923,2.5923,2.6181,2.6721,2.6721,2.7004,2.7533,2.8086,2.8332,0.8731,0.9506,1.0414,1.1361,1.2089,1.2817,1.3789,1.4022,1.4213,1.4817,1.4947,1.4898,1.4723,1.4943,1.5164,1.5257,1.5418,1.5543,1.5629,1.5363,1.5313,1.5678,1.5689,1.5744,1.6106,1.6312,1.6424,1.6424,1.663,1.663,1.6424,1.6424,1.6424,1.6424,1.6743,1.6955,1.7179,1.7483,1.7582,1.7582,1.7582,1.7582,1.7582,1.7582,1.7916,1.849,1.849,1.8937,1.9557,1.9479,1.9339,1.9208,1.9316,1.9279,1.9279,1.9279,1.948,1.9783,1.9983,2.03,2.0522,2.0822,2.1121,2.1318,2.1623,2.1928,2.2224,2.2846,2.3046,2.3247,2.3646,2.3945,2.4143,2.4843,2.4669,2.4506,2.4792,2.4375,2.41,2.4529,2.4711,2.4871,2.5211,2.5549,2.5738,2.599,2.6157,2.6479,2.6809,2.6974,2.6932,2.6825,2.6263,2.5878,2.5639,2.5217,2.5063,2.5418,2.5441,2.542,2.5394,2.5744,2.5949,2.6021,2.6408,2.6686,2.6843,2.6843,2.7122,2.7642,2.7799,2.8142,0.8784,0.958,1.0516,1.1556,1.2332,1.3162,1.4394,1.4697,1.4886,1.5154,1.5137,1.513,1.504,1.5087,1.5206,1.512,1.5269,1.5356,1.5356,1.5077,1.5088,1.536,1.5239,1.5248,1.553,1.5793,1.5952,1.5952,1.6249,1.6311,1.6111,1.6111,1.6111,1.6111,1.6424,1.6736,1.6955,1.7272,1.7483,1.7582,1.7582,1.7582,1.7582,1.7582,1.7916,1.8497,1.8611,1.891,1.9199,1.9147,1.9092,1.8981,1.9175,1.9279,1.9279,1.9279,1.948,1.9783,1.9983,2.03,2.0522,2.0822,2.1027,2.1224,2.1623,2.1827,2.203,2.2644,2.2946,2.3011,2.3251,2.3413,2.3754,2.4599,2.4393,2.4249,2.4618,2.4118,2.3764,2.4186,2.4282,2.454,2.4871,2.5126,2.5391,2.5728,2.599,2.6324,2.6561,2.6809,2.686,2.6783,2.6459,2.6186,2.6013,2.5608,2.5518,2.5812,2.5836,2.5769,2.567,2.6029,2.6196,2.6196,2.653,2.6804,2.6954,2.7095,2.7358,2.7873,2.7951,2.8276,0.8813,0.9591,1.0554,1.1411,1.2438,1.3556,1.4715,1.5133,1.5345,1.5345,1.5345,1.5345,1.5054,1.5054,1.4968,1.4701,1.4918,1.5083,1.5083,1.479,1.4781,1.5022,1.4795,1.4811,1.5046,1.5312,1.5463,1.5463,1.5686,1.5819,1.5819,1.5843,1.5855,1.5855,1.6099,1.6418,1.6586,1.6922,1.7226,1.7502,1.7528,1.7542,1.7542,1.7569,1.7916,1.8504,1.8771,1.8843,1.8892,1.8909,1.8929,1.8869,1.9175,1.9279,1.9279,1.9279,1.948,1.9776,1.9983,2.03,2.0617,2.0822,2.0925,2.1019,2.1522,2.1725,2.1827,2.2443,2.2719,2.2915,2.2752,2.2832,2.3284,2.4137,2.3935,2.3746,2.4181,2.381,2.3493,2.3754,2.3937,2.4206,2.4454,2.47,2.5041,2.5559,2.5895,2.6157,2.624,2.6561,2.6809,2.6891,2.6749,2.6676,2.6676,2.6368,2.6241,2.6288,2.63,2.6323,2.6359,2.64,2.6376,2.6376,2.6423,2.6694,2.7187,2.7321,2.7715,2.8179,2.8351,2.8431,0.8871,0.9674,1.0664,1.1637,1.2959,1.4091,1.4536,1.4922,1.5184,1.5184,1.5184,1.5177,1.5082,1.5082,1.5082,1.4994,1.4848,1.479,1.479,1.4592,1.4412,1.4473,1.4582,1.4739,1.4793,1.504,1.5191,1.5191,1.5246,1.5276,1.5276,1.5469,1.5584,1.5584,1.6001,1.6225,1.6112,1.6314,1.651,1.6603,1.6832,1.7048,1.7248,1.7475,1.7916,1.8497,1.8557,1.8544,1.8574,1.8801,1.8709,1.8534,1.9063,1.9279,1.9279,1.9279,1.9576,1.9983,2.0078,2.0395,2.0822,2.0925,2.0925,2.0917,2.1326,2.1522,2.1725,2.2131,2.223,2.2287,2.2593,2.2531,2.2518,2.3085,2.3112,2.3016,2.3554,2.3248,2.3057,2.3493,2.359,2.3764,2.4206,2.4454,2.4796,2.5475,2.5644,2.5812,2.6157,2.6324,2.6396,2.6644,2.6415,2.6268,2.6268,2.598,2.6031,2.6424,2.6459,2.6632,2.6967,2.6995,2.6941,2.6941,2.734,2.7611,2.7716,2.7797,2.7844,2.7962,2.8042,2.8111,0.8649,0.9537,1.0613,1.2099,1.329,1.4126,1.4415,1.4502,1.4508,1.4508,1.4796,1.5083,1.4885,1.4885,1.4885,1.479,1.4592,1.4496,1.4496,1.4394,1.4298,1.4298,1.4425,1.4515,1.4515,1.4763,1.492,1.492,1.5034,1.5107,1.5107,1.524,1.5312,1.5312,1.5548,1.5762,1.5716,1.5813,1.6049,1.6124,1.6475,1.6823,1.7161,1.7609,1.7976,1.8277,1.8277,1.8277,1.825,1.8586,1.8569,1.8422,1.9063,1.9279,1.9279,1.9279,1.968,2.0078,2.0078,2.0498,2.0925,2.0925,2.0925,2.0917,2.1224,2.142,2.1623,2.203,2.1979,2.1855,2.2144,2.209,2.1951,2.2143,2.2447,2.2784,2.2966,2.2914,2.2891,2.3154,2.3329,2.359,2.3937,2.4358,2.4786,2.5211,2.5369,2.5538,2.5833,2.6001,2.6058,2.6051,2.6251,2.6219,2.5983,2.6029,2.6302,2.6645,2.6668,2.6863,2.7219,2.714,2.7162,2.7162,2.7418,2.7557,2.7557,2.7626,2.7708,2.7696,2.78,2.7962,0.8375,0.9285,1.0497,1.2299,1.3169,1.3658,1.4019,1.3897,1.3782,1.3829,1.4316,1.479,1.4502,1.4496,1.44,1.4202,1.4202,1.4202,1.4202,1.4202,1.4202,1.4208,1.4202,1.4202,1.4298,1.4509,1.4648,1.4648,1.4847,1.4968,1.4968,1.5016,1.504,1.504,1.5083,1.5184,1.5325,1.5325,1.5507,1.5876,1.6173,1.6671,1.7271,1.7716,1.7996,1.8043,1.7989,1.7996,1.8023,1.8245,1.8318,1.8422,1.9063,1.9279,1.9279,1.9279,1.9576,2.0086,2.0078,2.0395,2.0822,2.0925,2.0925,2.0917,2.1121,2.1224,2.142,2.192,2.1728,2.1531,2.1778,2.1652,2.1423,2.1383,2.1907,2.2509,2.259,2.2688,2.2715,2.2794,2.3154,2.359,2.3754,2.4348,2.4786,2.4861,2.5009,2.5263,2.5507,2.5654,2.5721,2.5551,2.6062,2.6315,2.5898,2.6326,2.6644,2.6809,2.6809,2.6891,2.7056,2.7138,2.7138,2.7115,2.7138,2.7231,2.7231,2.7371,2.7441,2.7441,2.7719,2.78,0.7967,0.9176,1.0508,1.1522,1.2069,1.2481,1.3182,1.3368,1.336,1.3494,1.3636,1.3732,1.3636,1.3636,1.3636,1.3636,1.3636,1.3636,1.3636,1.3636,1.3732,1.3931,1.3931,1.4022,1.4298,1.4334,1.4352,1.4352,1.4383,1.4407,1.4407,1.4636,1.4769,1.4769,1.4992,1.4998,1.4769,1.4763,1.4943,1.5204,1.617,1.686,1.7161,1.7488,1.7796,1.8029,1.7762,1.7796,1.8023,1.8041,1.822,1.8422,1.8757,1.9078,1.9279,1.9279,1.948,1.9783,1.9983,2.03,2.0617,2.0822,2.0925,2.0925,2.0917,2.1121,2.1326,2.1623,2.1437,2.1185,2.1709,2.1357,2.0905,2.132,2.1527,2.1644,2.2091,2.2302,2.253,2.2706,2.3154,2.359,2.3754,2.41,2.4454,2.4861,2.4946,2.5031,2.5211,2.5263,2.5411,2.5557,2.5853,2.6043,2.6108,2.6445,2.6644,2.6644,2.6644,2.6633,2.6682,2.6682,2.6648,2.664,2.6999,2.7231,2.7231,2.7231,2.7219,2.7219,2.7313,2.7383,0.7998,0.919,1.0302,1.0901,1.1607,1.2198,1.2532,1.2762,1.3008,1.3121,1.3154,1.3152,1.3443,1.3539,1.3539,1.3539,1.3539,1.3539,1.3539,1.3539,1.3539,1.3642,1.3835,1.3931,1.4022,1.4202,1.4298,1.4298,1.4298,1.4298,1.4298,1.4413,1.4479,1.4479,1.4594,1.46,1.4485,1.4479,1.4715,1.5089,1.5869,1.6514,1.6907,1.7208,1.7502,1.7776,1.7642,1.7662,1.7776,1.7966,1.8122,1.822,1.866,1.8974,1.9071,1.9279,1.948,1.968,1.9879,2.0086,2.03,2.0617,2.0719,2.0719,2.0814,2.1019,2.1121,2.142,2.1262,2.1112,2.1272,2.1199,2.1016,2.0987,2.1212,2.1491,2.166,2.2008,2.2353,2.2715,2.3135,2.357,2.358,2.3917,2.4251,2.4444,2.4615,2.4721,2.5019,2.5052,2.5019,2.5016,2.5283,2.5441,2.5442,2.5771,2.6135,2.6373,2.6373,2.6456,2.6622,2.6622,2.6599,2.6565,2.6764,2.6869,2.6869,2.688,2.6891,2.7056,2.7056,2.7138,0.7771,0.8751,0.961,1.0176,1.0914,1.1623,1.1884,1.2204,1.2461,1.2582,1.2702,1.2769,1.3154,1.3301,1.3346,1.3346,1.3346,1.3346,1.3346,1.3346,1.3346,1.3346,1.3539,1.3738,1.3931,1.4118,1.4208,1.4298,1.4298,1.4298,1.4298,1.4298,1.4298,1.4298,1.4298,1.4298,1.4298,1.44,1.4783,1.5178,1.5738,1.6183,1.6607,1.6901,1.7194,1.7475,1.7549,1.7582,1.7582,1.7799,1.7911,1.8023,1.8548,1.8764,1.8869,1.9071,1.9383,1.9576,1.968,1.9879,2.0086,2.03,2.0411,2.0522,2.0719,2.0822,2.0917,2.1224,2.1276,2.1123,2.1034,2.1045,2.1049,2.075,2.0934,2.1302,2.1571,2.183,2.2283,2.2725,2.3047,2.3396,2.3523,2.382,2.4059,2.411,2.4282,2.4475,2.4708,2.4742,2.4735,2.4637,2.4922,2.5082,2.488,2.5258,2.5684,2.6041,2.6019,2.6196,2.6396,2.6396,2.6396,2.6396,2.6456,2.6445,2.6633,2.6573,2.6655,2.6809,2.6809,2.6891,0.6883,0.7524,0.8332,0.9303,0.9778,1.0234,1.1144,1.1381,1.1532,1.2069,1.2264,1.2431,1.2431,1.2614,1.2861,1.2861,1.2861,1.2861,1.2861,1.2861,1.2958,1.3147,1.3147,1.3346,1.3835,1.3931,1.4022,1.4298,1.4298,1.4298,1.4298,1.4298,1.4298,1.4298,1.4298,1.4298,1.4298,1.479,1.5172,1.5452,1.6029,1.6279,1.6306,1.66,1.6894,1.7188,1.7462,1.7582,1.7582,1.7582,1.7799,1.8016,1.8016,1.8443,1.8869,1.8869,1.9071,1.9376,1.9576,1.968,1.9783,1.9983,2.03,2.0522,2.0522,2.0719,2.0917,2.1224,2.1276,2.1123,2.1034,2.0959,2.0873,2.075,2.0744,2.1015,2.183,2.2097,2.2283,2.2744,2.2823,2.2989,2.3398,2.3533,2.358,2.3754,2.4024,2.4206,2.4206,2.4368,2.4605,2.4893,2.4872,2.4978,2.5147,2.5189,2.5346,2.5592,2.5611,2.5746,2.5895,2.5895,2.5895,2.5895,2.5895,2.6168,2.6557,2.6568,2.6617,2.6644,2.6644,2.6727,0.635,0.7108,0.796,0.8499,0.907,0.9631,1.0283,1.0789,1.1209,1.1537,1.1908,1.2183,1.2183,1.2501,1.2764,1.2764,1.2764,1.2764,1.2764,1.2764,1.2861,1.2861,1.305,1.3244,1.3636,1.3835,1.4022,1.4298,1.4298,1.4298,1.4298,1.4298,1.4298,1.4298,1.4298,1.4394,1.4592,1.4892,1.5267,1.554,1.5836,1.6086,1.6279,1.638,1.6587,1.6881,1.7174,1.7408,1.7582,1.7582,1.7694,1.7799,1.7911,1.8227,1.8646,1.8869,1.9078,1.9272,1.9376,1.948,1.948,1.9783,1.9887,2.0101,2.0418,2.0522,2.0719,2.0925,2.1135,2.1203,2.0801,2.0841,2.0874,2.0711,2.0744,2.0835,2.1472,2.1928,2.2195,2.2293,2.2599,2.2853,2.2998,2.3329,2.3474,2.358,2.3754,2.3937,2.3937,2.4196,2.4358,2.4402,2.4584,2.4711,2.4976,2.5009,2.5105,2.5368,2.5325,2.5408,2.543,2.543,2.5535,2.5673,2.5673,2.5863,2.6179,2.6179,2.6252,2.6313,2.6313,2.6479,0.5958,0.6635,0.7335,0.7774,0.8318,0.8859,0.941,1.002,1.0561,1.0795,1.1308,1.1743,1.1828,1.2253,1.2549,1.2635,1.2646,1.2673,1.2754,1.2764,1.2764,1.2764,1.2958,1.3152,1.3443,1.3642,1.3925,1.4298,1.4298,1.4298,1.4298,1.4298,1.4298,1.4298,1.4298,1.4496,1.479,1.4987,1.5267,1.5635,1.573,1.5932,1.6126,1.6126,1.6286,1.6573,1.6767,1.7074,1.7442,1.7542,1.7582,1.7582,1.7799,1.8115,1.8422,1.8646,1.8959,1.9279,1.9279,1.9279,1.9383,1.948,1.9576,1.9783,2.0197,2.0411,2.0522,2.0822,2.1121,2.1156,2.0639,2.0558,2.0627,2.0594,2.0654,2.0753,2.114,2.1491,2.1928,2.2036,2.2362,2.2608,2.2627,2.2969,2.3299,2.3242,2.3493,2.3667,2.3667,2.3937,2.409,2.4029,2.4231,2.4464,2.4643,2.4719,2.4828,2.5052,2.5126,2.5136,2.5231,2.5231,2.5263,2.5486,2.5484,2.5546,2.579,2.5895,2.6012,2.6307,2.6307,2.6496,0.0,0.0,0.0,0.702,0.7532,0.799,0.8551,0.9056,0.9504,0.9883,1.048,1.1029,1.1357,1.177,1.2097,1.2344,1.2393,1.2484,1.2711,1.2743,1.2743,1.2743,1.2743,1.2937,1.342,1.3516,1.3703,1.4274,1.428,1.428,1.4274,1.4274,1.4274,1.4274,1.428,1.458,1.507,1.5077,1.5363,1.5832,1.5832,1.5832,1.5832,1.5832,1.5985,1.6259,1.6273,1.66,1.725,1.7442,1.7575,1.7582,1.7582,1.7898,1.8422,1.8422,1.8743,1.9279,1.9279,1.9279,1.9279,1.9279,1.948,1.9783,1.9983,2.03,2.0522,2.0822,2.1113,2.114,2.0337,2.0005,1.9928,2.0201,2.0473,2.0663,2.0724,2.1059,2.15,2.1993,2.2091,2.2171,2.233,2.2656,2.2823,2.2823,2.3164,2.3513,2.3503,2.3667,2.382,2.376,2.4029,2.4166,2.4191,2.4409,2.4571,2.4901,2.4901,2.4932,2.5156,2.5167,2.5167,2.5167,2.5158,2.5325,2.5568,2.579,2.6151,2.6629,2.6652,2.6696,0.5408,0.0,0.0,0.0,0.0,0.0,0.8047,0.846,0.8842,0.9464,0.9968,1.0314,1.0554,1.0953,1.1359,1.1607,1.193,1.2172,1.2237,1.2248,1.2248,1.2248,1.2248,1.2527,1.2991,1.2991,1.3176,1.3638,1.3906,1.393,1.3743,1.3731,1.3731,1.3731,1.4105,1.449,1.4765,1.5158,1.5547,1.5832,1.5832,1.5832,1.5832,1.5832,1.5872,1.5965,1.6179,1.6366,1.6553,1.7061,1.7388,1.7582,1.7582,1.7799,1.8115,1.8325,1.8639,1.9078,1.9279,1.9279,1.9279,1.9279,1.9376,1.948,1.968,1.9983,2.0292,2.0514,2.064,2.0476,1.9966,1.9909,1.9928,2.0019,2.0201,2.0482,2.0633,2.0814,2.1077,2.1509,2.1857,2.2208,2.2588,2.2796,2.2967,2.2967,2.3236,2.3318,2.3018,2.3329,2.36,2.362,2.3774,2.3947,2.3871,2.3937,2.41,2.4337,2.4423,2.4454,2.4677,2.4677,2.4794,2.5018,2.4944,2.5243,2.584,2.6048,2.6373,2.6641,2.6973,2.7195,0.5554,0.5738,0.5985,0.6284,0.0,0.0,0.7249,0.7619,0.8071,0.8647,0.9153,0.9559,0.9812,1.0295,1.0746,1.0885,1.1219,1.1596,1.2086,1.214,1.214,1.214,1.214,1.2323,1.278,1.278,1.2962,1.3423,1.3652,1.3676,1.3525,1.3513,1.3513,1.3513,1.3945,1.4295,1.4466,1.4909,1.5338,1.5651,1.5651,1.5712,1.5832,1.5832,1.5832,1.5838,1.6012,1.6159,1.6313,1.6774,1.7134,1.7415,1.7535,1.7799,1.8016,1.8325,1.8646,1.8974,1.9175,1.9279,1.9279,1.9279,1.9279,1.9376,1.9576,1.9783,1.9983,2.0411,2.0358,2.0149,1.9821,1.9788,1.9836,1.9845,2.0129,2.0414,2.0542,2.0607,2.0788,2.114,2.1654,2.2116,2.2391,2.2842,2.3138,2.3138,2.317,2.3143,2.2904,2.3086,2.3164,2.3203,2.3466,2.364,2.3707,2.3727,2.3901,2.4044,2.4003,2.4155,2.4337,2.456,2.4794,2.5028,2.5186,2.5668,2.6325,2.6356,2.6568,2.7217,2.7665,2.7905,0.5878,0.5917,0.5903,0.6074,0.6212,0.0,0.6478,0.6818,0.7206,0.7626,0.8201,0.8674,0.9094,0.9687,1.0175,1.0175,1.0385,1.0869,1.1763,1.2004,1.2021,1.2021,1.2042,1.224,1.27,1.27,1.2971,1.3423,1.3423,1.3435,1.3471,1.3441,1.3423,1.3423,1.373,1.4013,1.4174,1.4482,1.4903,1.5351,1.5384,1.5531,1.5785,1.5812,1.5832,1.5832,1.5832,1.5979,1.6246,1.6533,1.6854,1.7181,1.7468,1.7799,1.8016,1.822,1.8541,1.8869,1.9175,1.9279,1.9279,1.9279,1.9279,1.9376,1.9576,1.968,1.9768,2.0215,2.0184,1.9852,1.9726,1.97,1.9768,1.9887,2.0213,2.05,2.0405,2.0594,2.0793,2.101,2.1586,2.2012,2.205,2.2749,2.3307,2.3307,2.3121,2.3013,2.2957,2.2875,2.2803,2.2803,2.3193,2.3408,2.3408,2.3622,2.373,2.374,2.3737,2.3917,2.4231,2.4677,2.4995,2.5215,2.5675,2.633,2.6979,2.6614,2.6955,2.8064,2.8484,2.8484,0.6197,0.6027,0.5849,0.6069,0.6048,0.0,0.6445,0.6591,0.6771,0.7191,0.7565,0.7867,0.8199,0.8788,0.9278,0.9416,0.9782,1.0256,1.0832,1.1074,1.1192,1.1192,1.1543,1.1838,1.2099,1.2348,1.2602,1.2862,1.2862,1.2958,1.3188,1.2988,1.2948,1.3127,1.3605,1.3982,1.4158,1.4665,1.499,1.505,1.5284,1.5424,1.5491,1.5718,1.5832,1.5832,1.5832,1.5865,1.5939,1.6233,1.6673,1.7181,1.7468,1.7582,1.7694,1.801,1.822,1.8534,1.8862,1.9071,1.9279,1.9279,1.9279,1.9279,1.9376,1.948,1.9671,1.9744,1.9789,1.9865,1.9542,1.9781,2.0085,2.0126,2.0337,2.0654,2.0774,2.0906,2.1001,2.1294,2.1506,2.1817,2.2102,2.2676,2.3139,2.3139,2.3183,2.3084,2.2831,2.2608,2.2441,2.2441,2.2715,2.2901,2.2901,2.3086,2.3349,2.3533,2.3553,2.3844,2.4405,2.4516,2.4866,2.5415,2.6138,2.6601,2.6989,2.7115,2.7554,2.8326,2.8451,2.8577,0.6575,0.6413,0.6277,0.6282,0.6223,0.0,0.0,0.6323,0.6469,0.678,0.7021,0.7265,0.7608,0.812,0.8485,0.8678,0.898,0.9346,0.9701,1.0261,1.0681,1.0794,1.1084,1.1411,1.1666,1.1821,1.207,1.2312,1.2433,1.2572,1.2711,1.2796,1.2966,1.3137,1.3525,1.378,1.3952,1.4362,1.4596,1.4743,1.489,1.511,1.5398,1.5545,1.5691,1.5832,1.5832,1.5832,1.5852,1.6152,1.6533,1.6954,1.7255,1.7455,1.7582,1.7905,1.8122,1.8422,1.8757,1.9078,1.9279,1.9279,1.9279,1.9279,1.9279,1.948,1.9678,1.9383,1.966,1.9898,1.956,1.9876,2.0313,2.0207,2.0458,2.0728,2.0807,2.0837,2.0837,2.0933,2.1326,2.177,2.225,2.2797,2.3251,2.3251,2.3048,2.2878,2.2667,2.2379,2.2264,2.2264,2.2441,2.2618,2.2618,2.2687,2.2872,2.3164,2.3378,2.371,2.4323,2.4788,2.5341,2.5968,2.6376,2.6723,2.6945,2.7055,2.7463,2.8239,2.8196,2.8373,0.6965,0.688,0.6791,0.6538,0.6473,0.6421,0.0,0.0,0.0,0.6384,0.6587,0.6791,0.7039,0.7429,0.7749,0.7881,0.8118,0.8393,0.8624,0.9362,1.0019,1.0385,1.0625,1.0897,1.1135,1.142,1.1706,1.192,1.2119,1.2258,1.2395,1.2776,1.3087,1.3222,1.3568,1.3737,1.3737,1.3997,1.4208,1.4436,1.4496,1.4796,1.5311,1.5371,1.5558,1.5832,1.5832,1.5832,1.5845,1.6086,1.6359,1.6653,1.7014,1.7328,1.7582,1.7799,1.8115,1.8325,1.8653,1.8966,1.9175,1.9175,1.9279,1.9279,1.9279,1.948,1.9509,1.9276,1.9535,1.9845,1.9621,1.993,2.0364,2.0321,2.0508,2.084,2.0729,2.0753,2.0753,2.0761,2.1295,2.1784,2.2201,2.2801,2.3347,2.3347,2.285,2.2491,2.2491,2.2336,2.2159,2.2159,2.2419,2.256,2.2494,2.2621,2.2729,2.2818,2.3192,2.3713,2.4215,2.5087,2.5839,2.641,2.643,2.6623,2.6784,2.6809,2.7241,2.7883,2.7905,2.8062,0.7447,0.7258,0.7026,0.6629,0.6473,0.6421,0.622,0.0,0.6182,0.6206,0.0,0.6322,0.6418,0.0,0.0,0.6876,0.7223,0.7597,0.7887,0.8194,0.8782,0.9593,1.0173,1.0528,1.0604,1.1124,1.1594,1.1908,1.195,1.2152,1.2643,1.268,1.306,1.3639,1.3652,1.3822,1.4082,1.4088,1.4108,1.4135,1.4396,1.4696,1.5023,1.5277,1.5558,1.5832,1.5832,1.5832,1.5832,1.5865,1.6052,1.638,1.6934,1.7328,1.7582,1.7582,1.7799,1.8016,1.8122,1.8443,1.8974,1.8974,1.9078,1.9279,1.9279,1.9272,1.931,1.9276,1.9498,1.9758,1.9651,2.0015,2.0451,2.0436,2.0649,2.0955,2.1212,2.1204,2.1306,2.15,2.1634,2.1669,2.166,2.2404,2.3046,2.3046,2.2876,2.2699,2.2699,2.2518,2.2438,2.2438,2.2907,2.3066,2.2676,2.3204,2.3362,2.3007,2.34,2.4001,2.4631,2.551,2.6081,2.6157,2.639,2.6476,2.6522,2.6512,2.6904,2.762,2.761,2.7831,0.7536,0.7409,0.7321,0.6961,0.6773,0.6604,0.6398,0.6262,0.6178,0.6178,0.0,0.0,0.0,0.0,0.0,0.0,0.6742,0.6918,0.7149,0.7268,0.7736,0.8834,0.9382,0.9771,1.0137,1.0396,1.0779,1.1196,1.1365,1.1648,1.2165,1.2644,1.3035,1.3489,1.3736,1.3913,1.3913,1.3913,1.3828,1.3743,1.3946,1.4328,1.4784,1.509,1.5398,1.5832,1.5832,1.5832,1.5832,1.5832,1.6005,1.6313,1.6734,1.7074,1.7355,1.7522,1.7799,1.8016,1.8016,1.8227,1.8646,1.8869,1.8974,1.9078,1.9279,1.9279,1.925,1.931,1.9472,1.965,1.9721,1.9994,2.0292,2.0285,2.0388,2.0498,2.0601,2.0712,2.0822,2.1019,2.1224,2.1481,2.1435,2.1837,2.2333,2.2434,2.2318,2.2273,2.2469,2.2337,2.2289,2.2289,2.2479,2.2614,2.2562,2.2815,2.3075,2.3167,2.3699,2.4326,2.4813,2.5179,2.545,2.5401,2.5713,2.5897,2.6061,2.6157,2.6466,2.6976,2.7105,2.7421,0.775,0.7655,0.7599,0.7229,0.699,0.6815,0.6495,0.6365,0.6243,0.6187,0.6178,0.0,0.0,0.0,0.6263,0.6402,0.0,0.6353,0.6464,0.655,0.7009,0.8005,0.8483,0.8937,0.9514,0.961,0.9934,1.0466,1.0749,1.1125,1.1707,1.2485,1.299,1.3313,1.3761,1.3913,1.3737,1.3652,1.3561,1.3398,1.3568,1.395,1.4591,1.4777,1.5186,1.5832,1.5832,1.5832,1.5832,1.5832,1.5952,1.6179,1.6473,1.6767,1.7074,1.7442,1.7694,1.7911,1.7911,1.8115,1.8325,1.8653,1.8757,1.8862,1.9071,1.9175,1.9175,1.9279,1.948,1.9576,1.9576,1.9783,1.9975,1.996,2.0071,2.0078,2.0078,2.0292,2.0411,2.0522,2.0822,2.1121,2.1224,2.142,2.1725,2.1928,2.1904,2.1926,2.2231,2.2186,2.2215,2.2311,2.2408,2.2504,2.2592,2.27,2.2944,2.3414,2.3932,2.4449,2.4815,2.4833,2.4951,2.4951,2.5137,2.5314,2.5479,2.5781,2.6004,2.6237,2.6648,2.704,0.8112,0.808,0.7895,0.7135,0.7064,0.7031,0.6447,0.6416,0.6407,0.6215,0.6178,0.6171,0.6124,0.6007,0.5886,0.5857,0.5948,0.0,0.0,0.6256,0.6589,0.7074,0.7611,0.8137,0.8693,0.8944,0.9379,0.9856,1.0137,1.0651,1.1477,1.2195,1.2785,1.3307,1.3587,1.3737,1.3737,1.3476,1.3398,1.3398,1.3398,1.3864,1.4591,1.4591,1.5087,1.5832,1.5832,1.5832,1.5832,1.5832,1.5838,1.5872,1.6166,1.6466,1.6787,1.7368,1.7582,1.7582,1.7582,1.7799,1.8016,1.8325,1.8422,1.8527,1.8757,1.8869,1.8974,1.9279,1.9279,1.9272,1.9272,1.9472,1.968,1.968,1.9879,2.0078,2.0078,2.0086,2.0189,2.0411,2.0514,2.0624,2.0822,2.1318,2.1725,2.1725,2.1717,2.1802,2.2106,2.2299,2.2601,2.2911,2.3211,2.3194,2.2759,2.3085,2.3484,2.3746,2.3998,2.4205,2.4454,2.4726,2.4881,2.4881,2.4951,2.4913,2.4954,2.5149,2.5479,2.5742,2.6304,2.6699,0.8031,0.7903,0.7736,0.7487,0.719,0.6959,0.6885,0.6754,0.6601,0.6599,0.6585,0.6577,0.6582,0.6479,0.6319,0.6085,0.6033,0.5965,0.0,0.5868,0.6021,0.622,0.6788,0.7396,0.7919,0.819,0.8585,0.9349,0.9592,1.0183,1.1112,1.1652,1.2144,1.2859,1.306,1.3297,1.3307,1.3222,1.3137,1.296,1.3137,1.3416,1.3863,1.4225,1.4708,1.5365,1.5373,1.5458,1.5635,1.5458,1.5363,1.5389,1.5862,1.6124,1.6282,1.7074,1.7415,1.7582,1.7582,1.7694,1.7799,1.801,1.8115,1.822,1.8429,1.8541,1.8646,1.8974,1.9078,1.9078,1.9279,1.9383,1.948,1.948,1.948,1.9576,1.9576,1.9702,1.9813,1.9998,2.0094,2.0292,2.0395,2.049,2.0798,2.1326,2.142,2.1522,2.1827,2.192,2.2123,2.2333,2.2535,2.2627,2.2929,2.3247,2.3456,2.3573,2.3637,2.3719,2.3818,2.3881,2.3981,2.4205,2.4322,2.4421,2.4599,2.4903,2.5109,2.5137,2.5528,2.6024,0.7963,0.7947,0.7903,0.7774,0.7487,0.7186,0.7183,0.7033,0.6885,0.6871,0.6899,0.6894,0.6798,0.6641,0.6488,0.6273,0.6044,0.5853,0.0,0.568,0.5717,0.5793,0.6287,0.6746,0.7194,0.7458,0.7907,0.8603,0.8992,0.9566,1.0404,1.1112,1.1784,1.2334,1.2706,1.2945,1.3137,1.3052,1.2881,1.2705,1.2881,1.3194,1.3548,1.3812,1.4282,1.4935,1.4942,1.5076,1.5356,1.5172,1.5083,1.5102,1.5467,1.5687,1.5842,1.6832,1.7335,1.7582,1.7582,1.7582,1.7582,1.7799,1.7911,1.7905,1.822,1.822,1.8325,1.8646,1.8757,1.8757,1.9071,1.9175,1.9175,1.9279,1.9279,1.9279,1.9279,1.9398,1.9613,1.9687,1.9791,1.9968,1.9933,1.991,2.0161,2.0901,2.1019,2.1121,2.1522,2.1522,2.1623,2.1928,2.1928,2.2131,2.2535,2.2736,2.2955,2.309,2.3147,2.3338,2.3373,2.3409,2.35,2.3628,2.3836,2.4044,2.4242,2.4637,2.4735,2.4735,2.503,2.5538]},{"header":{"parameterUnit":"m.s-1","parameterCategory":1,"la1":30.6,"la2":29.2853,"lo1":-89.7004,"lo2":-87.6739,"dy":0.0162,"dx":0.0183,"nx":112,"ny":82,"refTime":"2023-10-01T18:00:00:Z","depth":0,"parameterNumber":3,"parameterNumberName":"V-component_of_WINDS"},"data":[0.0,0.0,0.0,0.0,0.0,0.0,0.0,0.0,0.0,0.0,0.0,0.0,0.0,0.0,0.0,0.0,0.0,0.0,0.0,0.0,0.0,0.0,0.0,0.0,0.0,0.0,0.0,0.0,0.0,0.0,0.0,0.0,0.0,0.0,0.0,0.0,0.0,0.0,0.0,0.0,0.0,0.0,0.0,0.0,0.0,0.0,0.0,0.0,0.0,0.0,0.0,0.0,0.0,0.0,0.0,0.0,0.0,0.0,0.0,0.0,0.0,0.0,0.0,0.0,0.0,0.0,0.0,0.0,0.0,0.0,0.0,0.0,0.0,0.0,0.0,0.0,0.0,0.0,0.0,0.0,0.0,0.0,0.0,0.0,0.0,0.0,0.0,0.0,0.0,0.0,-0.743,-0.8044,-0.8664,-0.8851,-0.8624,-0.7886,-0.7128,-0.6405,0.0,0.0,0.0,0.0,0.0,0.0,0.0,0.0,0.0,0.0,0.0,0.0,0.0,0.0,0.0,0.0,0.0,0.0,0.0,0.0,0.0,0.0,0.0,0.0,0.0,0.0,0.0,0.0,0.0,0.0,0.0,0.0,0.0,0.0,0.0,0.0,0.0,0.0,0.0,0.0,0.0,0.0,0.0,0.0,0.0,0.0,0.0,0.0,0.0,0.0,0.0,0.0,0.0,0.0,0.0,0.0,0.0,0.0,0.0,0.0,0.0,0.0,0.0,0.0,0.0,0.0,0.0,0.0,0.0,0.0,0.0,0.0,0.0,0.0,0.0,0.0,0.0,0.0,0.0,0.0,0.0,0.0,0.0,0.0,0.0,0.0,0.0,0.0,0.0,0.0,0.0,0.0,0.0,0.0,0.0,0.0,0.0,0.0,0.0,0.0,0.0,0.0,0.0,0.0,-0.8078,-0.892,-0.9218,-0.9291,-0.8952,-0.8065,-0.7302,-0.6584,0.0,0.0,0.0,0.0,0.0,0.0,0.0,0.0,0.0,0.0,0.0,0.0,0.0,0.0,0.0,0.0,0.0,0.0,0.0,0.0,0.0,0.0,0.0,0.0,0.0,0.0,0.0,0.0,0.0,0.0,0.0,0.0,0.0,0.0,0.0,0.0,0.0,0.0,0.0,0.0,0.0,0.0,0.0,0.0,0.0,0.0,0.0,0.0,0.0,0.0,0.0,0.0,0.0,0.0,0.0,0.0,0.0,0.0,0.0,0.0,0.0,0.0,0.0,0.0,0.0,0.0,0.0,0.0,0.0,0.0,0.0,0.0,0.0,0.0,0.0,0.0,0.0,0.0,0.0,0.0,0.0,0.0,0.0,0.0,0.0,0.0,0.0,0.0,0.0,0.0,0.0,0.0,0.0,0.0,0.0,0.0,0.0,0.0,0.0,0.0,0.0,0.0,0.0,-0.8425,-0.9058,-0.963,-0.9826,-0.9724,-0.9262,-0.8474,-0.7591,-0.6545,-0.545,0.0,0.0,0.0,0.0,0.0,0.0,0.0,0.0,0.0,0.0,0.0,0.0,0.0,0.0,0.0,0.0,0.0,0.0,0.0,0.0,0.0,0.0,0.0,0.0,0.0,0.0,0.0,0.0,0.0,0.0,0.0,0.0,0.0,0.0,0.0,0.0,0.0,0.0,0.0,0.0,0.0,0.0,0.0,0.0,0.0,0.0,0.0,0.0,0.0,0.0,0.0,0.0,0.0,0.0,0.0,0.0,0.0,0.0,0.0,0.0,0.0,0.0,0.0,0.0,0.0,0.0,0.0,0.0,0.0,0.0,0.0,0.0,0.0,0.0,0.0,0.0,0.0,0.0,0.0,0.0,0.0,0.0,0.0,0.0,0.0,0.0,0.0,0.0,0.0,0.0,0.0,0.0,0.0,0.0,0.0,0.0,0.0,0.0,0.0,0.0,0.0,0.0,-0.9416,-0.9974,-1.0215,-1.0323,-1.0184,-0.9585,-0.8836,-0.7833,-0.6526,-0.5598,0.0,0.0,0.0,0.0,0.0,0.0,0.0,0.0,0.0,0.0,0.0,0.0,0.0,0.0,0.0,0.0,0.0,0.0,0.0,0.0,0.0,0.0,0.0,0.0,0.0,0.0,0.0,0.0,0.0,0.0,0.0,0.0,0.0,0.0,0.0,0.0,0.0,0.0,0.0,0.0,0.0,0.0,0.0,0.0,0.0,0.0,0.0,0.0,0.0,0.0,0.0,0.0,0.0,0.0,0.0,0.0,0.0,0.0,0.0,0.0,0.0,0.0,0.0,0.0,0.0,0.0,0.0,0.0,0.0,0.0,0.0,0.0,0.0,0.0,0.0,0.0,0.0,0.0,0.0,0.0,0.0,0.0,0.0,0.0,0.0,0.0,0.0,0.0,0.0,0.0,0.0,0.0,0.0,0.0,0.0,0.0,0.0,0.0,0.0,0.0,0.0,0.0,-1.0225,-1.0835,-1.058,-1.0681,-1.0497,-0.9903,-0.897,-0.7925,-0.6726,-0.556,0.0,0.0,0.0,0.0,0.0,0.0,0.0,0.0,0.0,0.0,0.0,0.0,0.0,0.0,0.0,0.0,0.0,0.0,0.0,0.0,0.0,0.0,0.0,0.0,0.0,0.0,0.0,0.0,0.0,0.0,0.0,0.0,0.0,0.0,0.0,0.0,0.0,0.0,0.0,0.0,0.0,0.0,0.0,0.0,0.0,0.0,0.0,0.0,0.0,0.0,0.0,0.0,0.0,0.0,0.0,0.0,0.0,0.0,0.0,0.0,0.0,0.0,0.0,0.0,0.0,0.0,0.0,0.0,0.0,0.0,0.0,0.0,0.0,0.0,0.0,0.0,0.0,0.0,0.0,0.0,0.0,0.0,0.0,0.0,0.0,0.0,0.0,0.0,0.0,0.0,0.0,0.0,0.0,0.0,0.0,0.0,0.0,0.0,0.0,0.0,0.0,0.0,-1.0645,-1.1285,-1.1172,-1.1233,-1.0979,-1.0182,-0.9245,-0.8081,-0.6554,0.0,0.0,0.0,0.0,0.0,0.0,0.0,0.0,0.0,0.0,0.0,0.0,0.0,0.0,0.0,0.0,0.0,0.0,0.0,0.0,0.0,0.0,0.0,0.0,0.0,0.0,0.0,0.0,0.0,0.0,0.0,0.0,0.0,0.0,0.0,0.0,0.0,0.0,0.0,0.0,0.0,0.0,0.0,0.0,0.0,0.0,0.0,0.0,0.0,0.0,0.0,0.0,0.0,0.0,0.0,0.0,0.0,0.0,0.0,0.0,0.0,0.0,0.0,0.0,0.0,0.0,0.0,0.0,0.0,0.0,0.0,0.0,0.0,0.0,0.0,0.0,0.0,0.0,0.0,0.0,0.0,0.0,0.0,0.0,0.0,0.0,0.0,0.0,0.0,0.0,0.0,0.0,0.0,0.0,0.0,0.0,0.0,0.0,0.0,0.0,0.0,0.0,-0.9985,-1.0978,-1.1623,-1.167,-1.1662,-1.1297,-1.0307,-0.9375,-0.8101,-0.6397,0.0,0.0,0.0,0.0,0.0,0.0,0.0,0.0,0.0,0.0,0.0,0.0,0.0,0.0,0.0,0.0,0.0,0.0,0.0,0.0,0.0,0.0,0.0,0.0,0.0,0.0,0.0,0.0,0.0,0.0,0.0,0.0,0.0,0.0,0.0,0.0,0.0,0.0,0.0,0.0,0.0,0.0,0.0,0.0,0.0,0.0,0.0,0.0,0.0,0.0,0.0,0.0,0.0,0.0,0.0,0.0,0.0,0.0,0.0,0.0,0.0,0.0,0.0,0.0,0.0,0.0,0.0,0.0,0.0,0.0,0.0,0.0,0.0,0.0,0.0,0.0,0.0,0.0,0.0,0.0,0.0,0.0,0.0,0.0,0.0,0.0,0.0,0.0,0.0,0.0,0.0,0.0,0.0,0.0,0.0,0.0,0.0,0.0,0.0,0.0,0.0,0.0,-1.0393,-1.1292,-1.1931,-1.198,-1.1913,-1.1358,-1.0314,-0.9302,-0.7998,0.0,0.0,0.0,0.0,0.0,0.0,0.0,0.0,0.0,0.0,0.0,0.0,0.0,0.0,0.0,0.0,0.0,0.0,0.0,0.0,0.0,0.0,0.0,0.0,0.0,0.0,0.0,0.0,0.0,0.0,0.0,0.0,0.0,0.0,0.0,0.0,0.0,0.0,0.0,0.0,0.0,0.0,0.0,0.0,0.0,0.0,0.0,0.0,0.0,0.0,0.0,0.0,0.0,0.0,0.0,0.0,0.0,0.0,0.0,0.0,0.0,0.0,0.0,0.0,0.0,0.0,0.0,0.0,0.0,0.0,0.0,0.0,0.0,0.0,0.0,0.0,0.0,0.0,0.0,0.0,0.0,0.0,0.0,0.0,0.0,0.0,0.0,0.0,0.0,0.0,0.0,0.0,0.0,0.0,0.0,0.0,0.0,0.0,0.0,0.0,0.0,0.0,0.0,-1.0368,-1.1336,-1.1996,-1.2339,-1.2155,-1.1609,-1.0653,-0.982,-0.8649,-0.6981,0.0,0.0,0.0,0.0,0.0,0.0,0.0,0.0,0.0,0.0,0.0,0.0,0.0,0.0,0.0,0.0,0.0,0.0,0.0,0.0,0.0,0.0,0.0,0.0,0.0,0.0,0.0,0.0,0.0,0.0,0.0,0.0,0.0,0.0,0.0,0.0,0.0,0.0,0.0,0.0,0.0,0.0,0.0,0.0,0.0,0.0,0.0,0.0,0.0,0.0,0.0,0.0,0.0,0.0,0.0,0.0,0.0,0.0,0.0,0.0,0.0,0.0,0.0,0.0,0.0,0.0,0.0,0.0,0.0,0.0,0.0,0.0,0.0,0.0,0.0,0.0,0.0,0.0,0.0,0.0,0.0,0.0,0.0,0.0,0.0,0.0,0.0,0.0,0.0,0.0,0.0,0.0,0.0,0.0,0.0,0.0,0.0,0.0,0.0,0.0,0.0,0.0,-1.0561,-1.1472,-1.2215,-1.2662,-1.2364,-1.1836,-1.0945,-1.0087,-0.8935,-0.7351,0.0,0.0,0.0,0.0,0.0,0.0,0.0,0.0,0.0,0.0,0.0,0.0,0.0,0.0,0.0,0.0,0.0,0.0,0.0,0.0,0.0,0.0,0.0,0.0,0.0,0.0,0.0,0.0,0.0,0.0,0.0,0.0,0.0,0.0,0.0,0.0,0.0,0.0,0.0,0.0,0.0,0.0,0.0,0.0,0.0,0.0,0.0,0.0,0.0,0.0,0.0,0.0,0.0,0.0,0.0,0.0,0.0,0.0,0.0,0.0,0.0,0.0,0.0,0.0,0.0,0.0,0.0,0.0,0.0,0.0,0.0,0.0,0.0,0.0,0.0,0.0,0.0,0.0,0.0,0.0,0.0,0.0,0.0,0.0,0.0,0.0,0.0,0.0,0.0,0.0,0.0,0.0,0.0,0.0,0.0,0.0,0.0,0.0,0.0,0.0,0.0,0.0,-1.093,-1.1766,-1.2453,-1.2967,-1.2613,-1.2043,-1.1219,-1.0215,-0.9058,-0.7669,0.0,0.0,0.0,0.0,0.0,0.0,0.0,0.0,0.0,0.0,0.0,0.0,0.0,0.0,0.0,0.0,0.0,0.0,0.0,0.0,0.0,0.0,0.0,0.0,0.0,0.0,0.0,0.0,0.0,0.0,0.0,0.0,0.0,0.0,0.0,0.0,0.0,0.0,0.0,0.0,0.0,0.0,0.0,0.0,0.0,0.0,0.0,0.0,0.0,0.0,0.0,0.0,0.0,0.0,0.0,0.0,0.0,0.0,0.0,0.0,1.6483,1.4877,0.0,0.0,0.0,0.0,0.0,0.0,0.0,0.0,0.0,0.0,0.0,0.0,0.0,0.0,0.0,0.0,0.0,0.0,0.0,0.0,0.0,0.0,0.0,0.0,0.0,0.0,0.0,0.0,0.0,0.0,0.0,0.0,0.0,0.0,0.0,0.0,0.0,0.0,0.0,0.0,-1.1137,-1.2042,-1.2737,-1.3313,-1.2972,-1.2356,-1.1577,-1.0719,-0.9688,-0.8397,-0.7173,0.0,0.0,0.0,0.0,0.0,0.0,0.0,0.0,0.0,0.0,0.0,0.0,0.0,0.0,0.0,0.0,0.0,0.0,0.0,0.0,0.0,0.0,0.0,0.0,0.0,0.0,0.0,0.0,0.0,0.0,0.0,0.0,0.0,0.0,0.0,0.0,0.0,0.0,0.0,0.0,0.0,0.0,0.0,0.0,0.0,0.0,0.0,0.0,0.0,0.0,0.0,0.0,0.0,0.0,0.0,0.0,0.0,0.0,0.0,2.0216,1.8369,0.0,0.0,0.0,0.0,0.0,0.0,0.0,0.0,0.0,0.0,0.0,0.0,0.0,0.0,0.0,0.0,0.0,0.0,0.0,0.0,0.0,0.0,0.0,0.0,0.0,0.0,0.0,0.0,0.0,0.0,0.0,0.0,0.0,0.0,0.0,0.0,0.0,0.0,0.0,0.0,-1.15,-1.2457,-1.3291,-1.3903,-1.3511,-1.289,-1.2093,-1.1182,-1.0098,-0.8912,-0.7575,0.0,0.0,0.0,0.0,0.0,0.0,0.0,0.0,0.0,0.0,0.0,0.0,0.0,0.0,0.0,0.0,0.0,0.0,0.0,0.0,0.0,0.0,0.0,0.0,0.0,0.0,0.0,0.0,0.0,0.0,0.0,0.0,0.0,0.0,0.0,0.0,0.0,0.0,0.0,0.0,0.0,0.0,0.0,0.0,0.0,0.0,0.0,0.0,0.0,0.0,0.0,0.0,0.0,2.7089,2.7746,2.7872,2.7872,2.7719,2.7411,2.494,2.2991,2.1454,2.0182,0.0,0.0,0.0,0.0,0.0,0.0,0.0,0.0,0.0,0.0,0.0,0.0,0.0,0.0,0.0,0.0,0.0,0.0,0.0,0.0,0.0,0.0,-1.3252,-1.3802,-1.3849,-1.3317,-1.1826,0.0,0.0,0.0,0.0,0.0,0.0,0.0,0.0,0.0,0.0,0.0,-1.2101,-1.318,-1.4034,-1.4622,-1.4172,-1.3563,-1.2757,-1.1609,-1.0478,-0.9343,-0.7816,-0.6547,0.0,0.0,0.0,0.0,0.0,0.0,0.0,0.0,0.0,0.0,0.0,0.0,0.0,0.0,0.0,0.0,0.0,0.0,0.0,0.0,0.0,0.0,0.0,0.0,0.0,0.0,0.0,0.0,0.0,0.0,0.0,0.0,-0.7058,-0.749,0.0,0.0,0.0,0.0,0.0,0.0,0.0,0.0,0.0,0.0,0.0,0.0,0.0,2.5298,2.7072,2.7976,2.9014,3.0176,3.0876,3.1513,3.2107,3.2107,3.2092,3.2023,3.1597,0.0,2.4447,2.3147,0.0,0.0,0.0,0.0,0.0,0.0,0.0,0.0,0.0,0.0,0.0,0.0,0.0,0.0,0.0,0.0,0.0,0.0,0.0,0.0,0.0,0.0,-1.591,-1.5978,-1.597,-1.59,-1.5517,-1.358,-1.1506,-1.0383,-1.01,-0.9589,0.0,0.0,0.0,0.0,0.0,0.0,-1.3182,-1.4374,-1.5107,-1.5245,-1.4824,-1.4231,-1.3442,-1.2075,-1.0787,-0.9685,-0.819,-0.6879,-0.5775,-0.4815,0.0,0.0,0.0,0.0,0.0,0.0,0.0,0.0,0.0,0.0,0.0,0.0,0.0,0.0,0.0,0.0,0.0,0.0,0.0,0.0,0.0,0.0,0.0,0.0,0.0,0.0,0.0,0.0,0.0,-0.4216,0.0766,0.4101,0.7118,1.1312,0.0,0.0,0.0,0.0,0.0,0.0,0.0,0.0,0.0,2.7572,2.871,2.9779,3.0656,3.1722,3.2565,3.3169,3.38,3.446,3.5142,3.473,3.4691,3.4999,3.4604,3.2835,3.0154,2.7907,2.566,2.3599,0.0,0.0,0.0,0.0,2.1827,2.2762,2.3173,2.2543,1.9329,0.6289,0.0,0.0,0.0,0.0,0.0,0.0,0.0,-1.5853,-1.6559,-1.7094,-1.7483,-1.776,-1.7729,-1.7657,-1.749,-1.6277,-1.4554,-1.2554,-1.1962,-1.134,-0.987,-0.9891,0.0,0.0,0.0,-1.3094,-1.4542,-1.5415,-1.6001,-1.6177,-1.57,-1.4991,-1.3974,-1.2542,-1.1182,-0.9962,-0.8315,-0.6953,-0.5934,-0.4863,-0.3996,0.0,0.0,0.0,0.0,0.0,0.0,0.0,0.0,0.0,0.0,0.0,0.0,0.0,0.0,0.0,0.0,0.0,0.0,0.0,0.0,0.0,0.0,0.0,0.0,0.0,0.0,0.0,0.0,0.2509,0.8885,1.4045,1.6118,1.9148,0.0,0.0,0.0,0.0,0.0,0.0,2.729,2.9255,3.0571,3.0924,3.2465,3.3363,3.3505,3.4739,3.5444,3.5566,3.627,3.699,3.7678,3.7174,3.7206,3.7556,3.691,3.6134,3.5163,3.2088,2.936,2.7083,2.6392,2.5387,2.4422,2.4804,2.543,2.6188,2.6647,2.745,2.5314,0.7533,-0.0676,-0.5954,-1.8312,0.0,0.0,0.0,0.0,-1.834,-1.8729,-1.8859,-1.9028,-1.9361,-1.9276,-1.9126,-1.9019,-1.8533,-1.7339,-1.4639,-1.3756,-1.3059,-1.1713,-1.1643,0.0,-1.2434,-1.3326,-1.439,-1.5685,-1.6428,-1.6927,-1.7013,-1.6622,-1.5851,-1.4702,-1.3202,-1.1721,-1.0251,-0.8531,-0.7119,-0.601,-0.4869,-0.3981,-0.3316,0.0,0.0,0.0,0.0,0.0,0.0,0.0,0.0,0.0,0.0,0.0,0.0,0.0,0.0,0.0,0.0,0.0,0.0,0.0,0.0,0.0,0.0,0.0,0.0,0.0,0.0,0.0,0.0,0.0,1.6163,2.3191,0.0,0.0,0.0,0.0,2.9432,2.9512,3.0373,3.2402,3.2529,3.3168,3.4514,3.4784,3.5154,3.5652,3.6548,3.7255,3.7742,3.8478,3.9214,3.9962,4.0003,4.0063,4.0123,3.9548,3.8893,3.797,3.4596,3.2352,3.0957,3.026,2.953,2.8881,2.8912,2.9326,2.9974,3.0084,3.0703,2.815,0.8602,-0.9315,-2.3336,-2.3555,-2.2444,0.0,0.0,-2.0953,-2.1037,-2.1051,-2.0986,-2.093,-2.0952,-2.0665,-2.0322,-2.0333,-1.9976,-1.8955,-1.6353,-1.521,-1.4428,-1.3432,0.0,-1.3173,-1.363,-1.4655,-1.5644,-1.6437,-1.7445,-1.7959,-1.769,-1.7509,-1.6954,-1.5753,-1.4155,-1.2476,-1.0607,-0.8925,-0.7404,-0.5943,-0.5041,-0.4227,-0.3403,-0.2803,0.0,0.0,0.0,0.0,0.0,0.0,0.0,0.0,0.0,0.0,0.0,0.0,0.0,0.0,0.0,0.0,0.0,0.0,0.0,0.0,0.0,0.0,0.0,0.0,0.0,0.0,0.0,0.0,2.653,2.9707,0.0,3.1802,3.1618,3.1638,3.2207,3.2996,3.3828,3.4593,3.5877,3.6852,3.7373,3.7883,3.8469,3.9129,3.9007,3.9267,3.991,4.0186,4.0691,4.139,4.0961,4.0994,4.1401,4.0743,4.0344,3.9911,3.8244,3.6071,3.377,3.3579,3.3047,3.2434,3.2434,3.282,3.3416,3.3466,3.4084,3.1467,1.0601,-1.0199,-2.6926,-2.5751,-2.4866,-2.4042,-2.3047,-2.2574,-2.2313,-2.2026,-2.1756,-2.1508,-2.1585,-2.132,-2.1008,-2.0955,-2.0571,-1.99,-1.8572,-1.74,-1.6263,-1.5056,-1.4907,-1.5099,-1.5545,-1.6311,-1.7105,-1.7983,-1.8405,-1.8495,-1.8197,-1.7605,-1.6752,-1.5533,-1.3713,-1.1963,-1.0435,-0.8557,-0.7038,-0.5933,-0.4929,-0.402,-0.3339,-0.2796,-0.219,0.0,0.0,0.0,0.0,0.0,0.0,0.0,0.0,0.0,0.0,0.0,0.0,0.0,0.0,0.0,0.0,0.0,0.0,0.0,0.0,0.0,0.0,0.0,0.0,0.0,2.7358,3.1966,3.3627,3.4496,3.5038,3.5284,3.53,3.5399,3.5645,3.6495,3.715,3.7396,3.8772,3.9542,3.9542,4.0057,4.0549,4.0983,4.0549,4.068,4.136,4.136,4.1796,4.2545,4.2052,4.216,4.2614,4.1906,4.1593,4.1527,4.0729,3.9024,3.6918,3.6339,3.5668,3.5049,3.5049,3.5377,3.5803,3.5871,3.1192,2.287,0.8779,-1.0924,-2.8975,-2.7766,-2.7024,-2.6339,-2.4961,-2.4267,-2.3828,-2.3306,-2.2868,-2.2442,-2.2414,-2.2104,-2.1748,-2.1458,-2.1094,-2.0635,-1.9922,-1.8702,-1.7437,-1.636,-1.6138,-1.6227,-1.6525,-1.7072,-1.774,-1.8351,-1.8657,-1.8631,-1.8249,-1.7617,-1.6655,-1.5384,-1.3486,-1.1724,-1.0172,-0.8266,-0.68,-0.5822,-0.4804,-0.3929,-0.3252,-0.2479,-0.1842,-0.1381,0.0,0.0,0.0,0.0,0.0,0.0,0.0,0.0,0.0,0.0,0.0,0.0,0.0,0.0,0.0,0.0,0.0,0.0,0.0,0.0,0.0,0.0,0.0,3.0591,3.2368,3.4495,3.6598,3.7465,3.8204,3.8876,3.8997,3.9237,3.9942,3.9935,4.0287,4.1009,4.1074,4.1074,4.1074,4.1173,4.1173,4.1107,4.1173,4.1535,4.2173,4.2173,4.2594,4.3449,4.3568,4.3671,4.3781,4.3115,4.2815,4.2765,4.1813,4.1044,4.0266,3.8558,3.7449,3.6809,3.6809,3.688,3.7017,3.7286,2.2114,0.2729,0.3215,-1.2054,-3.0515,-2.9714,-2.8892,-2.7863,-2.6712,-2.6117,-2.5645,-2.4991,-2.439,-2.3918,-2.3625,-2.3102,-2.2515,-2.1891,-2.1561,-2.1135,-2.0291,-1.8952,-1.782,-1.7458,-1.6838,-1.6494,-1.6558,-1.7053,0.0,-1.7554,-1.8133,-1.8348,-1.783,-1.7514,-1.6775,-1.5305,-1.3464,-1.1677,-0.9962,-0.8196,-0.6781,-0.562,-0.4752,-0.3904,-0.3093,-0.1887,-0.1187,-0.1007,0.0,0.0,0.0,0.0,0.0,0.0,0.0,0.0,0.0,0.0,0.0,0.0,0.0,0.0,0.0,0.0,0.0,0.0,0.0,0.0,0.0,3.2042,3.3844,3.369,3.5546,3.7548,3.9218,3.999,4.0502,4.0684,4.0701,4.0856,4.1183,4.1199,4.1338,4.1649,4.2166,4.2449,4.2449,4.2505,4.2756,4.3248,4.2772,4.2872,4.3564,4.3564,4.3664,4.3923,4.3923,4.3981,4.4023,4.3822,4.3738,4.3688,4.2879,4.2144,4.1355,4.015,3.9214,3.8623,3.8676,3.8833,3.8955,3.9261,2.3609,0.3637,0.4229,-1.1806,-3.106,-2.9847,-2.9163,-2.8424,-2.681,-2.6117,-2.5645,-2.4991,-2.4531,-2.4163,-2.4089,-2.3364,-2.2609,-2.235,-2.1754,-2.1094,-2.0453,-1.9543,-1.866,-1.7745,-1.7389,-1.7043,-1.6686,-1.7082,-1.7407,-1.7474,-1.7638,-1.7581,-1.7184,-1.6365,-1.5367,-1.4212,-1.2213,-1.0571,-0.9405,-0.7527,-0.6055,-0.5289,-0.4489,-0.3579,-0.2515,-0.1793,-0.1308,0.0,0.0,0.0,0.0,0.0,0.0,0.0,0.0,0.0,0.0,0.0,0.0,0.0,0.0,0.0,0.0,0.0,0.0,0.0,0.0,0.0,0.0,3.4985,3.695,3.7703,3.8598,3.9653,4.111,4.1697,4.2136,4.2434,4.2525,4.2582,4.2712,4.2712,4.2752,4.2808,4.3227,4.3444,4.3444,4.3444,4.3662,4.4097,4.3662,4.3679,4.4097,4.4097,4.4155,4.4196,4.4196,4.4212,4.427,4.4212,4.4196,4.4179,4.3685,4.2842,4.1837,0.0,0.0,0.0,0.0,3.9746,3.9884,4.0087,2.4204,0.3859,0.4364,-1.1905,-3.1544,-3.0493,-2.9654,-2.8799,-2.7262,-2.6505,-2.5852,-2.5195,-2.4885,-2.4668,-2.4453,-2.3927,-2.3358,-2.2893,-2.2402,-2.1797,-2.1005,-2.028,0.0,-1.8144,-1.752,-1.7047,-1.6394,-1.6524,-1.6655,-1.6507,-1.6576,-1.6428,-1.5869,-1.5013,-1.4011,-1.2924,-1.1125,0.0,0.0,0.0,-0.548,-0.4489,-0.3823,0.0,0.0,0.0,-0.1311,-0.1187,-0.0798,0.0,0.0,-0.011,-0.0222,0.0,0.0,0.0,0.0,0.0,0.0,0.0,0.0,0.0,0.0,0.0,0.0,0.0,0.0,0.0,0.0,3.773,3.9866,4.1875,4.1488,4.1382,4.2676,4.2957,4.3356,4.4006,4.4106,4.4097,4.4097,4.4097,4.4155,4.4155,4.4155,0.0,0.0,0.0,4.4155,4.4155,4.4155,4.4155,4.4155,4.4155,4.4212,4.4367,4.4367,4.448,4.4626,4.4423,4.4367,4.435,4.4112,4.3166,4.1758,4.0966,4.0263,3.9729,3.9849,3.9986,4.0138,4.0305,0.0,0.0,0.4085,-1.2255,-3.1923,-3.1198,-3.0196,-2.8937,-2.7854,-2.7029,-2.6287,-2.5527,-2.5382,-2.5192,-2.4723,-2.4566,-2.4261,-2.3458,-2.325,-2.2873,-2.181,-2.1174,-2.0279,-1.873,-1.7605,-1.6684,-1.5893,-1.5723,-1.5606,-1.5176,-1.5199,-1.4944,-1.4217,-1.3535,0.0,-1.1626,-1.0053,-0.8753,-0.7729,-0.6253,-0.4852,-0.3524,-0.2982,-0.2443,-0.197,-0.1562,-0.1291,-0.1021,-0.0956,-0.0616,0.0,0.0,-0.0447,0.0,0.0,0.0,0.0,0.0,0.0,0.0,0.0,0.0,0.0,0.0,0.0,0.0,0.0,0.0,3.801,4.007,4.2038,4.3597,4.4105,4.4374,4.4658,4.4691,4.4817,4.4951,4.4449,4.4155,4.4253,4.4253,4.431,4.4514,4.4514,4.4514,4.4514,4.4514,4.4514,4.4514,4.4514,4.4514,4.4514,4.4514,0.0,4.472,4.472,4.4776,4.4923,4.4776,4.472,4.4614,4.3838,4.2652,4.1251,4.0285,3.9915,3.9833,3.9901,4.0054,4.0288,4.0436,2.438,0.3873,0.4243,-1.2087,-3.1803,-3.1211,-3.0196,0.0,-2.8014,-2.7188,-2.6515,-2.5893,-2.5676,-2.5511,-2.5402,-2.4843,-2.43,-2.4136,-2.3656,-2.3136,-2.2761,-2.2241,-2.1581,-2.0502,-1.863,-1.6857,-1.5625,-1.5442,-1.5171,-1.456,-1.4018,-1.355,-1.3099,-1.2127,-1.1174,-1.0346,-0.9094,-0.7946,-0.7138,-0.5346,-0.4035,-0.3446,-0.2728,-0.23,-0.2228,-0.1724,-0.1365,-0.1077,-0.11,-0.0674,0.0,0.0,-0.0496,0.0,0.0,0.0,0.0,0.0,0.0,0.0,0.0,0.0,0.0,0.0,3.4072,3.5095,0.0,3.9115,4.0544,4.2255,4.3826,4.4845,4.59,4.6337,4.5831,4.5781,4.5706,4.5337,4.5043,4.4805,4.4474,4.444,4.4497,4.457,4.4587,4.4587,4.4587,4.4587,4.4587,4.4587,4.4587,4.4587,4.4587,4.4682,4.4737,4.4776,4.4886,4.494,4.4978,4.494,4.4886,4.4783,4.3481,4.2255,4.1136,4.0222,3.9935,3.9986,3.9986,4.0138,4.0305,4.0436,2.8427,1.2053,0.6283,-0.7931,-2.3768,-2.942,-3.0345,-2.9173,-2.8247,-2.7406,-2.6717,-2.6045,-2.584,-2.5758,-2.5758,-2.5411,-2.5078,-2.4939,-2.4665,-2.4333,-2.3878,-2.3442,-2.2777,-2.1838,-2.0277,-1.8467,-1.6312,-1.5562,-1.4909,-1.4052,-1.3287,-1.2674,-1.2056,-1.1077,-1.0188,-0.9533,-0.8147,-0.693,-0.5956,-0.4699,-0.3689,-0.3061,-0.2479,-0.2056,-0.1933,-0.1338,-0.1047,-0.1212,-0.1165,-0.0711,-0.0,-0.048,-0.0795,0.0,0.0,0.0,0.0,0.0,0.0,0.0,3.0776,3.2968,3.3836,3.572,3.7552,3.8721,4.0175,4.1579,4.2807,4.4133,4.532,4.6123,4.7098,4.7513,4.68,4.6793,4.6549,4.5824,4.5906,4.5716,4.4914,4.4981,4.4998,4.4863,4.4846,4.4778,4.4682,4.4682,4.4682,4.4682,4.4682,4.4682,4.4682,4.4793,4.4831,4.4886,4.4978,4.5032,4.5103,4.5032,4.4861,4.4448,4.3096,4.2021,4.1188,4.0578,4.0426,4.0476,4.0189,4.0188,4.0305,4.0436,3.2443,2.0598,1.103,-0.0186,-1.224,-2.4163,-2.6944,-2.6372,-2.79,-2.7858,-2.7105,-2.654,-2.6272,-2.6128,-2.6128,-2.6054,-2.5898,-2.5746,-2.5746,-2.5624,-2.5127,-2.4731,-2.4208,-2.3372,-2.2395,-2.0655,-1.745,-1.6118,-1.5012,-1.3833,-1.2907,-1.2068,-1.1213,-1.0236,-0.9393,-0.856,-0.7246,-0.597,-0.4952,-0.4187,-0.3471,-0.2662,-0.222,-0.187,-0.1678,-0.0991,-0.0772,-0.1029,-0.0972,-0.0575,-0.0,-0.0774,-0.1039,2.5432,2.5918,2.7234,2.8672,3.0179,3.1817,0.0,3.5628,3.7206,3.8545,4.0062,4.118,4.1218,4.2467,4.3765,4.4585,4.5422,4.6464,4.7875,4.7619,4.7517,4.8055,4.7988,4.7682,4.705,4.7056,4.6766,4.5847,4.6333,4.6476,4.5773,4.5722,4.5529,4.4958,4.494,4.494,4.494,4.494,4.494,4.494,4.4978,4.5032,4.514,4.5177,4.5247,4.5371,4.5247,4.4316,4.2945,4.2722,4.2159,4.1393,4.1308,4.1562,4.188,4.0561,4.0188,4.0305,4.0436,3.2538,2.2172,2.0941,1.2495,0.0493,-1.1424,-1.4418,-1.5845,-2.6384,-2.8804,-2.8189,-2.8138,-2.7532,-2.6884,-2.6884,-2.6511,-2.6164,-2.6164,-2.622,-2.6346,-2.6433,-2.6463,-2.6264,-2.5765,-2.4837,-2.2844,-1.8957,-1.7288,-1.5986,-1.4455,-1.2991,-1.1763,-1.0824,-0.9636,-0.8299,-0.6957,-0.6167,-0.5464,-0.4758,-0.3902,-0.3274,-0.2803,-0.2338,-0.2031,-0.1879,-0.1409,-0.0871,-0.0162,-0.0166,-0.0085,-0.0,-0.0088,-0.0619,2.8749,2.9721,3.1098,3.2159,3.4168,3.6132,3.7059,3.8743,4.0284,4.0875,4.2218,4.3219,4.3168,4.4061,4.4988,4.5654,4.6443,4.7107,4.7626,4.7814,4.7923,4.786,4.7786,4.7421,4.6652,4.6977,4.6908,4.6101,4.6749,4.7056,4.6749,4.6288,4.5896,4.5627,4.52,4.4978,4.4978,4.4978,4.4978,4.4978,4.5086,4.514,4.5177,4.53,4.5371,4.5423,4.5371,4.4646,4.3494,4.3494,4.2997,4.2228,4.2228,4.2312,4.2308,4.1645,4.1154,4.0832,4.0984,3.7434,3.1665,2.472,1.9183,1.3003,0.0992,-0.2216,-0.4185,-1.5839,-1.8844,-2.0063,-2.6816,-2.8282,-2.8045,-2.8176,-2.7997,-2.7889,-2.8156,-2.2502,-1.7652,-1.84,-1.2766,-0.7918,-0.8153,-0.7531,-0.8356,-1.2403,-1.5943,-1.751,-1.5749,-1.3921,-1.1902,-0.9639,-0.8541,-0.743,-0.6103,-0.5547,-0.5007,-0.4389,-0.3528,-0.2902,-0.2668,-0.1806,-0.1178,-0.0786,-0.0628,-0.0238,0.0407,0.0416,0.0256,0.0,0.0,-0.0179,3.1513,3.2825,3.4254,3.5405,3.7624,3.9579,4.0013,4.1445,4.2731,4.2938,4.387,4.4596,4.4596,4.5044,4.5612,4.6298,4.6863,4.7253,4.7312,4.7655,4.7746,4.7309,4.7069,4.6653,4.5977,4.697,4.7329,4.652,4.7415,4.7877,4.7689,4.7141,4.6627,4.6234,4.5686,4.5309,4.5086,4.5086,4.5086,4.5086,4.5194,4.5247,4.5247,4.5371,4.5423,4.5423,4.5423,4.494,4.4182,4.4182,4.3769,4.3151,4.3151,4.3184,4.3163,4.3073,4.2238,4.1204,4.1342,4.0917,3.8908,3.0278,2.7554,2.5486,1.3438,1.0027,0.7898,-0.3758,-0.6897,-0.8657,-1.7076,-1.913,-1.898,-1.9185,-1.9162,-1.9204,-1.953,-1.2577,-0.65,-0.7451,-0.066,0.5064,0.4481,0.4634,0.2483,-0.4327,-0.9254,-1.336,-1.6589,-1.4566,-1.1652,-0.8612,-0.7512,-0.6544,-0.5297,-0.4787,-0.4382,-0.3923,-0.3139,-0.2589,-0.2198,-0.1335,-0.055,0.0079,0.0236,0.0558,0.0904,0.0919,0.0683,0.0351,0.0267,0.009,3.3003,3.4491,3.6164,3.8402,4.0097,4.1609,4.3119,4.3979,4.461,4.5355,4.5407,4.5389,4.5389,4.5406,4.5682,4.6475,4.6631,4.6889,4.7614,4.7113,4.6665,4.6648,4.5958,4.544,4.5405,4.742,4.8363,4.7511,4.8815,4.933,4.8609,4.8558,4.7928,4.6648,4.6579,4.6146,4.5388,4.5371,4.5371,4.5371,4.5371,4.5371,4.5371,4.5423,4.5423,4.5423,4.5423,4.4992,4.4268,4.4268,4.4217,4.4044,4.4044,4.4437,4.491,4.491,4.335,4.1204,4.1342,4.0917,4.0303,4.0195,4.0223,3.8096,2.6001,2.2523,2.0242,0.8032,0.4827,0.4958,0.4507,0.4965,0.5475,0.5385,0.5589,0.5785,0.5639,0.5663,0.5628,0.5121,0.4578,0.4068,0.3703,0.3198,0.3073,0.3732,0.4796,-0.0329,-1.6627,-1.4414,-1.052,-0.8288,-0.685,-0.5632,-0.438,-0.3728,-0.3448,-0.3297,-0.2826,-0.2119,-0.1335,-0.0864,-0.0314,0.0393,0.0943,0.1286,0.1262,0.1348,0.1378,0.1344,0.0896,0.0448,3.5344,3.7361,3.9193,4.0455,4.2258,4.3825,4.4349,4.4948,4.5267,4.5041,4.4989,4.4765,4.4245,4.4141,4.4574,4.5858,4.6083,4.6343,4.7141,4.702,4.6673,4.6135,4.584,4.5875,4.6395,4.7447,4.7937,4.7623,4.9074,4.9815,4.9574,4.8999,4.854,4.8096,4.7131,4.6475,4.6217,4.5735,4.5528,4.5528,4.5615,4.5684,4.5684,4.5684,4.5684,4.5684,4.5684,4.5528,4.5285,4.5285,4.5285,4.5234,4.5131,4.5182,4.523,4.5194,4.4228,4.2943,4.2415,4.1801,4.1134,4.0803,4.0745,4.0021,3.6141,3.507,3.2658,2.0457,1.718,1.5471,0.72,0.5261,0.5384,0.5189,0.5168,0.5086,0.4648,1.0997,1.641,1.5339,2.138,2.6403,2.5658,2.4777,2.1979,1.5379,0.5262,-0.2934,-0.6375,-0.9548,-1.0655,-0.8751,-0.6181,-0.4069,-0.2824,-0.2225,-0.1876,-0.1687,-0.1285,-0.0878,-0.0471,0.0079,0.0791,0.1606,0.1687,0.1726,0.1634,0.1634,0.1571,0.1436,0.1256,0.1076,3.7408,3.9429,4.1288,4.2517,4.3945,4.4953,4.4953,4.5222,4.5192,4.4164,4.3889,4.3645,4.2845,4.2932,4.3405,4.4396,4.5072,4.5612,4.6116,4.643,4.6395,4.5839,4.577,4.6134,4.69,4.7505,4.7931,4.8152,4.9286,5.0011,5.0011,4.9528,4.9114,4.8838,4.7631,4.6889,4.6613,4.5926,4.5615,4.5667,4.577,4.577,4.577,4.577,4.577,4.577,4.577,4.577,4.577,4.577,4.577,4.577,4.5736,4.5615,4.5546,4.5459,4.5043,4.4387,4.3442,4.245,4.1543,4.1197,4.092,4.0745,4.1,4.1152,3.9588,3.1833,2.9678,2.794,1.9964,1.7801,1.7641,1.7437,1.7252,1.7043,1.6601,2.2665,2.7914,2.696,3.278,3.756,3.6869,3.5835,3.2857,2.5911,1.2617,0.2591,0.0223,-0.3657,-0.6145,-0.5987,-0.3808,-0.1975,-0.1018,-0.0505,-0.0167,-0.0082,0.0164,0.0491,0.0967,0.1369,0.1784,0.2138,0.2056,0.1927,0.1738,0.1825,0.167,0.1436,0.1436,0.1436,3.9211,4.08,4.2485,4.453,4.5062,4.508,4.4992,4.4844,4.4292,4.2754,4.2283,4.1957,4.1111,4.1661,4.2236,4.2305,4.361,4.462,4.4689,4.5351,4.5821,4.5821,4.5855,4.6186,4.7021,4.7717,4.8429,4.9136,4.9694,4.9993,4.9993,4.9993,4.9666,4.8907,4.8114,4.7372,4.6665,4.5943,4.5667,4.5821,4.5873,4.5873,4.5821,4.5873,4.5873,4.5821,4.5821,4.5821,4.5821,4.5821,4.5821,4.5821,4.5838,4.5821,4.5821,4.5821,4.5718,4.5459,4.4334,4.3014,4.1731,4.1763,4.1332,4.0796,4.1017,4.1152,4.1255,4.138,4.138,4.138,4.1209,4.1041,4.0823,4.0534,4.0387,4.0188,3.9952,3.9609,3.9329,3.9023,3.8046,3.7189,3.6894,3.6022,3.511,3.4444,2.6399,1.5999,0.3721,0.2929,0.2425,-0.0525,-0.0087,0.0691,0.1387,0.1617,0.1766,0.1683,0.1599,0.1935,0.286,0.286,0.2609,0.2189,0.2189,0.2043,0.1741,0.1827,0.1671,0.1436,0.1436,0.1436,4.1186,4.2882,4.4406,4.4342,4.4753,4.4799,4.3658,4.2893,4.2016,4.0473,3.9641,3.8993,3.8222,3.8713,3.9606,4.0797,4.2286,4.3705,4.4844,4.5649,4.6073,4.6073,4.6648,4.7296,4.8049,4.8732,4.9447,5.0143,5.0293,5.0302,5.0302,5.0302,5.0215,5.0007,4.8595,4.7761,4.7571,4.6343,4.5871,4.609,4.6718,4.67,4.609,4.6735,4.6683,4.6122,4.6204,4.6253,4.6253,4.6253,4.6253,4.6253,4.6023,4.5922,4.5922,4.5821,4.577,4.5701,4.5304,4.4492,4.3459,4.2305,4.1871,4.1726,4.1267,4.1215,4.1318,4.1272,4.1318,4.138,4.1169,4.1029,4.084,4.0436,4.0238,4.0037,3.952,3.9379,3.9148,3.8655,3.793,3.7123,3.6342,3.5814,3.5035,3.3681,3.1161,2.6021,1.6585,0.9252,0.4019,0.1781,0.3291,0.4913,0.5829,0.4925,0.4185,0.3869,0.3606,0.3581,0.3865,0.3444,0.3303,0.3445,0.3014,0.2785,0.2578,0.2224,0.1963,0.1705,0.1525,0.1436,4.2868,4.4245,4.5211,4.4724,4.4595,4.4079,4.2219,4.0902,3.9533,3.7672,3.6654,3.5864,3.5109,3.6145,3.7496,3.8743,4.0832,4.2816,4.436,4.5238,4.5993,4.666,4.7134,4.7819,4.8924,4.9381,4.9923,5.0677,5.0526,5.0415,5.0415,5.0415,5.0415,5.0415,4.8846,4.7663,4.7056,4.6307,4.6147,4.6748,4.7187,4.7395,4.7375,4.7814,4.7636,4.6896,4.6976,4.6813,4.6495,4.6495,4.6495,4.6495,4.6253,4.6172,4.6207,4.6407,4.6479,4.6377,4.6343,4.5944,4.5234,4.3642,4.2933,4.2632,4.1963,4.1858,4.1863,4.1541,4.1453,4.1471,4.1353,4.1152,4.0871,4.0485,4.0138,3.9833,3.9379,3.911,3.8711,3.8075,3.7535,3.6993,3.6304,3.5861,3.5171,3.394,3.3289,3.0834,2.4966,1.7651,1.1597,0.8024,0.834,0.8845,0.9018,0.7967,0.7058,0.6384,0.5944,0.5659,0.5347,0.483,0.4515,0.4399,0.3871,0.3452,0.3047,0.269,0.2242,0.1794,0.1615,0.1525,4.4298,4.5017,4.5386,4.5194,4.4325,4.2879,4.0533,3.8638,3.6724,3.453,3.3371,3.2581,3.2037,3.3722,3.553,3.6513,3.9269,4.1868,4.3518,4.4536,4.5624,4.7064,4.7432,4.8064,4.9398,4.9732,5.0136,5.0838,5.0637,5.0471,5.0471,5.0471,5.0366,5.0102,4.8796,4.7422,4.599,4.5972,4.6458,4.7397,4.7553,4.8008,4.8829,4.8917,4.8597,4.7953,4.797,4.7612,4.6956,4.6832,4.6797,4.6749,4.6654,4.6588,4.6645,4.7357,4.7505,4.7402,4.7351,4.7282,4.6865,4.5111,4.4089,4.3444,4.2795,4.2625,4.2514,4.1921,4.1692,4.1604,4.156,4.1272,4.0948,4.0583,4.0087,3.9625,3.9272,3.8711,3.8091,3.7476,3.7027,3.6738,3.6476,3.5958,3.5349,3.4513,3.3703,3.2321,2.9871,2.576,2.1115,1.588,1.4056,1.2733,1.1708,1.0883,1.0043,0.91,0.8591,0.799,0.7298,0.6684,0.6068,0.5364,0.4832,0.4208,0.3494,0.3224,0.2689,0.2063,0.1974,0.1794,4.5312,4.5561,4.5399,4.4643,4.2794,4.0574,3.8151,3.5407,3.2915,3.1247,2.9737,2.8877,2.9404,3.0861,3.2669,3.4758,3.769,4.0481,4.2693,4.422,4.5431,4.6326,4.759,4.8503,4.8749,4.9925,5.0733,5.0873,5.0836,5.0819,5.0819,5.0819,5.0169,4.8696,4.8382,4.7526,4.599,4.5972,4.6458,4.7397,4.8199,4.8637,4.8829,4.9566,4.9475,4.8785,4.8933,4.891,4.8684,4.8009,4.7743,4.7743,4.7599,4.7484,4.7491,4.8285,4.8483,4.8329,4.819,4.8103,4.7701,4.5418,4.4634,4.4384,4.3016,4.2689,4.2594,4.1832,4.1604,4.156,4.1471,4.1261,4.0935,4.0436,3.9986,3.9504,3.886,3.8001,3.7298,3.7027,3.6554,3.6148,3.61,3.5653,3.4976,3.3986,3.3441,3.2492,3.0636,2.757,2.4337,2.1094,1.8701,1.6782,1.5375,1.4248,1.3102,1.1923,1.1171,1.0413,0.9726,0.869,0.7826,0.7302,0.6334,0.5539,0.5003,0.4115,0.3583,0.3229,0.2691,0.2334,4.5588,4.5713,4.532,4.4085,4.1899,3.9335,3.6506,3.3459,3.0803,2.9176,2.7596,2.663,2.7016,2.8684,3.0633,3.2564,3.5478,3.8444,4.12,4.2938,4.4483,4.5996,4.7608,4.8714,4.9118,5.0206,5.0891,5.0891,5.0891,5.0891,5.0891,5.0487,4.9539,4.7874,4.7821,4.7278,4.614,4.6122,4.6718,4.7977,4.8534,4.9252,5.015,5.0606,5.046,4.9763,4.9862,4.963,4.9221,4.8847,4.8687,4.8687,4.856,4.8413,4.8367,4.9111,4.9309,4.9153,4.9083,4.9013,4.8697,4.6737,4.6075,4.5795,4.4353,4.3647,4.3202,4.2457,4.1947,4.1604,4.1515,4.1226,4.0806,4.0353,3.9696,3.8952,3.8262,3.7535,3.6921,3.6616,3.6085,3.5748,3.5589,3.5148,3.4647,3.4126,3.3681,3.2911,3.157,2.992,2.7687,2.4676,2.2617,2.076,1.8846,1.7586,1.623,1.4939,1.4025,1.3115,1.2281,1.1091,1.0154,0.947,0.8253,0.7467,0.6851,0.5971,0.5354,0.4912,0.438,0.4024,4.5285,4.5339,4.4831,4.3383,4.1103,3.8341,3.5258,3.2064,2.9193,2.7361,2.5875,2.491,2.491,2.6841,2.8912,3.0457,3.3301,3.6355,3.9305,4.1218,4.3167,4.5466,4.7099,4.8398,4.9363,5.0171,5.0697,5.0873,5.0945,5.0874,5.0699,5.0084,4.9029,4.7533,4.7498,4.7111,4.627,4.627,4.7043,4.8606,4.8811,4.9743,5.135,5.1505,5.1269,5.0762,5.0762,5.0405,4.9817,4.9638,4.9585,4.9519,4.9524,4.9341,4.9295,4.9957,5.0101,4.9996,4.9943,4.9943,4.9679,4.8135,4.7469,4.6947,4.5523,4.4659,4.3957,4.31,4.2351,4.177,4.1568,4.1117,4.0611,4.007,3.9189,3.8359,3.7801,3.7128,3.646,3.6044,3.5522,3.5085,3.4875,3.4514,3.4346,3.421,3.3799,3.3199,3.2333,3.1846,3.0481,2.7666,2.597,2.4217,2.214,2.0966,1.9641,1.8134,1.722,1.62,1.5068,1.3893,1.2845,1.1849,1.0742,0.9794,0.9187,0.8412,0.7712,0.7092,0.6744,0.6392,4.4321,4.4232,4.3458,4.2483,3.9917,3.7038,3.4464,3.0879,2.7459,2.5156,2.3978,2.333,2.333,2.5243,2.7332,2.886,3.1686,3.4547,3.697,3.9269,4.1552,4.3834,4.5484,4.7029,4.8556,4.9363,5.0101,5.0838,5.0998,5.0735,5.0048,4.9942,4.9252,4.7798,4.7745,4.7373,4.6542,4.6542,4.732,4.8859,4.9061,4.9962,5.1523,5.1607,5.1654,5.1583,5.1583,5.1547,5.1422,5.0691,5.0388,5.0405,5.0405,5.0289,5.0229,5.0925,5.1087,5.0946,5.0839,5.0785,5.0522,4.8924,4.7959,4.7099,4.5572,4.5045,4.4676,4.3092,4.2573,4.2271,4.136,4.084,4.0271,3.9329,3.8623,3.8059,3.7743,3.6604,3.5507,3.5186,3.4562,3.4,3.3631,3.3874,3.3991,3.3744,3.3466,3.3143,3.2692,3.2478,3.186,3.0713,2.8745,2.693,2.5417,2.4315,2.3202,2.1927,2.0752,1.9594,1.8351,1.7179,1.6019,1.4946,1.3767,1.2921,1.2493,1.164,1.0958,1.0444,0.9747,0.9565,4.2198,4.2287,4.1752,4.0424,3.8091,3.5349,3.242,2.9444,2.6614,2.4176,2.3052,2.2482,2.2435,2.3576,2.5173,2.7192,2.9751,3.2508,3.5254,3.7743,4.0087,4.2343,4.4402,4.6055,4.7146,4.8851,5.0171,5.107,5.1193,5.0892,5.0181,4.9584,4.8841,4.7829,4.7333,4.6908,4.659,4.659,4.7139,4.8254,4.8897,4.9746,5.0794,5.1426,5.169,5.169,5.169,5.169,5.1672,5.1351,5.1226,5.1226,5.1226,5.1126,5.1061,5.1329,5.135,5.1193,5.1052,5.0682,5.0101,4.8924,4.8029,4.7204,4.6116,4.5418,4.483,4.4152,4.3154,4.2163,4.1743,4.0743,3.9696,3.9007,3.8415,3.7918,3.7759,3.693,3.6076,3.5704,3.5135,3.4566,3.4089,3.3969,3.3882,3.3605,3.3312,3.3002,3.2704,3.2489,3.2191,3.1613,3.0171,2.8705,2.7299,2.6352,2.5358,2.4097,2.3349,2.2332,2.0854,2.0012,1.8985,1.7852,1.7008,1.6338,1.5998,1.5242,1.4667,1.4255,1.3814,1.3635,3.9771,4.0057,3.9682,3.813,3.6292,3.4028,3.0825,2.8429,2.6144,2.3466,2.2488,2.2023,2.1749,2.25,2.3854,2.5965,2.8135,3.0547,3.3423,3.586,3.832,4.0853,4.3155,4.5088,4.6341,4.8564,5.0328,5.1297,5.1402,5.1239,5.0788,4.9937,4.8999,4.7956,4.7417,4.7009,4.6824,4.6824,4.7169,4.7938,4.8834,4.9666,5.0364,5.1333,5.174,5.174,5.179,5.179,5.174,5.174,5.1758,5.169,5.169,5.164,5.1556,5.1505,5.1454,5.1315,5.0928,5.0435,4.973,4.8659,4.7904,4.7239,4.6467,4.5754,4.5184,4.4907,4.3412,4.1827,4.1746,4.0544,3.9259,3.8898,3.8375,3.7876,3.7759,3.7037,3.6276,3.5843,3.5289,3.4661,3.3943,3.3671,3.3471,3.3081,3.2835,3.2653,3.2526,3.2451,3.2286,3.2082,3.1209,3.0202,2.8969,2.8251,2.7484,2.6384,2.5688,2.4726,2.3434,2.2642,2.17,2.0765,2.0168,1.9754,1.958,1.9008,1.853,1.8057,1.7802,1.7926,3.7184,3.763,3.7238,3.565,3.4686,3.3294,3.0136,2.8101,2.6009,2.2856,2.2154,2.1879,2.1153,2.2246,2.3802,2.5358,2.6967,2.8824,3.1207,3.3509,3.6111,3.9261,4.1704,4.4041,4.6348,4.8732,5.05,5.1452,5.1607,5.174,5.1907,5.1233,5.0096,4.836,4.8289,4.7958,4.732,4.7302,4.7608,4.8307,4.9084,4.9841,5.053,5.1482,5.1907,5.1925,5.2054,5.2005,5.1907,5.1907,5.1808,5.169,5.169,5.169,5.169,5.1556,5.1505,5.1347,5.0447,5.001,4.9642,4.8108,4.7498,4.7239,4.6467,4.6122,4.5798,4.4931,4.3197,4.1528,4.1118,4.0091,3.9152,3.8843,3.8375,3.7876,3.7876,3.6762,3.5595,3.5278,3.4678,3.3883,3.2707,3.2723,3.2644,3.182,3.1937,3.2138,3.2138,3.2274,3.2417,3.2417,3.2082,3.1582,3.0748,3.0266,2.9704,2.9069,2.7945,2.6943,2.6159,2.5096,2.4197,2.3666,2.3256,2.3014,2.3014,2.2613,2.2232,2.1859,2.1538,2.2179,3.3937,3.4398,3.399,3.2384,3.1439,3.019,2.7549,2.5704,2.3969,2.1882,2.0986,2.0681,2.0941,2.1401,2.2587,2.5181,2.6986,2.8905,3.1249,3.3608,3.6043,3.8617,4.1955,4.5186,4.8116,4.9167,5.0245,5.1669,5.1907,5.1987,5.2036,5.1868,5.0969,4.9323,4.8731,4.8066,4.732,4.7302,4.7401,4.7653,4.8416,4.9223,4.9966,5.0821,5.1533,5.2054,5.2102,5.2102,5.2054,5.2054,5.2005,5.1987,5.1987,5.1907,5.1808,5.1808,5.1369,5.0752,5.0385,4.9504,4.8498,4.7805,4.7227,4.6618,4.6291,4.6023,4.5613,4.4492,4.3323,4.2176,4.1129,4.0124,3.9309,3.8914,3.8399,3.8017,3.7817,3.7156,3.6459,3.5999,3.5561,3.4842,3.3513,3.3296,3.2947,3.2003,3.1678,3.1758,3.2178,3.2111,3.2177,3.2577,3.2431,3.1996,3.1347,3.1035,3.0646,3.0152,2.9416,2.8637,2.7779,2.6978,2.6269,2.5693,2.553,2.5575,2.5714,2.5399,2.5119,2.4779,2.4755,2.5375,3.0529,3.1118,3.0814,2.9512,2.8834,2.7942,2.5854,2.4427,2.303,2.1441,2.069,2.0494,2.0951,2.1288,2.2407,2.5204,2.6801,2.8617,3.1271,3.369,3.6524,4.0053,4.2947,4.5811,4.8686,4.9346,5.0139,5.14,5.194,5.215,5.215,5.2246,5.1506,4.9902,4.9316,4.8524,4.7468,4.745,4.7425,4.7381,4.8173,4.8821,4.9297,5.044,5.1232,5.1766,5.2119,5.2246,0.0,5.215,5.215,5.2102,5.2102,5.2005,5.1907,5.1907,5.1307,5.0459,5.0058,4.9083,4.7903,4.7391,4.6804,4.6301,4.6122,4.5922,4.5563,4.4592,4.3765,4.2926,4.1547,4.0558,3.9711,3.898,3.8455,3.8059,3.7801,3.7361,3.6877,3.6461,3.6006,3.5274,3.3868,3.3323,3.2695,3.1588,3.1539,3.1782,3.2164,3.2358,3.2654,3.296,3.2846,3.2561,3.2128,3.1776,3.1421,3.1084,3.0202,2.9457,2.9035,2.8174,2.7566,2.7338,2.7378,2.7498,2.763,2.7419,2.7219,2.7031,2.7111,2.7564,0.0,2.7924,2.7852,2.7032,2.6835,2.6443,2.4944,2.3998,0.0,2.15,2.1144,2.1126,2.1179,2.1839,2.3124,2.5444,2.6568,2.8254,3.1291,3.3898,3.7506,4.2951,4.4438,4.5917,4.8272,4.9225,5.0034,5.0843,5.1795,5.2311,5.2311,5.2397,5.1683,5.017,4.9947,4.9169,4.7717,4.7717,4.7615,4.7511,4.8269,4.8604,4.8605,5.0262,5.1048,5.1156,5.2108,5.2452,5.2311,5.2311,5.2246,5.215,5.215,5.2054,5.1907,5.1853,5.1218,5.0298,4.9513,4.8651,4.7791,4.6885,4.6416,4.6122,4.5871,4.577,4.5667,4.514,4.4448,4.3591,4.2219,4.1264,4.033,3.9079,3.8455,3.8059,3.7918,3.7405,3.6938,3.6723,3.6196,3.5296,3.3845,3.3004,3.2203,3.0947,3.1498,3.2004,3.2105,3.3015,3.3632,3.3675,3.3507,3.3269,3.3058,3.2372,3.1936,3.1896,3.0423,2.9771,3.009,2.8786,2.8249,2.8651,2.8817,2.8853,2.8867,2.8675,2.861,2.861,2.8638,2.8922,2.3549,0.0,2.6193,2.5426,2.5247,2.498,0.0,2.316,2.2486,2.2153,2.156,2.1307,2.1974,2.27,2.3802,2.566,2.7611,2.9607,3.1649,3.5531,3.9551,4.3306,4.4497,4.5917,4.8272,4.9316,5.0172,5.1002,5.1907,5.2452,5.2452,5.1928,5.1201,5.0203,4.9628,4.8823,4.7717,4.7717,4.7657,4.7657,4.7838,4.8229,4.8844,4.9882,5.066,5.1294,5.2154,5.2498,5.2452,5.2452,5.2434,5.2405,5.2405,5.2293,5.2144,5.1419,5.0522,4.9621,4.8758,4.7925,4.7137,4.6755,4.6416,4.6122,4.5871,4.577,4.5667,4.514,4.4448,4.3591,4.2219,4.1335,4.0438,3.9079,3.8639,3.8359,3.786,3.7508,3.7134,3.6662,3.6414,3.5904,3.471,3.3829,3.3134,3.27,3.2185,3.2169,3.3158,3.3419,3.3677,3.4153,3.4059,3.3908,3.3839,3.3143,3.251,3.1844,3.1034,3.0418,3.0033,2.9292,2.9035,2.9352,2.9665,2.9789,2.9789,2.9574,2.9435,2.9338,2.9352,2.9729,2.1834,2.3298,2.4706,2.4341,2.4234,2.4127,2.3697,2.2962,2.241,2.2431,2.207,2.1998,2.2826,2.3611,2.4771,2.6774,2.8784,3.1308,3.4753,3.7808,4.0742,4.357,4.4638,4.5797,4.7396,4.871,4.9766,5.0597,5.1502,5.2046,5.201,5.1663,5.0969,4.9786,4.9391,4.8771,4.7866,4.7847,4.7847,4.7847,4.7847,4.8084,4.8496,4.9615,5.0395,5.0867,5.2019,5.2498,5.2498,5.2498,5.2498,5.2498,5.2498,5.217,5.1715,5.1171,5.0114,4.888,4.8422,4.764,4.6888,4.6684,4.6447,4.6204,4.5922,4.577,4.5667,4.514,4.4687,4.4102,4.274,4.1837,4.0992,3.9643,3.8923,3.8472,3.8049,3.7669,3.7298,3.6952,3.6723,3.6276,3.5293,3.4622,3.4029,3.3606,3.3193,3.3151,3.3859,3.4017,3.4288,3.4572,3.4534,3.4336,3.3978,3.3532,3.2968,3.2234,3.1246,3.0606,3.0322,2.9722,2.9588,2.9898,3.0097,3.0219,3.0355,3.0144,3.0007,2.9898,2.9851,3.0253,2.1209,2.2482,2.3831,2.3858,2.388,2.3916,2.4042,2.3538,2.3052,2.3034,2.3052,2.325,2.3934,2.4815,2.6129,2.8234,3.0368,3.3484,3.8438,3.9968,4.1449,4.3743,4.478,4.5617,4.6432,4.7971,4.9227,4.9898,5.0802,5.13,5.1246,5.1267,5.066,4.925,4.9127,4.8725,4.8032,4.8032,4.7992,4.7992,4.7992,4.7992,4.8046,4.9525,5.021,5.0301,5.1819,5.2498,5.2498,5.2498,5.2498,5.248,5.2353,5.1855,5.1084,5.0831,4.9721,4.8335,4.8163,4.7515,4.6795,4.6637,4.6495,4.6332,4.5922,4.577,4.5667,4.5194,4.5032,4.4698,4.3384,4.2562,4.171,4.0325,3.9355,3.8658,3.831,3.786,3.7476,3.7417,3.7074,3.6599,3.5859,3.5278,3.4775,3.4304,3.416,3.4241,3.445,3.4842,3.5067,3.5067,3.4898,3.4551,3.3862,3.3577,3.3202,3.2544,3.1367,3.0651,3.0665,3.0154,3.0007,3.0312,3.0312,3.0447,3.0568,3.0447,3.0387,3.0326,3.0219,3.0682,2.1326,2.3043,2.4771,2.4748,2.4725,2.4887,2.5571,2.5643,2.5559,2.5546,2.5541,2.5595,2.5708,2.6891,2.8216,2.9314,3.3189,3.6801,3.9045,4.0583,4.2139,4.3896,4.4802,4.5657,4.6571,4.8097,4.9119,4.9336,5.0101,5.0557,5.0557,5.0044,4.961,4.9373,4.8739,4.8396,4.8267,4.8072,4.7992,4.7992,4.7992,4.7992,4.8046,4.9525,5.021,5.0301,5.1819,5.2498,5.2498,5.2498,5.2498,5.2426,5.1737,5.1411,5.1077,4.9631,4.8812,4.8371,4.7482,4.7023,4.6795,4.6637,4.6495,4.6332,4.5922,4.577,4.5718,4.53,4.5086,4.4736,4.3644,4.3098,4.2417,4.0735,3.9989,3.9462,3.8578,3.8221,3.7918,3.7476,3.7358,3.7163,3.6859,3.5579,3.4924,3.5953,3.4912,3.4409,3.5607,3.5785,3.5846,3.5846,3.5093,3.4528,3.4424,3.3084,3.2203,3.2079,3.1642,3.1017,3.0424,3.0248,3.0251,3.0312,3.0447,3.0568,3.0568,3.0702,3.0642,3.0568,3.0642,3.1343,2.1256,2.2849,2.4548,2.5393,2.561,2.57,2.608,2.6495,2.6802,2.6808,2.7145,2.7579,2.8001,2.9032,3.0649,3.3237,3.591,3.8337,4.0365,4.1325,4.2232,4.3411,4.4704,4.5633,4.6054,4.7547,4.8717,4.9177,4.9601,4.9862,4.9862,4.9655,4.9273,4.8815,4.8469,4.8306,4.8306,4.8229,4.8151,4.8151,4.8151,4.8151,4.8187,4.9273,4.9956,5.0387,5.1437,5.2127,5.2498,5.2498,5.2226,5.181,5.143,5.076,4.9854,4.8529,4.7965,4.7761,4.7304,4.7043,4.6888,4.6684,4.6542,4.6447,4.6023,4.5871,4.5718,4.5511,4.5194,4.4838,4.419,4.3524,4.2847,4.1787,4.0816,3.9989,3.9251,3.8667,3.8221,3.7918,3.7727,3.744,3.6798,3.6025,3.5564,3.5636,3.5228,3.5094,3.5584,3.5919,3.5948,3.5535,3.5044,3.4499,3.3713,3.2976,3.2244,3.1544,3.1395,3.1128,3.0776,3.0702,3.0702,3.0702,3.0821,3.0895,3.0895,3.0955,3.0955,3.0895,3.1292,3.1953,2.1185,2.2725,2.4411,2.586,2.6493,2.6819,2.7001,2.7671,2.8304,2.8504,2.8866,2.9489,3.0468,3.1492,3.3288,3.6753,3.815,3.9492,4.1506,4.2032,4.2505,4.3305,4.4709,4.5676,4.5915,4.7211,4.8306,4.8948,4.9102,4.916,4.916,4.9239,4.8985,4.8324,4.8306,4.8306,4.8306,4.8306,4.8306,4.8306,4.8306,4.8306,4.8343,4.9069,4.9793,5.0453,5.1169,5.1855,5.2526,5.2526,5.2055,5.1267,5.1086,5.0035,4.8507,4.7789,4.7407,4.7276,4.7223,4.7088,4.6934,4.6731,4.6637,4.6542,4.6154,4.5972,4.5821,4.5632,4.5353,4.5032,4.4686,4.4079,4.3384,4.2806,4.1654,4.0525,3.9992,3.9121,3.8408,3.8278,3.8107,3.77,3.6869,3.659,3.6164,3.5556,3.5646,3.5763,3.5782,3.6076,3.6013,3.5232,3.4958,3.4258,3.2862,3.2755,3.237,3.1395,3.1249,3.1249,3.1176,3.119,3.1132,3.1087,3.1087,3.1087,3.1087,3.1132,3.1132,3.1146,3.1827,3.2492,2.1259,2.318,2.5117,2.5986,2.7327,2.863,2.9355,3.0152,3.0948,3.1691,3.1347,3.1383,3.2964,3.455,3.6231,3.8018,3.9589,4.0919,4.1865,4.2649,4.3415,4.4217,4.5074,4.5933,4.6815,4.7675,4.8245,4.8359,4.8359,4.8398,4.8398,4.8398,4.8361,4.8306,4.8306,4.8306,4.8306,4.8306,4.8306,4.8306,4.8306,4.8306,4.8343,4.9069,4.9834,5.0639,5.1298,5.1952,5.259,5.259,5.2064,5.1212,5.047,4.9202,4.7747,4.7572,4.7407,4.7276,4.7223,4.7088,4.6998,4.6842,4.6684,4.6542,4.6284,4.6105,4.5922,4.5667,4.5511,4.5336,4.5032,4.4708,4.4193,4.3334,4.2278,4.121,4.0531,3.9417,3.8576,3.8391,3.8278,3.8107,3.787,3.7007,3.6579,3.7121,3.6507,3.6219,3.6783,3.6769,3.6399,3.5718,3.4831,3.3676,3.2179,3.2072,3.2042,3.194,3.1739,3.161,3.1495,3.1336,3.1234,3.1087,3.1087,3.1087,3.1087,3.1234,3.1292,3.1292,3.208,3.2811,2.1133,2.2854,2.4683,2.6512,2.8547,3.0231,3.0539,3.1629,3.2791,3.3629,3.3985,3.4488,3.5587,3.6741,3.8018,3.9641,4.0826,4.1829,4.2631,4.3068,4.3633,4.4419,4.537,4.625,4.7095,4.7903,4.8381,4.8419,4.8363,4.8363,4.8419,4.8401,4.8401,4.8401,4.8401,4.8363,4.8306,4.8306,4.8306,4.8306,4.8306,4.8306,4.8324,4.8598,4.9398,5.0602,5.0871,5.1645,5.2662,5.2162,5.1401,5.0522,4.9155,4.8242,4.7699,4.7657,4.7554,4.7407,4.7294,4.7205,4.7088,4.6888,4.6684,4.659,4.6381,4.6154,4.5972,4.5787,4.5615,4.5459,4.5177,4.4923,4.4563,4.4108,4.2853,4.1599,4.1183,3.9896,3.8766,3.856,3.8504,3.8206,3.7528,3.7094,3.6685,3.6356,3.6353,3.6384,3.6507,3.6823,3.6703,3.5973,3.4666,3.3429,3.2323,3.2247,3.2247,3.2247,3.2023,3.1868,3.1796,3.1754,3.1697,3.1655,3.1655,3.1655,3.1655,3.1697,3.1965,3.2387,3.3125,3.3713,2.1115,2.2837,2.4722,2.6879,2.9493,3.1655,3.2211,3.3148,3.4295,3.5647,3.6608,3.7314,3.7606,3.835,3.9319,4.0656,4.1551,4.239,4.3194,4.3393,4.3849,4.493,4.5716,4.6559,4.7628,4.82,4.8513,4.8513,4.8458,4.842,4.8532,4.8513,4.8513,4.8513,4.8494,4.8457,4.8363,4.8306,4.8306,4.8306,4.8306,4.8306,4.8306,4.8306,4.9166,5.0643,5.0643,5.1517,5.2795,5.1879,5.0864,4.9688,4.8285,4.7717,4.7717,4.7717,4.7615,4.7468,4.7363,4.7249,4.7133,4.6952,4.6795,4.6637,4.6477,4.6301,4.6122,4.5922,4.5787,4.5615,4.5389,4.514,4.4869,4.4631,4.3276,4.1925,4.1683,4.0299,3.904,3.8766,3.8672,3.8453,3.7688,3.7552,3.7263,3.6502,3.6765,3.6953,3.6695,3.703,3.6943,3.6107,3.4623,3.347,3.2878,3.2576,3.2398,3.2398,3.2247,3.2094,3.2038,3.2038,3.2038,3.1996,3.1996,3.2088,3.2315,3.2315,3.2649,3.3317,3.3985,3.447,2.1296,2.3275,2.5496,2.7113,3.0006,3.2867,3.4613,3.4932,3.5531,3.794,3.9159,3.9603,3.8841,3.9386,4.0175,4.0983,4.1791,4.258,4.3387,4.3548,4.4223,4.588,4.617,4.6833,4.8421,4.8587,4.8587,4.8587,4.8587,4.8587,4.8587,4.8587,4.8587,4.8587,4.8532,4.8513,4.8513,4.8363,4.8306,4.8306,4.8306,4.8306,4.8306,4.8306,4.9224,5.0802,5.0802,5.1619,5.2926,5.1974,5.0526,4.8822,4.8025,4.7717,4.7717,4.7717,4.7615,4.7468,4.7363,4.7249,4.7196,4.7043,4.6888,4.6778,4.6637,4.6495,4.6332,4.6073,4.5922,4.577,4.5632,4.5406,4.514,4.4886,4.3512,4.2233,4.198,4.05,3.9255,3.9023,3.8914,3.875,3.8616,3.8504,3.8351,3.8237,3.8049,3.7876,3.77,3.7551,3.7046,3.6107,3.4623,3.3727,3.3727,3.2909,3.2398,3.2398,3.2398,3.2358,3.2191,3.2206,3.215,3.2012,3.2012,3.233,3.2998,3.2998,3.3347,3.4,3.4683,3.4987,2.2024,2.4133,2.6609,2.9405,3.1699,3.4054,3.6881,3.7503,3.8016,3.9896,4.0514,4.0657,4.0451,4.1056,4.1662,4.1919,4.265,4.329,4.3529,4.3686,4.4159,4.521,4.5888,4.6715,4.7789,4.8399,4.8732,4.8732,4.8642,4.8642,4.8732,4.8732,4.8732,4.8732,4.8624,4.855,4.8513,4.8363,4.8306,4.8306,4.8306,4.8306,4.8306,4.8306,4.9224,5.0802,5.0802,5.1678,5.3011,5.1414,4.9731,4.8146,4.7808,4.7717,4.7717,4.7717,4.7615,4.7468,4.7363,4.7249,4.7196,4.7043,4.6888,4.6778,4.6637,4.6495,4.6332,4.6073,4.5972,4.5871,4.5667,4.5511,4.5406,4.5049,4.3603,4.2233,4.2088,4.0769,3.952,3.9255,3.9164,3.904,3.8821,3.86,3.852,3.8351,3.8237,3.7992,3.7759,3.7642,3.7239,3.6252,3.5331,3.4498,3.387,3.3161,3.2959,3.3426,3.3457,3.3129,3.2358,3.2803,3.3064,3.3008,3.3499,3.3851,3.4051,3.4051,3.4404,3.5063,3.5262,3.5539,2.2444,2.4796,2.7575,3.0501,3.2985,3.5677,3.9282,4.0107,4.0349,4.1354,4.1589,4.157,4.1603,4.2022,4.2353,4.2404,4.3118,4.3667,4.3667,4.3786,4.4132,4.4927,4.5545,4.6242,4.7095,4.7893,4.8375,4.8375,4.8564,4.875,4.8857,4.8857,4.8857,4.8857,4.8732,4.8605,4.855,4.8438,4.8363,4.8306,4.8306,4.8306,4.8306,4.8306,4.9224,5.082,5.1132,5.1605,5.204,5.0537,4.9094,4.7879,4.7759,4.7717,4.7717,4.7717,4.7615,4.7468,4.7363,4.7249,4.7196,4.7043,4.6952,4.6842,4.6637,4.6542,4.6447,4.6172,4.6023,4.5903,4.5387,4.5216,4.5148,4.5072,4.378,4.2426,4.2213,4.0944,3.9746,3.9468,3.9432,3.9272,3.904,3.8876,3.8727,3.8504,3.8351,3.8123,3.7934,3.7759,3.7483,3.6864,3.6085,3.5388,3.4836,3.4138,3.3864,3.4254,3.4285,3.4042,3.3454,3.3769,3.3986,3.3986,3.4419,3.4775,3.5127,3.4994,3.5334,3.5998,3.5937,3.603,2.2663,2.5314,2.8416,3.0931,3.4174,3.7757,4.1553,4.2441,4.2448,4.2448,4.2448,4.2448,4.2511,4.2511,4.2562,4.2696,4.3324,4.3804,4.3804,4.3883,4.4175,4.4897,4.5199,4.5584,4.6308,4.7125,4.759,4.759,4.8277,4.8686,4.8686,4.876,4.8797,4.8797,4.882,4.8714,4.8512,4.8458,4.831,4.8086,4.8159,4.8196,4.8196,4.8269,4.9224,5.0839,5.1573,5.1422,5.0529,4.9583,4.8675,4.7902,4.7759,4.7717,4.7717,4.7717,4.7615,4.745,4.7363,4.7249,4.7133,4.7043,4.6998,4.6934,4.6684,4.659,4.6542,4.627,4.607,4.5711,4.4896,4.457,4.449,4.4922,4.3854,4.262,4.2308,4.1034,3.9884,3.9729,3.9642,3.9501,3.9325,3.9148,3.8931,3.8616,3.8391,3.8237,3.818,3.7934,3.7759,3.77,3.6817,3.6216,3.6216,3.5472,3.4982,3.5044,3.506,3.5091,3.5138,3.5034,3.5003,3.5003,3.5065,3.5424,3.6079,3.5929,3.6119,3.6723,3.6616,3.6554,2.3415,2.6222,2.9499,3.2636,3.685,4.0634,4.2216,4.3033,4.348,4.348,4.348,4.3461,4.3494,4.3494,4.3494,4.3545,4.374,4.3883,4.3883,4.3929,4.4029,4.4215,4.4878,4.5361,4.5528,4.629,4.6754,4.6754,4.6921,4.7014,4.7014,4.7608,4.7961,4.7961,4.8524,4.849,4.7807,4.7718,4.7278,4.6562,4.7206,4.7481,4.7388,4.8012,4.9224,5.082,5.0986,5.0949,5.0688,4.9624,4.8739,4.797,4.7783,4.7717,4.7717,4.7717,4.7554,4.7363,4.7302,4.7187,4.7043,4.6998,4.6998,4.698,4.6795,4.6684,4.659,4.6398,4.5831,4.5194,4.4823,4.422,4.3721,4.3646,4.279,4.1953,4.1631,4.0883,4.0138,3.9884,3.9849,3.9746,3.9501,3.9325,3.911,3.8672,3.856,3.8448,3.8237,3.8123,3.8049,3.7876,3.7033,3.6489,3.6489,3.5758,3.5502,3.6038,3.6085,3.6321,3.6947,3.615,3.5751,3.5751,3.6282,3.664,3.6781,3.672,3.6783,3.6938,3.6877,3.68,2.3602,2.6562,3.018,3.4647,3.8596,4.1613,4.2464,4.3341,4.3998,4.3998,4.3902,4.3804,4.3851,4.3851,4.3851,4.3883,4.3929,4.3961,4.3961,4.3974,4.4005,4.4005,4.4395,4.4674,4.4674,4.5435,4.5918,4.5918,4.6271,4.6494,4.6494,4.6903,4.7125,4.7125,4.75,4.7451,4.6972,4.6919,4.6611,4.6172,4.6524,4.6856,4.715,4.8379,4.9389,5.0215,5.0215,5.0215,5.0141,4.9058,4.8375,4.7992,4.7783,4.7717,4.7717,4.7717,4.7511,4.7302,4.7302,4.7143,4.6998,4.6998,4.6998,4.698,4.6842,4.6731,4.6637,4.6447,4.5822,4.5058,4.4415,4.3589,4.2849,4.231,4.1995,4.1746,4.1646,4.0915,4.0255,4.0104,4.0003,3.9849,3.9642,3.9362,3.9094,3.8821,3.8694,3.8583,3.848,3.8367,3.8092,3.7552,3.7317,3.71,3.6765,3.666,3.6705,3.7012,3.7044,3.7144,3.7464,3.7014,3.6707,3.6707,3.7053,3.7241,3.7241,3.7165,3.7105,3.7089,3.706,3.6938,2.3327,2.6776,3.0923,3.6231,3.9359,4.1419,4.2514,4.3416,4.4046,4.4195,4.4061,4.3883,4.3979,4.3961,4.3992,4.4036,4.4036,4.4036,4.4036,4.4036,4.4036,4.4055,4.4036,4.4036,4.4005,4.4655,4.5082,4.5082,4.5695,4.6067,4.6067,4.6215,4.629,4.629,4.642,4.6387,4.6135,4.6135,4.6012,4.5782,4.5989,4.6434,4.713,4.8673,4.9444,4.9572,4.9426,4.9444,4.9517,4.8477,4.8032,4.7992,4.7783,4.7717,4.7717,4.7717,4.7554,4.732,4.7302,4.7187,4.7043,4.6998,4.6998,4.698,4.6888,4.6842,4.6731,4.6477,4.5811,4.4888,4.392,4.2957,4.2044,4.1296,4.1419,4.1673,4.1606,4.0929,4.0355,4.0288,4.0104,3.9849,3.9729,3.9345,3.9094,3.9023,3.8882,3.8717,3.8721,3.8576,3.8132,3.7351,3.7568,3.7582,3.7158,3.7598,3.7876,3.7759,3.7759,3.77,3.7583,3.7524,3.7524,3.7492,3.7524,3.748,3.748,3.7329,3.7254,3.7254,3.7121,3.706,2.2498,2.7226,3.234,3.5994,3.8279,4.0197,4.2454,4.305,4.3359,4.4136,4.4255,4.4226,4.4255,4.4255,4.4255,4.4255,4.4255,4.4255,4.4255,4.4255,4.4226,4.4184,4.4184,4.4135,4.4005,4.4116,4.4172,4.4172,4.4265,4.4339,4.4339,4.5045,4.5454,4.5454,4.6141,4.616,4.5454,4.5435,4.4985,4.4155,4.5348,4.6324,4.715,4.8049,4.8893,4.9536,4.8802,4.8893,4.9517,4.8574,4.809,4.7992,4.7925,4.7819,4.7717,4.7717,4.7615,4.7468,4.7363,4.7249,4.7133,4.7043,4.6998,4.6998,4.698,4.6888,4.6795,4.6637,4.5452,4.4166,4.378,4.2603,4.1475,4.1175,4.1133,4.1138,4.0899,4.0651,4.0436,4.0337,4.0104,3.9849,3.9729,3.952,3.9325,3.9023,3.8969,3.8914,3.8821,3.8717,3.8574,3.843,3.7617,3.7367,3.7987,3.7943,3.7876,3.7876,3.7876,3.786,3.7754,3.7754,3.7706,3.752,3.7504,3.748,3.748,3.748,3.7464,3.7464,3.7421,3.7345,2.4077,2.8496,3.2426,3.4838,3.738,3.9589,4.0672,4.2072,4.3222,4.3596,4.4055,4.4401,4.4314,4.4285,4.4285,4.4285,4.4285,4.4285,4.4285,4.4285,4.4285,4.4274,4.4214,4.4184,4.4135,4.4036,4.4005,4.4005,4.4005,4.4005,4.4005,4.4358,4.4562,4.4562,4.4915,4.4934,4.4581,4.4562,4.43,4.3822,4.4812,4.5681,4.6452,4.7278,4.8086,4.8838,4.8471,4.8526,4.8838,4.8373,4.8148,4.809,4.7984,4.7861,4.7801,4.7717,4.7615,4.7511,4.7407,4.732,4.7249,4.7133,4.7088,4.7088,4.7025,4.6934,4.6888,4.6731,4.5857,4.4763,4.4102,4.2987,4.1922,4.1411,4.1186,4.1064,4.0953,4.0745,4.0534,4.0355,4.007,3.9816,3.9833,3.9609,3.9382,3.9309,3.9202,3.9181,3.9084,3.8947,3.8526,3.7617,3.7838,3.7897,3.7543,3.8028,3.8205,3.8017,3.8017,3.796,3.7844,3.7844,3.7812,3.7764,3.7695,3.7669,3.7669,3.7685,3.77,3.7583,3.7583,3.7524,2.4459,2.8184,3.119,3.3284,3.5979,3.8315,3.9175,4.0873,4.2406,4.2819,4.3577,4.4168,4.4055,4.4194,4.4344,4.4344,4.4344,4.4344,4.4344,4.4344,4.4344,4.4344,4.4285,4.4244,4.4184,4.4104,4.4055,4.4005,4.4005,4.4005,4.4005,4.4005,4.4005,4.4005,4.4005,4.4005,4.4005,4.3992,4.3865,4.3771,4.4444,4.5073,4.5626,4.6434,4.7241,4.8012,4.8214,4.8306,4.8306,4.8247,4.8226,4.8206,4.8006,4.7943,4.7902,4.7801,4.7675,4.7554,4.7511,4.7407,4.732,4.7249,4.7223,4.7196,4.7088,4.7043,4.698,4.6842,4.6152,4.5298,4.4347,4.3388,4.245,4.1618,4.1307,4.114,4.1,4.084,4.0617,4.0372,4.0121,3.9918,3.9934,3.9644,3.9454,3.9537,3.9432,3.9358,3.9351,3.9214,3.864,3.7399,3.8194,3.8439,3.759,3.816,3.8439,3.8246,3.8214,3.8116,3.8049,3.8049,3.8049,3.8049,3.796,3.7943,3.786,3.795,3.7892,3.7759,3.7759,3.77,2.1831,2.4802,2.8128,3.1405,3.3545,3.5691,3.8863,3.969,4.0215,4.1747,4.2769,4.3351,4.3351,4.3989,4.4487,4.4487,4.4487,4.4487,4.4487,4.4487,4.4458,4.4383,4.4383,4.4344,4.4214,4.4184,4.4135,4.4005,4.4005,4.4005,4.4005,4.4005,4.4005,4.4005,4.4005,4.4005,4.4005,4.3883,4.3753,4.3634,4.434,4.4727,4.48,4.5608,4.6416,4.7223,4.7976,4.8306,4.8306,4.8306,4.8247,4.8187,4.8187,4.8046,4.7902,4.7902,4.7801,4.7657,4.7554,4.7511,4.7468,4.7363,4.7249,4.7196,4.7196,4.7088,4.698,4.6842,4.6152,4.5298,4.4347,4.3452,4.2559,4.1618,4.138,4.1244,4.084,4.0697,4.0617,4.0406,4.0339,4.0222,4.0121,3.9951,3.9833,3.9729,3.959,3.9501,3.9501,3.9379,3.9185,3.8887,3.8854,3.8832,3.8909,3.8603,3.8476,3.8665,3.8511,3.8351,3.8391,3.8391,3.8391,3.8391,3.8391,3.8253,3.8104,3.812,3.8014,3.7876,3.7876,3.7817,2.0933,2.3805,2.6873,2.9158,3.1371,3.3588,3.5859,3.7624,3.9089,4.0234,4.1529,4.2487,4.2487,4.3595,4.4515,4.4515,4.4515,4.4515,4.4515,4.4515,4.4487,4.4487,4.4411,4.4354,4.4255,4.4214,4.4135,4.4005,4.4005,4.4005,4.4005,4.4005,4.4005,4.4005,4.4005,4.3974,4.3929,4.3869,4.3719,4.3582,4.3807,4.4195,4.4727,4.5002,4.5571,4.6379,4.7186,4.7829,4.8306,4.8306,4.8286,4.8247,4.8226,4.8108,4.7947,4.7902,4.7819,4.7699,4.7657,4.7615,4.7615,4.7468,4.7425,4.7356,4.7241,4.7196,4.7088,4.6998,4.6646,4.5992,4.4607,4.3941,4.3276,4.1768,4.138,4.1335,4.1029,4.081,4.0666,4.0634,4.0353,4.0187,4.0239,4.0003,3.985,3.9833,3.9729,3.9642,3.9642,3.9484,3.9362,3.9242,3.9152,3.9164,3.9204,3.9068,3.8843,3.8509,3.8443,3.8388,3.8421,3.8421,3.8398,3.8423,3.8423,3.8343,3.827,3.827,3.8196,3.8107,3.8107,3.7992,2.0113,2.258,2.5164,2.7111,2.925,3.1411,3.3366,3.5528,3.7445,3.8597,4.0096,4.1292,4.1593,4.2731,4.3764,4.4064,4.4102,4.4195,4.4477,4.4515,4.4515,4.4515,4.4458,4.4401,4.4314,4.4274,4.4165,4.4005,4.4005,4.4005,4.4005,4.4005,4.4005,4.4005,4.4005,4.3961,4.3883,4.3837,4.3719,4.3548,4.3513,4.3773,4.4305,4.4305,4.4745,4.5535,4.6067,4.6911,4.7921,4.8196,4.8306,4.8306,4.8247,4.813,4.7992,4.7947,4.7824,4.7717,4.7717,4.7717,4.7675,4.7615,4.7554,4.7468,4.7294,4.7223,4.7196,4.7043,4.6888,4.6422,4.4769,4.3837,4.3004,4.1761,4.1426,4.1398,4.1267,4.1064,4.081,4.0796,4.0551,4.037,4.0404,4.0188,3.9952,4.0054,3.9884,3.9781,3.9781,3.9642,3.9504,3.9404,3.9348,3.9342,3.9437,3.9367,3.916,3.8761,3.869,3.8707,3.8668,3.8668,3.8717,3.8688,3.8502,3.8414,3.8415,3.8391,3.8383,3.8277,3.8277,3.8194,0.0,0.0,0.0,2.5314,2.7159,2.9058,3.1638,3.3505,3.5164,3.6882,3.8441,3.9768,4.061,4.1386,4.2187,4.305,4.3219,4.3538,4.4327,4.4439,4.4439,4.4439,4.4439,4.4383,4.424,4.421,4.4132,4.3931,4.3949,4.3949,4.3931,4.3931,4.3931,4.3931,4.3949,4.3892,4.3767,4.3786,4.3686,4.3497,4.3497,4.3497,4.3497,4.3497,4.392,4.4672,4.4709,4.5608,4.7075,4.7921,4.8288,4.8306,4.8306,4.819,4.7992,4.7992,4.7888,4.7717,4.7717,4.7717,4.7717,4.7717,4.7615,4.7468,4.7363,4.7249,4.7196,4.7043,4.687,4.6387,4.4885,4.3146,4.178,4.1648,4.1515,4.1443,4.1565,4.1331,4.1081,4.093,4.0899,4.0834,4.0703,4.0455,4.0339,4.0339,4.0121,3.9918,3.9901,3.9781,3.9644,3.9543,3.9404,3.9435,3.9671,3.9445,3.9322,3.9275,3.9275,3.9325,3.9298,3.9314,3.9314,3.9314,3.8739,3.8443,3.8446,3.8415,3.8407,3.8386,3.8418,3.8483,1.8707,0.0,0.0,0.0,0.0,0.0,2.9771,3.1299,3.2713,3.5013,3.6252,3.719,3.8056,3.8836,3.9614,4.0478,4.1605,4.2449,4.2675,4.2712,4.2712,4.2712,4.2712,4.2631,4.2492,4.2492,4.2435,4.2289,4.2797,4.2872,4.2296,4.2259,4.2259,4.2259,4.2773,4.2995,4.2881,4.3406,4.36,4.3497,4.3497,4.3497,4.3497,4.3497,4.3608,4.3864,4.4452,4.4966,4.548,4.6874,4.7774,4.8306,4.8306,4.8247,4.813,4.805,4.7929,4.7819,4.7717,4.7717,4.7717,4.7717,4.7657,4.7615,4.7511,4.7363,4.7232,4.7178,4.6632,4.5722,4.4066,4.2695,4.178,4.1736,4.1648,4.1533,4.1611,4.152,4.1366,4.1099,4.0892,4.0903,4.1386,4.1338,4.1221,4.1221,4.107,4.0798,4.0273,4.0003,3.9866,3.99,3.9763,3.9659,3.9728,3.9642,3.952,3.9329,3.9276,3.9325,3.9301,3.9301,3.9297,3.927,3.9155,3.9057,3.9039,3.8618,3.8373,3.8402,3.943,3.9941,2.0025,2.0866,2.1953,2.3248,0.0,0.0,2.7781,2.9198,3.0655,3.2845,3.3863,3.4764,3.5991,3.681,3.7474,3.7962,3.9126,4.044,4.1804,4.1991,4.1991,4.1991,4.1991,4.1938,4.1801,4.1801,4.1745,4.1619,4.2017,4.2092,4.1627,4.159,4.159,4.159,4.1983,4.2112,4.2013,4.2396,4.272,4.3002,4.3002,4.3167,4.3497,4.3497,4.3497,4.3516,4.3993,4.4397,4.4819,4.6085,4.7076,4.7847,4.8177,4.8247,4.8187,4.805,4.7947,4.7861,4.7759,4.7717,4.7717,4.7717,4.7717,4.7657,4.7554,4.7468,4.7363,4.7223,4.6266,4.4991,4.3746,4.2924,4.2298,4.1841,4.1965,4.2088,4.1655,4.1558,4.1468,4.1267,4.1375,4.1595,4.1891,4.207,4.2175,4.2175,4.1801,4.1324,4.0898,4.0391,4.0121,4.0189,4.0036,3.9933,3.9848,3.9882,3.9778,3.9623,3.9556,3.9418,3.9329,3.9305,3.9297,3.9287,4.0503,4.1077,4.1124,3.9259,3.9021,4.0162,4.1015,4.1371,2.2325,2.2476,2.2621,2.3485,2.4236,0.0,2.5982,2.7346,2.89,3.0587,3.1428,3.2374,3.3939,3.4932,3.5484,3.5484,3.6216,3.7906,4.1022,4.1522,4.1578,4.1578,4.1653,4.1657,4.1539,4.1539,4.1455,4.1311,4.1311,4.1349,4.146,4.1367,4.1311,4.1311,4.1334,4.128,4.1163,4.118,4.1507,4.2176,4.2268,4.2671,4.3369,4.3442,4.3497,4.3497,4.3497,4.3901,4.4635,4.5424,4.6305,4.7205,4.7994,4.8247,4.8187,4.809,4.7988,4.7902,4.7759,4.7717,4.7717,4.7717,4.7717,4.7657,4.7554,4.7511,4.7432,4.7052,4.5873,4.4589,4.3789,4.3479,4.3127,4.2167,4.2617,4.2978,4.207,4.1761,4.1705,4.1684,4.2137,4.251,4.2358,4.2785,4.3151,4.3151,4.2363,4.1731,4.1629,4.0847,4.0305,4.0305,4.0172,4.0138,4.0138,4.0103,4.0085,4.0101,3.9899,3.9609,3.9348,3.9301,3.9424,3.977,4.2311,4.3605,4.3597,4.0401,4.0151,4.2602,4.2629,4.2629,2.3332,2.2892,2.2615,2.3466,2.3814,0.0,2.5849,2.6437,2.7157,2.8843,2.9252,2.9618,3.06,3.1958,3.2896,3.2837,3.4113,3.5766,3.7774,3.8619,3.9032,3.9032,3.9602,3.9963,3.9885,3.9768,3.9667,3.9584,3.9584,3.9881,4.0587,3.9974,3.9556,3.9517,4.0078,4.032,4.0259,4.0845,4.1185,4.135,4.1992,4.2378,4.2561,4.3185,4.3497,4.3497,4.3497,4.3589,4.3791,4.4599,4.581,4.7205,4.7994,4.8306,4.8286,4.8169,4.809,4.797,4.7884,4.7801,4.7717,4.7717,4.7717,4.7717,4.7657,4.7615,4.7198,4.5681,4.5513,4.5416,4.3893,4.3657,4.3819,4.3908,4.437,4.4546,4.38,4.3585,4.354,4.3419,4.2899,4.2588,4.3145,4.3794,4.4213,4.4213,4.3373,4.2516,4.1831,4.0996,4.0485,4.0485,4.0355,4.0272,4.0272,4.0189,4.0037,3.9951,3.9985,3.988,3.9631,3.9425,4.038,4.2718,4.3287,4.3623,4.3614,4.2358,4.2027,4.2593,4.258,4.2567,2.5655,2.5253,2.4945,2.4964,2.4959,0.0,0.0,2.5598,2.5944,2.7195,2.7396,2.7595,2.8393,2.9529,3.034,3.0265,3.1316,3.2593,3.3832,3.5784,3.7249,3.7643,3.8027,3.8216,3.8159,3.807,3.7992,3.7894,3.8265,3.8692,3.912,3.9092,3.9036,3.8979,3.928,3.946,3.9399,3.973,4.0102,4.0506,4.091,4.1515,4.2304,4.2708,4.3112,4.3497,4.3497,4.3497,4.3552,4.4378,4.5424,4.6581,4.7407,4.7957,4.8306,4.8208,4.8148,4.7992,4.7925,4.7819,4.7717,4.7717,4.7717,4.7717,4.7717,4.7615,4.7216,4.5942,4.576,4.5763,4.4718,4.4642,4.4831,4.4858,4.5152,4.5222,4.4367,4.418,4.418,4.4135,4.3968,4.3903,4.4143,4.4742,4.5145,4.5145,4.404,4.3026,4.263,4.1432,4.0583,4.0583,4.0485,4.0387,4.0387,4.0303,4.0221,4.0121,4.0087,4.0051,3.9887,4.045,4.176,4.3866,4.3896,4.3823,4.3756,4.3297,4.3108,4.3072,4.3007,4.2867,2.8195,2.7854,2.7494,2.647,2.6205,2.5996,0.0,0.0,0.0,2.5844,2.5934,2.6023,2.6503,2.7248,2.7706,2.7486,2.8312,2.927,3.0077,3.2649,3.494,3.6216,3.6452,3.6494,3.6422,3.6497,3.657,3.6686,3.7299,3.7726,3.7867,3.8461,3.883,3.895,3.8851,3.8792,3.8792,3.8719,3.9038,3.9662,3.9827,4.0653,4.2066,4.2231,4.2745,4.3497,4.3497,4.3497,4.3534,4.4195,4.4947,4.5755,4.6746,4.7609,4.8306,4.8247,4.813,4.805,4.7966,4.7842,4.7759,4.7759,4.7717,4.7717,4.7717,4.7615,4.7391,4.6537,4.6302,4.6191,4.567,4.5835,4.6007,4.5641,4.5793,4.5729,4.4964,4.4759,4.4759,4.4777,4.5152,4.5417,4.5019,4.5484,4.5821,4.5821,4.4605,4.3669,4.3669,4.223,4.124,4.124,4.1077,4.091,4.0791,4.081,4.0794,4.0745,4.0578,4.0457,4.05,4.1959,4.3216,4.4172,4.4205,4.4089,4.3923,4.3748,4.3595,4.3558,4.3382,4.3211,2.9867,2.9109,2.818,2.6588,2.6205,2.5996,2.5181,0.0,2.5029,2.5124,0.0,2.4893,2.4162,0.0,0.0,2.4178,2.5399,2.6714,2.7505,2.8575,3.0377,3.3456,3.4345,3.4708,3.4685,3.528,3.595,3.6649,3.6779,3.7124,3.7785,3.7896,3.82,3.8785,3.8822,3.8762,3.8689,3.8707,3.8762,3.8836,3.9551,4.0377,4.1277,4.1974,4.2745,4.3497,4.3497,4.3497,4.3497,4.3589,4.4103,4.5002,4.6526,4.7609,4.8306,4.8306,4.8247,4.8187,4.8148,4.8046,4.7861,4.7861,4.7819,4.7717,4.7717,4.7699,4.7494,4.6537,4.6783,4.7119,4.6295,4.6585,4.7035,4.6999,4.6927,4.6791,4.6547,4.6529,4.6482,4.6371,4.6395,4.6206,4.5411,4.5681,4.5972,4.5972,4.514,4.455,4.455,4.3721,4.3103,4.3103,4.2856,4.2482,4.1982,4.2295,4.2364,4.1936,4.1784,4.1781,4.2025,4.3524,4.4276,4.4186,4.4138,4.4064,4.3922,4.3905,4.3689,4.3355,4.3339,4.3267,3.1694,3.0861,2.9918,2.8719,2.7679,2.6735,2.5901,2.5351,2.501,2.501,0.0,0.0,0.0,0.0,0.0,0.0,2.3708,2.4125,2.4933,2.5346,2.6979,3.0809,3.1422,3.1712,3.2151,3.2478,3.3175,3.4457,3.4977,3.5583,3.6358,3.7248,3.7858,3.8092,3.8523,3.875,3.875,3.875,3.878,3.881,3.9111,3.9908,4.1176,4.146,4.2304,4.3497,4.3497,4.3497,4.3497,4.3497,4.3975,4.4819,4.5975,4.6911,4.7682,4.8141,4.8247,4.8187,4.8187,4.8108,4.7947,4.7902,4.7861,4.7819,4.7717,4.7717,4.7645,4.7199,4.7301,4.7439,4.7029,4.7104,4.7232,4.7214,4.7169,4.7143,4.7098,4.707,4.7043,4.6934,4.6842,4.6595,4.623,4.63,4.6301,4.6253,4.5505,4.4918,4.482,4.4077,4.351,4.351,4.3412,4.321,4.2884,4.2684,4.2721,4.3115,4.3649,4.3885,4.3858,4.4504,4.4754,4.4669,4.4536,4.4406,4.4243,4.4186,4.4047,4.3805,4.3588,4.3459,3.357,3.283,3.196,3.0402,2.9114,2.785,2.6541,2.5768,2.5275,2.5048,2.501,0.0,0.0,0.0,2.3172,2.2891,0.0,2.2154,2.2731,2.3032,2.4445,2.7918,2.8409,2.8781,2.95,2.9797,3.0575,3.221,3.3083,3.3987,3.4988,3.6518,3.746,3.7595,3.8327,3.875,3.8792,3.8822,3.8833,3.891,3.8851,3.9669,4.1204,4.1158,4.2007,4.3497,4.3497,4.3497,4.3497,4.3497,4.3828,4.4452,4.5259,4.6067,4.6911,4.7921,4.8286,4.8226,4.8226,4.813,4.805,4.7966,4.7925,4.7884,4.7801,4.7759,4.7759,4.7717,4.7615,4.7554,4.7554,4.7468,4.7345,4.7309,4.7284,4.7302,4.7302,4.7232,4.7223,4.7196,4.7043,4.6888,4.6842,4.6731,4.659,4.6495,4.5922,4.5457,4.533,4.4743,4.4314,4.4265,4.4216,4.4167,4.4101,4.3605,4.361,4.4267,4.501,4.5264,4.4998,4.5032,4.5012,4.5012,4.4886,4.4742,4.458,4.4429,4.4367,4.432,4.3914,4.3697,3.5491,3.4997,3.4198,3.0906,3.0,2.9285,2.6854,2.6219,2.5939,2.5162,2.501,2.475,2.3896,2.3018,2.2161,2.1299,2.1091,0.0,0.0,2.1816,2.298,2.467,2.5489,2.6207,2.6953,2.7734,2.8866,3.0559,3.1433,3.2539,3.4055,3.5668,3.6869,3.7577,3.8368,3.8792,3.8792,3.8862,3.891,3.891,3.891,3.97,4.1204,4.1204,4.2022,4.3497,4.3497,4.3497,4.3497,4.3497,4.3516,4.3608,4.4415,4.5241,4.6122,4.7719,4.8306,4.8306,4.8306,4.8247,4.8187,4.805,4.7992,4.7951,4.7925,4.7902,4.7861,4.7717,4.7717,4.7699,4.7699,4.7597,4.7511,4.7511,4.7407,4.7302,4.7302,4.732,4.7276,4.7223,4.7178,4.7151,4.7043,4.6778,4.659,4.659,4.6572,4.6489,4.6346,4.6231,4.6084,4.5953,4.5802,4.5767,4.5898,4.58,4.5597,4.5373,4.5372,4.5284,4.5039,4.5069,4.5118,4.5118,4.5012,4.4944,4.4787,4.4678,4.458,4.4587,4.4212,4.3998,3.699,3.6018,3.4895,3.377,3.1775,2.9844,2.8958,2.7865,2.6977,2.6716,2.666,2.638,2.5452,2.4611,2.3582,2.2128,2.1392,2.0802,0.0,2.0464,2.0827,2.1339,2.2555,2.3636,2.4371,2.5207,2.6619,2.8773,2.9741,3.111,3.321,3.4326,3.552,3.6823,3.7663,3.8346,3.8921,3.895,3.8979,3.9017,3.8979,3.9523,4.0547,4.1021,4.1825,4.2794,4.3413,4.3652,4.3548,4.3652,4.3686,4.376,4.4483,4.4908,4.5349,4.6911,4.7847,4.8306,4.8306,4.8286,4.8247,4.8169,4.813,4.809,4.801,4.7988,4.7947,4.7861,4.7819,4.7819,4.7717,4.7675,4.7615,4.7615,4.7615,4.7554,4.7554,4.7565,4.754,4.7399,4.7338,4.7232,4.7187,4.7125,4.6989,4.6795,4.6731,4.6684,4.6542,4.6477,4.6381,4.6301,4.6204,4.6137,4.5988,4.5871,4.5787,4.577,4.5649,4.5563,4.5511,4.5632,4.558,4.5284,4.5266,4.5213,4.5072,4.4927,4.4835,4.4886,4.4665,4.44,3.8282,3.7387,3.6398,3.5806,3.377,3.1756,3.1115,2.9867,2.8677,2.8078,2.793,2.765,2.6767,2.5679,2.4426,2.3008,2.1795,2.0753,0.0,1.9807,1.9776,1.9713,2.0891,2.1894,2.2306,2.3124,2.4518,2.6674,2.7883,2.9442,3.1551,3.321,3.4715,3.6075,3.7165,3.8136,3.8979,3.9007,3.9064,3.9101,3.9064,3.9433,4.02,4.0688,4.1477,4.247,4.3088,4.3476,4.3667,4.3753,4.3804,4.3859,4.4291,4.4607,4.5049,4.6563,4.7627,4.8306,4.8306,4.8306,4.8306,4.8247,4.8226,4.8208,4.809,4.809,4.805,4.7947,4.7925,4.7925,4.7801,4.7759,4.7759,4.7717,4.7717,4.7717,4.7717,4.7711,4.7644,4.7529,4.7486,4.7327,4.696,4.6906,4.6926,4.6944,4.6934,4.6888,4.6684,4.6684,4.6637,4.6495,4.6495,4.6398,4.6204,4.6105,4.604,4.606,4.5922,4.5803,4.5873,4.5942,4.5874,4.5632,4.5546,4.5459,4.5353,4.514,4.5086,4.5086,4.4923,4.4682]}]]